[[{"header":{"parameterUnit":"m.s-1","parameterCategory":1,"la1":30.6,"la2":29.2853,"lo1":-89.7004,"lo2":-87.6739,"dy":0.0162,"dx":0.0183,"nx":112,"ny":82,"refTime":"2024-07-27T06:00:00:Z","depth":0,"parameterNumber":2,"parameterNumberName":"U-component_of_WINDS"},"data":[0.0,0.0,0.0,0.0,0.0,0.0,0.0,0.0,0.0,0.0,0.0,0.0,0.0,0.0,0.0,0.0,0.0,0.0,0.0,0.0,0.0,0.0,0.0,0.0,0.0,0.0,0.0,0.0,0.0,0.0,0.0,0.0,0.0,0.0,0.0,0.0,0.0,0.0,0.0,0.0,0.0,0.0,0.0,0.0,0.0,0.0,0.0,0.0,0.0,0.0,0.0,0.0,0.0,0.0,0.0,0.0,0.0,0.0,0.0,0.0,0.0,0.0,0.0,0.0,0.0,0.0,0.0,0.0,0.0,0.0,0.0,0.0,0.0,0.0,0.0,0.0,0.0,0.0,0.0,0.0,0.0,0.0,0.0,0.0,0.0,0.0,0.0,0.0,0.0,0.0,0.0,-2.3071,-2.4628,-2.5135,-2.4389,-2.4321,-2.3088,-2.017,0.0,0.0,0.0,0.0,0.0,0.0,0.0,0.0,0.0,0.0,0.0,0.0,0.0,0.0,0.0,0.0,0.0,0.0,0.0,0.0,0.0,0.0,0.0,0.0,0.0,0.0,0.0,0.0,0.0,0.0,0.0,0.0,0.0,0.0,0.0,0.0,0.0,0.0,0.0,0.0,0.0,0.0,0.0,0.0,0.0,0.0,0.0,0.0,0.0,0.0,0.0,0.0,0.0,0.0,0.0,0.0,0.0,0.0,0.0,0.0,0.0,0.0,0.0,0.0,0.0,0.0,0.0,0.0,0.0,0.0,0.0,0.0,0.0,0.0,0.0,0.0,0.0,0.0,0.0,0.0,0.0,0.0,0.0,0.0,0.0,0.0,0.0,0.0,0.0,0.0,0.0,0.0,0.0,0.0,0.0,0.0,0.0,0.0,0.0,0.0,0.0,0.0,0.0,0.0,-1.9367,-2.3004,-2.4169,-2.4372,-2.363,-2.3577,-2.2547,-2.0137,0.0,0.0,0.0,0.0,0.0,0.0,0.0,0.0,0.0,0.0,0.0,0.0,0.0,0.0,0.0,0.0,0.0,0.0,0.0,0.0,0.0,0.0,0.0,0.0,0.0,0.0,0.0,0.0,0.0,0.0,0.0,0.0,0.0,0.0,0.0,0.0,0.0,0.0,0.0,0.0,0.0,0.0,0.0,0.0,0.0,0.0,0.0,0.0,0.0,0.0,0.0,0.0,0.0,0.0,0.0,0.0,0.0,0.0,0.0,0.0,0.0,0.0,0.0,0.0,0.0,0.0,0.0,0.0,0.0,0.0,0.0,0.0,0.0,0.0,0.0,0.0,0.0,0.0,0.0,0.0,0.0,0.0,0.0,0.0,0.0,0.0,0.0,0.0,0.0,0.0,0.0,0.0,0.0,0.0,0.0,0.0,0.0,0.0,0.0,0.0,0.0,0.0,0.0,-1.9164,-2.0602,-2.3122,-2.3712,-2.378,-2.3427,-2.3038,-2.1992,-2.012,-1.8807,0.0,0.0,0.0,0.0,0.0,0.0,0.0,0.0,0.0,0.0,0.0,0.0,0.0,0.0,0.0,0.0,0.0,0.0,0.0,0.0,0.0,0.0,0.0,0.0,0.0,0.0,0.0,0.0,0.0,0.0,0.0,0.0,0.0,0.0,0.0,0.0,0.0,0.0,0.0,0.0,0.0,0.0,0.0,0.0,0.0,0.0,0.0,0.0,0.0,0.0,0.0,0.0,0.0,0.0,0.0,0.0,0.0,0.0,0.0,0.0,0.0,0.0,0.0,0.0,0.0,0.0,0.0,0.0,0.0,0.0,0.0,0.0,0.0,0.0,0.0,0.0,0.0,0.0,0.0,0.0,0.0,0.0,0.0,0.0,0.0,0.0,0.0,0.0,0.0,0.0,0.0,0.0,0.0,0.0,0.0,0.0,0.0,0.0,0.0,0.0,0.0,0.0,-2.0636,-2.1901,-2.3021,-2.3139,-2.3139,-2.3139,-2.2279,-2.1154,-1.974,-1.7969,0.0,0.0,0.0,0.0,0.0,0.0,0.0,0.0,0.0,0.0,0.0,0.0,0.0,0.0,0.0,0.0,0.0,0.0,0.0,0.0,0.0,0.0,0.0,0.0,0.0,0.0,0.0,0.0,0.0,0.0,0.0,0.0,0.0,0.0,0.0,0.0,0.0,0.0,0.0,0.0,0.0,0.0,0.0,0.0,0.0,0.0,0.0,0.0,0.0,0.0,0.0,0.0,0.0,0.0,0.0,0.0,0.0,0.0,0.0,0.0,0.0,0.0,0.0,0.0,0.0,0.0,0.0,0.0,0.0,0.0,0.0,0.0,0.0,0.0,0.0,0.0,0.0,0.0,0.0,0.0,0.0,0.0,0.0,0.0,0.0,0.0,0.0,0.0,0.0,0.0,0.0,0.0,0.0,0.0,0.0,0.0,0.0,0.0,0.0,0.0,0.0,0.0,-2.0454,-2.2245,-2.2364,-2.2381,-2.2381,-2.2381,-2.1028,-1.971,-1.8676,-1.6791,0.0,0.0,0.0,0.0,0.0,0.0,0.0,0.0,0.0,0.0,0.0,0.0,0.0,0.0,0.0,0.0,0.0,0.0,0.0,0.0,0.0,0.0,0.0,0.0,0.0,0.0,0.0,0.0,0.0,0.0,0.0,0.0,0.0,0.0,0.0,0.0,0.0,0.0,0.0,0.0,0.0,0.0,0.0,0.0,0.0,0.0,0.0,0.0,0.0,0.0,0.0,0.0,0.0,0.0,0.0,0.0,0.0,0.0,0.0,0.0,0.0,0.0,0.0,0.0,0.0,0.0,0.0,0.0,0.0,0.0,0.0,0.0,0.0,0.0,0.0,0.0,0.0,0.0,0.0,0.0,0.0,0.0,0.0,0.0,0.0,0.0,0.0,0.0,0.0,0.0,0.0,0.0,0.0,0.0,0.0,0.0,0.0,0.0,0.0,0.0,0.0,0.0,-1.9592,-2.1231,0.0,-2.2296,-2.2296,-2.2296,-2.1772,-2.0668,-1.8862,0.0,0.0,0.0,0.0,0.0,0.0,0.0,0.0,0.0,0.0,0.0,0.0,0.0,0.0,0.0,0.0,0.0,0.0,0.0,0.0,0.0,0.0,0.0,0.0,0.0,0.0,0.0,0.0,0.0,0.0,0.0,0.0,0.0,0.0,0.0,0.0,0.0,0.0,0.0,0.0,0.0,0.0,0.0,0.0,0.0,0.0,0.0,0.0,0.0,0.0,0.0,0.0,0.0,0.0,0.0,0.0,0.0,0.0,0.0,0.0,0.0,0.0,0.0,0.0,0.0,0.0,0.0,0.0,0.0,0.0,0.0,0.0,0.0,0.0,0.0,0.0,0.0,0.0,0.0,0.0,0.0,0.0,0.0,0.0,0.0,0.0,0.0,0.0,0.0,0.0,0.0,0.0,0.0,0.0,0.0,0.0,0.0,0.0,0.0,0.0,0.0,0.0,-1.7631,-1.9507,-2.113,0.0,-2.2296,-2.2237,-2.2092,-2.1438,-2.0227,-1.8236,0.0,0.0,0.0,0.0,0.0,0.0,0.0,0.0,0.0,0.0,0.0,0.0,0.0,0.0,0.0,0.0,0.0,0.0,0.0,0.0,0.0,0.0,0.0,0.0,0.0,0.0,0.0,0.0,0.0,0.0,0.0,0.0,0.0,0.0,0.0,0.0,0.0,0.0,0.0,0.0,0.0,0.0,0.0,0.0,0.0,0.0,0.0,0.0,0.0,0.0,0.0,0.0,0.0,0.0,0.0,0.0,0.0,0.0,0.0,0.0,0.0,0.0,0.0,0.0,0.0,0.0,0.0,0.0,0.0,0.0,0.0,0.0,0.0,0.0,0.0,0.0,0.0,0.0,0.0,0.0,0.0,0.0,0.0,0.0,0.0,0.0,0.0,0.0,0.0,0.0,0.0,0.0,0.0,0.0,0.0,0.0,0.0,0.0,0.0,0.0,0.0,0.0,-1.7698,-2.042,-2.2296,-2.2296,-2.2296,-2.2106,-2.1643,-1.9652,-1.7857,0.0,0.0,0.0,0.0,0.0,0.0,0.0,0.0,0.0,0.0,0.0,0.0,0.0,0.0,0.0,0.0,0.0,0.0,0.0,0.0,0.0,0.0,0.0,0.0,0.0,0.0,0.0,0.0,0.0,0.0,0.0,0.0,0.0,0.0,0.0,0.0,0.0,0.0,0.0,0.0,0.0,0.0,0.0,0.0,0.0,0.0,0.0,0.0,0.0,0.0,0.0,0.0,0.0,0.0,0.0,0.0,0.0,0.0,0.0,0.0,0.0,0.0,0.0,0.0,0.0,0.0,0.0,0.0,0.0,0.0,0.0,0.0,0.0,0.0,0.0,0.0,0.0,0.0,0.0,0.0,0.0,0.0,0.0,0.0,0.0,0.0,0.0,0.0,0.0,0.0,0.0,0.0,0.0,0.0,0.0,0.0,0.0,0.0,0.0,0.0,0.0,0.0,0.0,0.0,-2.042,-2.2296,-2.2296,-2.2296,-2.2106,-2.1643,-2.0588,-1.901,-1.682,0.0,0.0,0.0,0.0,0.0,0.0,0.0,0.0,0.0,0.0,0.0,0.0,0.0,0.0,0.0,0.0,0.0,0.0,0.0,0.0,0.0,0.0,0.0,0.0,0.0,0.0,0.0,0.0,0.0,0.0,0.0,0.0,0.0,0.0,0.0,0.0,0.0,0.0,0.0,0.0,0.0,0.0,0.0,0.0,0.0,0.0,0.0,0.0,0.0,0.0,0.0,0.0,0.0,0.0,0.0,0.0,0.0,0.0,0.0,0.0,0.0,0.0,0.0,0.0,0.0,0.0,0.0,0.0,0.0,0.0,0.0,0.0,0.0,0.0,0.0,0.0,0.0,0.0,0.0,0.0,0.0,0.0,0.0,0.0,0.0,0.0,0.0,0.0,0.0,0.0,0.0,0.0,0.0,0.0,0.0,0.0,0.0,0.0,0.0,0.0,0.0,0.0,-1.7665,-2.042,-2.2296,-2.2296,-2.212,-2.184,-2.1399,-2.0596,-1.9167,-1.6895,0.0,0.0,0.0,0.0,0.0,0.0,0.0,0.0,0.0,0.0,0.0,0.0,0.0,0.0,0.0,0.0,0.0,0.0,0.0,0.0,0.0,0.0,0.0,0.0,0.0,0.0,0.0,0.0,0.0,0.0,0.0,0.0,0.0,0.0,0.0,0.0,0.0,0.0,0.0,0.0,0.0,0.0,0.0,0.0,0.0,0.0,0.0,0.0,0.0,0.0,0.0,0.0,0.0,0.0,0.0,0.0,0.0,0.0,0.0,0.0,0.0,0.0,0.0,0.0,0.0,0.0,0.0,0.0,0.0,0.0,0.0,0.0,0.0,0.0,0.0,0.0,0.0,0.0,0.0,0.0,0.0,0.0,0.0,0.0,0.0,0.0,0.0,0.0,0.0,0.0,0.0,0.0,0.0,0.0,0.0,0.0,0.0,0.0,0.0,0.0,0.0,0.0,-1.7698,-2.0445,-2.2237,-2.2237,-2.1809,-2.1384,-2.0975,-1.9986,-1.8653,-1.6891,0.0,0.0,0.0,0.0,0.0,0.0,0.0,0.0,0.0,0.0,0.0,0.0,0.0,0.0,0.0,0.0,0.0,0.0,0.0,0.0,0.0,0.0,0.0,0.0,0.0,0.0,0.0,0.0,0.0,0.0,0.0,0.0,0.0,0.0,0.0,0.0,0.0,0.0,0.0,0.0,0.0,0.0,0.0,0.0,0.0,0.0,0.0,0.0,0.0,0.0,0.0,0.0,0.0,0.0,0.0,0.0,0.0,0.0,0.0,0.0,-2.1098,0.0,0.0,0.0,0.0,0.0,0.0,0.0,0.0,0.0,0.0,0.0,0.0,0.0,0.0,0.0,0.0,0.0,0.0,0.0,0.0,0.0,0.0,0.0,0.0,0.0,0.0,0.0,0.0,0.0,0.0,0.0,0.0,0.0,0.0,0.0,0.0,0.0,0.0,0.0,0.0,0.0,-1.8471,-2.0471,-2.1749,-2.1749,-2.1385,-2.0927,-2.0483,-1.9808,-1.8837,-1.7565,0.0,0.0,0.0,0.0,0.0,0.0,0.0,0.0,0.0,0.0,0.0,0.0,0.0,0.0,0.0,0.0,0.0,0.0,0.0,0.0,0.0,0.0,0.0,0.0,0.0,0.0,0.0,0.0,0.0,0.0,0.0,0.0,0.0,0.0,0.0,0.0,0.0,0.0,0.0,0.0,0.0,0.0,0.0,0.0,0.0,0.0,0.0,0.0,0.0,0.0,0.0,0.0,0.0,0.0,0.0,0.0,0.0,0.0,0.0,0.0,0.0,-2.2887,0.0,0.0,0.0,0.0,0.0,0.0,0.0,0.0,0.0,0.0,0.0,0.0,0.0,0.0,0.0,0.0,0.0,0.0,0.0,0.0,0.0,0.0,0.0,0.0,0.0,0.0,0.0,0.0,0.0,0.0,0.0,0.0,0.0,0.0,0.0,0.0,0.0,0.0,0.0,0.0,-1.8202,-2.0076,-2.1306,-2.1306,-2.091,-2.0566,-2.0331,-1.9849,-1.9155,-1.8238,-1.6921,0.0,0.0,0.0,0.0,0.0,0.0,0.0,0.0,0.0,0.0,0.0,0.0,0.0,0.0,0.0,0.0,0.0,0.0,0.0,0.0,0.0,0.0,0.0,0.0,0.0,0.0,0.0,0.0,0.0,0.0,0.0,0.0,0.0,0.0,0.0,0.0,0.0,0.0,0.0,0.0,0.0,0.0,0.0,0.0,0.0,0.0,0.0,0.0,0.0,0.0,0.0,0.0,0.0,0.0,0.0,-2.9427,-2.9427,-2.9072,-2.8349,-2.7027,-2.576,-2.4574,0.0,0.0,0.0,0.0,0.0,0.0,0.0,0.0,0.0,0.0,0.0,0.0,0.0,0.0,0.0,0.0,0.0,0.0,0.0,0.0,0.0,0.0,0.0,0.0,0.0,-2.0906,-2.0886,0.0,0.0,0.0,0.0,0.0,0.0,0.0,0.0,0.0,0.0,0.0,0.0,-1.7978,-1.9747,-2.0878,-2.0878,-2.0482,-2.021,-2.021,-1.9892,-1.9468,-1.8912,-1.8252,-1.7145,0.0,0.0,0.0,0.0,0.0,0.0,0.0,0.0,0.0,0.0,0.0,0.0,0.0,0.0,0.0,0.0,0.0,0.0,0.0,0.0,0.0,0.0,0.0,0.0,0.0,0.0,0.0,0.0,0.0,0.0,0.0,0.0,-2.0427,-2.21,0.0,0.0,0.0,0.0,0.0,0.0,0.0,0.0,0.0,0.0,0.0,0.0,0.0,0.0,-2.851,-2.9317,-2.9787,-2.9898,-3.0687,-3.1085,-3.1085,-3.1085,-3.1029,-3.0919,-3.0699,0.0,-2.6151,-2.4488,0.0,0.0,0.0,0.0,0.0,0.0,0.0,0.0,0.0,0.0,0.0,0.0,0.0,0.0,0.0,0.0,0.0,0.0,0.0,0.0,0.0,0.0,-2.1992,-2.1992,-2.2076,-2.206,0.0,-2.0145,-1.8504,-1.7665,0.0,0.0,0.0,0.0,0.0,0.0,0.0,0.0,-1.9444,-2.0081,-2.0399,-2.0399,-2.0017,-1.9782,-1.9782,-1.9729,-1.9663,-1.9573,-1.8942,-1.8446,-1.8194,-1.6563,0.0,0.0,0.0,0.0,0.0,0.0,0.0,0.0,0.0,0.0,0.0,0.0,0.0,0.0,0.0,0.0,0.0,0.0,0.0,0.0,0.0,0.0,0.0,0.0,0.0,0.0,0.0,0.0,0.0,-2.0277,-2.2701,-2.3432,-2.3274,-2.2923,0.0,0.0,0.0,0.0,0.0,0.0,0.0,0.0,0.0,-2.8576,-2.8962,-2.9971,-3.1678,-3.1604,-3.1995,-3.2894,-3.2797,-3.2742,-3.2742,-3.2742,-3.2504,-3.2063,-3.2063,-3.0892,-2.8808,-2.6932,-2.5154,-2.354,0.0,0.0,0.0,0.0,0.0,0.0,-2.2395,0.0,0.0,0.0,0.0,0.0,0.0,0.0,0.0,0.0,0.0,0.0,0.0,0.0,0.0,-2.2919,-2.2598,-2.2296,-2.2296,-2.1532,-2.0585,0.0,-1.9338,-1.8567,-1.7063,0.0,0.0,0.0,0.0,0.0,-1.9133,-1.9672,-1.9947,-1.9947,-1.9818,-1.9708,-1.9708,-1.9708,-1.9708,-1.9708,-1.9405,-1.9091,-1.8717,-1.7879,-1.6787,0.0,0.0,0.0,0.0,0.0,0.0,0.0,0.0,0.0,0.0,0.0,0.0,0.0,0.0,0.0,0.0,0.0,0.0,0.0,0.0,0.0,0.0,0.0,0.0,0.0,0.0,0.0,0.0,-2.2205,-2.4187,-2.4375,-2.5139,-2.5293,0.0,0.0,0.0,0.0,0.0,0.0,-2.7475,-2.8282,-2.9457,-3.1072,-3.1317,-3.2394,-3.4412,-3.3862,-3.4142,-3.5316,-3.4491,-3.4119,-3.41,-3.3899,-3.3476,-3.2913,-3.2913,-3.2165,-3.0815,-2.9112,-2.6964,-2.4732,-2.4272,-2.36,0.0,-2.3477,-2.3678,-2.3763,-2.4305,-2.4491,-2.4355,-2.3444,0.0,-2.1833,-2.0683,0.0,0.0,0.0,0.0,-2.3122,-2.422,0.0,-2.3393,-2.3393,-2.2835,-2.2296,-2.2296,-2.2296,-2.2127,0.0,-2.0995,-2.0064,-1.8426,0.0,0.0,0.0,0.0,-1.8587,-1.8901,-1.9393,-1.9708,-1.9708,-1.9708,-1.9708,-1.9708,-1.9708,-1.9708,-1.9708,-1.9708,-1.9483,-1.8972,-1.8792,-1.8014,0.0,0.0,0.0,0.0,0.0,0.0,0.0,0.0,0.0,0.0,0.0,0.0,0.0,0.0,0.0,0.0,0.0,0.0,0.0,0.0,0.0,0.0,0.0,0.0,0.0,0.0,0.0,0.0,0.0,0.0,-2.5154,-2.6,0.0,0.0,0.0,0.0,-2.6665,-2.8169,-2.9373,-2.9983,-3.0779,-3.1966,-3.3568,-3.4362,-3.5206,-3.6156,-3.6119,-3.6156,-3.6211,-3.5353,-3.4949,-3.4912,-3.4156,-3.377,-3.3733,-3.3733,-3.2835,-3.1266,-3.003,-2.8568,-2.7061,-2.6275,-2.5326,-2.4389,-2.4423,-2.444,-2.444,-2.4491,-2.4491,-2.4609,-2.5236,-2.4932,-2.4321,-2.4237,-2.3729,0.0,0.0,-2.4355,-2.4406,-2.4474,-2.3949,-2.3393,-2.3393,-2.2835,-2.2296,-2.2296,-2.2296,-2.2279,0.0,-2.2212,-2.181,-2.0638,0.0,0.0,-1.9294,-1.8917,-1.8931,-1.9573,-1.9678,-1.9708,-1.9708,-1.9708,-1.9708,-1.9708,-1.9708,-1.9708,-1.9708,-1.9708,-1.9693,-1.9648,-1.9031,-1.8657,-1.8568,-1.6039,0.0,0.0,0.0,0.0,0.0,0.0,0.0,0.0,0.0,0.0,0.0,0.0,0.0,0.0,0.0,0.0,0.0,0.0,0.0,0.0,0.0,0.0,0.0,0.0,0.0,0.0,0.0,0.0,-2.7582,-2.8506,0.0,0.0,-2.9117,-2.9549,-2.9202,-3.0567,-3.1747,-3.2467,-3.3293,-3.4247,-3.5367,-3.5697,-3.6229,-3.707,-3.656,-3.656,-3.707,-3.6229,-3.5536,-3.5004,-3.4711,-3.4302,-3.3793,-3.3522,-3.2913,-3.2057,-3.1312,-2.9969,-2.8305,-2.7521,-2.6961,-2.6573,-2.6082,-2.5929,-2.5929,-2.5929,-2.5929,-2.5879,-2.5676,-2.5101,-2.4491,-2.4491,-2.4321,-2.4271,-2.5,-2.5203,-2.5321,-2.5794,-2.5372,-2.4695,-2.422,-2.3528,-2.2885,-2.2398,-2.2296,-2.2296,-2.2296,-2.2296,-2.1857,-2.0455,-2.0669,-2.0556,-1.9169,-1.9392,-1.9726,-1.9699,-1.9708,-1.9708,-1.9708,-1.9708,-1.9708,-1.9708,-1.9708,-1.9708,-1.9708,-1.9286,-1.9061,-1.9061,-1.8401,-1.7848,-1.7413,-1.6129,-1.4691,0.0,0.0,0.0,0.0,0.0,0.0,0.0,0.0,0.0,0.0,0.0,0.0,0.0,0.0,0.0,0.0,0.0,0.0,0.0,0.0,0.0,0.0,0.0,0.0,0.0,0.0,-2.7967,-2.9371,-3.0544,-3.1143,-3.0902,-3.1643,-3.2152,-3.2177,-3.3222,-3.4082,-3.4614,-3.5147,-3.5844,-3.667,-3.6703,-3.7088,-3.7915,-3.7367,-3.7367,-3.7915,-3.7088,-3.6266,-3.5426,-3.5133,-3.4564,-3.3793,-3.3375,-3.2937,-3.2467,-3.1986,-3.0982,-2.967,-2.8872,-2.8263,-2.7739,-2.7249,-2.6911,-2.6691,-2.6691,-2.6691,-2.6623,-2.6133,-2.5642,-2.5235,-2.5235,-2.5235,-2.5337,-2.5828,-2.5981,-2.6082,-2.6573,-2.615,-2.549,-2.4983,-2.412,-2.3274,-2.2784,-2.2482,-2.2237,-2.2092,-2.2061,-2.1734,-2.0719,-2.0889,-2.0719,-1.944,-1.9728,-2.0,-1.9729,-1.9708,-1.9708,-1.9708,-1.9708,-1.9708,-1.9708,-1.9708,-1.9708,-1.9708,-1.9271,-1.9031,-1.9031,-1.8386,-1.7833,-1.7384,-1.6548,-1.535,-1.3805,0.0,0.0,0.0,0.0,0.0,0.0,0.0,0.0,0.0,0.0,0.0,0.0,0.0,0.0,0.0,0.0,0.0,0.0,0.0,0.0,0.0,0.0,0.0,-2.6601,-2.814,-2.9506,-3.0404,-3.1948,-3.2883,-3.273,-3.3876,-3.4886,-3.5483,-3.6006,-3.6303,-3.634,-3.634,-3.6707,-3.7511,-3.7547,-3.7915,-3.8689,-3.8707,-3.8707,-3.8689,-3.7915,-3.7125,-3.6303,-3.5463,-3.4619,-3.3798,-3.3397,-3.2939,-3.2467,-3.1969,-3.1547,-3.1123,-3.0395,-2.9176,-2.7874,-2.7858,-2.7402,-2.6759,-2.6742,-2.6725,-2.6725,-2.6725,-2.6691,-2.6691,-2.6691,-2.6691,-2.6691,-2.6691,-2.6691,-2.6691,-2.6691,-2.6167,-2.5626,-2.5609,-2.4509,-2.346,-2.341,-2.282,-2.2168,-2.1688,-2.1582,-2.1552,-2.1552,-2.0846,-2.0297,-2.028,-1.9962,0.0,-1.9708,-1.9708,-1.9708,-1.9708,-1.9708,-1.9708,-1.9708,-1.9708,-1.9708,-1.9708,-1.9678,-1.9678,-1.9678,-1.9016,-1.8672,-1.8672,-1.7369,-1.6413,-1.5829,0.0,0.0,0.0,0.0,0.0,0.0,0.0,0.0,0.0,0.0,0.0,0.0,0.0,0.0,0.0,0.0,0.0,0.0,0.0,0.0,0.0,0.0,-2.9077,-2.9327,-3.0294,-3.1525,-3.2987,-3.3564,-3.4227,-3.5196,-3.5438,-3.5761,-3.6335,-3.6325,-3.6556,-3.7144,-3.718,-3.7547,-3.834,-3.8377,-3.8487,-3.8707,-3.8707,-3.8707,-3.8707,-3.8487,-3.7955,-3.7162,-3.6923,-3.6028,-3.4628,-3.3872,-3.3164,-3.2434,-3.1694,-3.131,-3.1123,-3.0395,-2.9835,-2.9396,-2.8873,-2.8553,-2.8282,-2.7706,-2.7503,-2.7401,-2.686,-2.6691,-2.6691,-2.6691,-2.6691,-2.6691,-2.6691,-2.6691,-2.6691,-2.6691,-2.6539,-2.6251,-2.5744,-2.5288,-2.4712,-2.363,-2.2968,-2.2392,-2.1742,-2.1102,-2.0666,-2.0666,-2.0466,-2.0195,-1.9909,0.0,0.0,-1.9708,-1.9708,-1.9708,-1.9708,-1.9708,-1.9708,-1.9708,-1.9708,-1.9708,0.0,-1.9241,-1.8972,-1.8972,-1.8326,-1.7968,-1.7968,-1.7145,-1.6622,0.0,0.0,0.0,0.0,0.0,0.0,0.0,0.0,0.0,0.0,0.0,0.0,0.0,0.0,0.0,0.0,0.0,0.0,0.0,0.0,0.0,0.0,-2.9794,-3.1577,-3.1948,-3.2429,-3.3237,-3.4584,-3.5045,-3.5715,-3.6905,-3.7072,-3.7333,-3.7877,-3.7647,-3.763,-3.797,-3.7991,-3.8212,-3.8689,-3.8707,-3.8707,-3.8707,-3.8707,-3.8707,-3.8707,-3.8707,-3.8267,-3.7492,-3.7492,-3.6487,0.0,-3.4002,-3.3123,-3.2144,-3.1468,-3.119,0.0,0.0,0.0,0.0,0.0,-2.8993,-2.8942,-2.8467,-2.8077,-2.7739,-2.73,-2.6945,-2.6691,-2.6691,-2.6691,-2.6691,-2.6691,-2.6691,-2.6691,-2.6691,-2.6691,-2.659,-2.6167,-2.5592,-2.4898,-2.4051,-2.3227,-2.2406,-2.153,0.0,0.0,-2.0133,-2.0052,-1.9965,-1.9744,-1.9708,-1.9708,0.0,-1.9708,-1.9708,-1.9708,-1.9708,-1.9708,-1.9708,-1.9708,0.0,0.0,0.0,-1.8986,-1.8717,0.0,0.0,0.0,0.0,0.0,0.0,0.0,0.0,0.0,-1.6936,-1.6922,0.0,0.0,0.0,0.0,0.0,0.0,0.0,0.0,0.0,0.0,0.0,0.0,0.0,0.0,0.0,0.0,-3.1506,-3.3353,-3.4225,-3.4359,-3.4622,-3.5404,-3.6212,-3.7038,-3.7911,-3.8491,-3.902,-3.9566,-3.9289,-3.8985,0.0,0.0,0.0,0.0,0.0,-3.8707,-3.8707,-3.8707,-3.8707,-3.8707,-3.8707,-3.8322,-3.7639,-3.7639,-3.655,-3.463,-3.4171,-3.3178,-3.1909,-3.1489,-3.1275,-3.119,-3.119,-3.0801,-3.0142,-2.9501,-2.9247,0.0,0.0,0.0,0.0,-2.7824,-2.73,-2.6691,-2.6691,-2.6691,-2.6691,-2.6691,-2.6691,-2.6691,-2.6691,-2.6691,-2.6674,-2.659,-2.5591,-2.4592,-2.4508,-2.3532,-2.2362,-2.1424,-2.1241,-2.0934,-1.999,-1.9753,-1.9708,-1.9708,-1.9708,0.0,-1.9708,-1.9708,-1.9708,-1.9708,0.0,0.0,-1.9708,-1.9708,-1.9708,-1.9708,-1.9708,-1.942,-1.8837,-1.8807,-1.8807,-1.8807,-1.8807,-1.9106,-1.9708,-1.9708,-1.9708,-1.9663,-1.7878,-1.7811,0.0,0.0,0.0,0.0,0.0,0.0,0.0,0.0,0.0,0.0,0.0,0.0,0.0,0.0,0.0,-3.1872,-3.316,-3.4257,-3.5135,-3.525,-3.5308,-3.5481,-3.6212,-3.7038,-3.7911,-3.8491,-3.902,-3.9566,-3.9289,-3.8985,-3.8704,-3.8707,0.0,-3.8707,-3.8707,-3.8707,-3.8707,-3.8707,-3.8707,-3.8707,0.0,0.0,-3.8469,-3.8469,-3.7651,-3.622,-3.5758,-3.4479,-3.2722,-3.2293,-3.1752,-3.119,-3.119,-3.1106,-3.097,-3.0818,-3.0768,-3.0683,-3.0091,-2.9397,-2.8653,-2.801,-2.73,-2.6691,-2.6691,-2.6691,0.0,-2.6691,-2.6691,-2.6691,-2.6691,-2.6691,-2.6539,-2.5947,-2.5592,-2.522,-2.4626,-2.372,-2.295,-2.2735,-2.168,-2.0741,-2.0528,-2.0049,-1.9708,-1.9708,-1.9708,-1.9708,-1.9708,-1.9708,-1.9708,-1.9708,-1.9708,-1.9708,-1.9708,-1.9708,-1.9708,-1.9708,-1.9708,-1.9648,-1.9513,-1.9513,-1.9513,-1.9513,-1.9513,-1.9573,-1.9708,-1.9708,-1.9708,-1.9693,-1.9286,-1.9346,0.0,0.0,0.0,0.0,0.0,0.0,0.0,0.0,0.0,0.0,0.0,-2.7736,-2.9486,0.0,-3.2064,-3.3333,-3.4276,-3.5007,-3.5442,-3.55,-3.55,-3.55,-3.6212,-3.7038,-3.7911,-3.8491,-3.902,-3.9566,-3.9289,-3.8985,-3.8704,-3.8707,-3.8707,-3.8707,-3.8707,-3.8707,-3.8707,-3.8707,-3.8707,-3.8707,-3.8707,-3.8707,-3.8707,-3.8707,-3.7995,-3.6722,-3.6221,-3.4866,-3.2968,-3.2105,-3.1532,-3.119,-3.119,-3.119,-3.119,-3.119,-3.119,-3.114,-3.0784,-3.0159,-2.9414,-2.8653,-2.8146,-2.7723,-2.6928,-2.6962,-2.7182,-2.6793,-2.6691,-2.6691,-2.6691,-2.6691,-2.6607,-2.6234,-2.5592,-2.505,-2.505,-2.4183,-2.3331,-2.3138,-2.2259,-2.1375,-2.0805,-2.0139,-1.9708,-1.9708,-1.9708,-1.9708,-1.9708,-1.9708,-1.9708,-1.9708,-1.9708,-1.9708,-1.9708,-1.9708,-1.9708,-1.9708,-1.9708,-1.9708,-1.9708,-1.9708,-1.9708,-1.9708,-1.9708,-1.9708,-1.9708,-1.9708,-1.9869,-2.0198,-2.0198,-2.0425,0.0,0.0,0.0,0.0,0.0,0.0,0.0,0.0,-2.6788,-2.8506,-2.9396,-3.0319,-3.1891,-3.2718,-3.343,-3.4314,-3.5045,-3.55,-3.55,-3.55,-3.55,-3.55,-3.6212,-3.7038,-3.7911,-3.8533,-3.908,-3.9547,-3.9339,-3.9054,-3.8719,-3.8707,-3.8707,-3.8707,-3.8707,-3.8707,-3.8707,-3.8707,-3.8707,-3.8707,-3.8707,-3.8707,-3.8707,-3.8707,-3.8068,-3.6972,-3.6043,-3.4701,-3.3062,-3.1725,-3.119,-3.119,-3.119,-3.119,-3.119,-3.119,-3.119,-3.119,-3.119,-3.0717,-2.9989,-2.9247,-2.8891,-2.8501,-2.7114,-2.7114,-2.7452,-2.686,-2.6691,-2.6691,-2.6691,-2.6691,-2.6657,-2.6522,-2.5591,-2.488,-2.5473,-2.4647,-2.3713,-2.3524,-2.2935,-2.2175,-2.1248,-2.0528,-2.0007,-1.9738,-1.9708,-1.9708,-1.9708,-1.9708,-1.9708,-1.9708,-1.9708,-1.9708,-1.9708,-1.9708,-1.9708,-1.9708,-1.9708,-1.9708,-1.9708,-1.9708,-1.9708,-1.9708,-1.9708,-1.9708,-1.9708,-1.9842,-2.0098,-2.0502,-2.0768,-2.1188,-2.3379,-2.3026,-2.3389,-2.5619,-2.5673,-2.6154,0.0,0.0,-3.0308,-3.1987,-3.241,-3.2776,-3.3744,-3.3994,-3.4334,-3.5212,-3.5442,-3.55,-3.55,-3.55,-3.55,-3.55,-3.6212,-3.7038,-3.7911,-3.8754,-3.9332,-3.9588,-3.9564,-3.9288,-3.8719,-3.8707,-3.8707,-3.8707,-3.8707,-3.8707,-3.8707,-3.8707,-3.8707,-3.8707,-3.8707,-3.8707,-3.8707,-3.8707,-3.8362,-3.7661,-3.5378,-3.4022,-3.3236,-3.1805,-3.119,-3.119,-3.119,-3.119,-3.119,-3.119,-3.119,-3.119,-3.119,-3.0717,-2.9989,-2.9247,-2.8518,-2.7773,-2.6945,-2.6759,-2.681,-2.6708,-2.6691,-2.6691,-2.6691,-2.6691,-2.6522,-2.5879,-2.5609,-2.5507,-2.5576,-2.4807,-2.4241,-2.4849,-2.3727,-2.2635,-2.2493,-2.1924,-2.1066,-1.9887,-1.9708,-1.9708,-1.9708,-1.9708,-1.9708,-1.9708,-1.9708,-1.9708,-1.9708,-1.9708,-1.9708,-1.9708,-1.9708,-1.9708,-1.9708,-1.9708,-1.9708,-1.9708,-1.9708,-1.9708,-1.9708,-2.0303,-2.0317,-1.9838,-2.103,-2.1629,-2.4509,-2.5247,0.0,0.0,-2.7063,-2.8102,-3.0423,-3.0654,-3.1019,-3.3199,-3.3667,-3.391,-3.4795,-3.4968,-3.5238,0.0,-3.6192,-3.6192,-3.6192,-3.6192,-3.6019,-3.5558,-3.6212,-3.7038,-3.7911,-3.8142,-3.8632,-3.9539,-3.9414,-3.9117,-3.8719,-3.8707,-3.8707,-3.8707,-3.8707,-3.8707,-3.8707,-3.8707,-3.8707,-3.8707,-3.8707,-3.8707,-3.8707,-3.8707,-3.8269,-3.7416,-3.5895,-3.4547,-3.3322,-3.2256,-3.1599,-3.119,-3.119,-3.119,-3.119,-3.119,-3.119,-3.119,-3.119,-3.1004,-3.0615,-2.9871,-2.9414,-2.8906,-2.7705,-2.7334,-2.7249,-2.6826,-2.6691,-2.6691,-2.6691,-2.6691,-2.6539,-2.5982,-2.5479,-2.5178,-2.533,-2.4689,-2.4236,-2.465,-2.3847,-2.3011,-2.275,-2.2128,-2.15,-2.0946,-2.0528,-2.0288,-2.0288,-1.9929,-1.9708,-1.9708,-1.9708,-1.9708,-1.9708,-1.9708,-1.9708,-1.9708,-1.9708,-1.9708,-1.9708,-1.9708,-1.9708,-1.9708,-1.9708,-1.9902,-2.0288,-2.0554,-2.0754,-2.0882,-2.1449,-2.151,-2.5676,0.0,0.0,-2.7382,-2.821,-2.9396,-3.05,-3.075,-3.1346,-3.341,-3.384,-3.4103,-3.4988,-3.5135,0.0,-3.6231,-3.6558,-3.6615,-3.6404,-3.6558,-3.6404,-3.5596,-3.6212,-3.7038,-3.7911,-3.8003,-3.8442,-3.952,-3.9377,-3.9082,-3.8719,-3.8707,-3.8707,-3.8707,-3.8707,-3.8707,-3.8707,-3.8707,-3.8707,-3.8707,-3.8707,-3.8707,-3.8692,-3.8546,-3.8016,-3.7156,-3.6211,-3.4883,-3.3339,-3.2615,-3.187,-3.119,-3.119,-3.119,-3.119,-3.119,-3.119,-3.119,-3.119,-3.119,-3.1072,-3.0345,-2.9973,-2.955,-2.8213,-2.7655,-2.7384,-2.6843,-2.6691,-2.6691,-2.6691,-2.6691,-2.659,-2.6104,-2.5549,-2.5126,-2.5185,-2.4649,-2.4228,-2.4378,-2.3901,-2.3356,-2.3005,-2.2553,-2.2218,-2.2218,-2.1665,-2.1126,-2.0748,-2.0109,-1.9708,-1.9708,-1.9708,-1.9708,-1.9708,-1.9708,-1.9708,-1.9708,-1.9708,-1.9708,-1.9708,-1.9708,-1.9708,-1.9708,-1.9708,-1.9945,-2.0429,-2.0606,-2.0954,-2.1473,-2.163,-2.1463,0.0,0.0,-2.7209,-2.8741,-2.911,-2.955,-3.1275,-3.166,-3.191,-3.2756,-3.2949,-3.3218,-3.409,-3.4244,-3.4526,-3.5404,-3.6192,-3.6423,-3.5654,-3.6212,-3.6404,-3.5596,-3.6212,-3.7038,0.0,-3.8757,-3.934,-3.9588,-3.9599,-3.9327,-3.8719,-3.8707,-3.8707,-3.8707,-3.8707,-3.8707,-3.8707,-3.8707,-3.8707,-3.8707,-3.8707,-3.8707,-3.8692,-3.8167,-3.7667,-3.7118,-3.5863,-3.4596,-3.3339,-3.2615,-3.187,-3.119,-3.119,-3.119,-3.119,-3.119,-3.119,-3.119,-3.119,-3.119,-3.1072,-3.0345,-2.9617,-2.8891,-2.8043,-2.73,-2.6725,-2.6725,-2.6691,-2.6691,-2.6691,-2.6691,-2.659,-2.6104,-2.598,-2.5819,-2.5316,-2.476,-2.4379,-2.441,-2.3954,-2.3586,-2.3565,-2.355,-2.3535,-2.3535,-2.3032,-2.2179,-2.0872,-2.0109,-1.9708,-1.9708,-1.9708,-1.9708,-1.9708,-1.9708,-1.9708,-1.9708,-1.9708,-1.9708,-1.9708,-1.9708,-1.9708,-1.9708,-1.9708,-1.9697,-1.9729,-2.0372,-2.0741,-2.0845,-2.142,-2.1683,0.0,0.0,-2.9498,-2.9947,-3.0481,-3.1163,-3.2242,-3.2083,-3.1929,-3.2737,-3.2487,-3.2352,-3.3179,-3.3333,-3.3814,-3.525,-3.6654,-3.7469,-3.7199,-3.7892,-3.8104,-3.7257,-3.7911,0.0,0.0,0.0,0.0,-3.9896,-3.9731,-3.942,-3.8985,-3.8803,-3.8707,-3.8707,-3.9221,-3.9496,-3.9496,-4.0029,-4.0029,-3.9478,-3.8964,-3.8707,-3.8692,-3.8132,-3.7649,-3.7173,-3.6382,-3.5311,-3.4066,-3.3322,-3.2594,-3.1887,-3.1396,-3.119,-3.119,-3.119,-3.119,-3.119,-3.119,-3.119,-3.1157,-3.0903,-3.0328,-2.9583,-2.8822,-2.8044,-2.7317,-2.6843,-2.6691,-2.6691,-2.6691,-2.6691,-2.659,-2.6104,-2.6013,-2.576,-2.4855,-2.4532,-2.4287,-2.3927,-2.3709,-2.3595,-2.3595,-2.3595,-2.3595,-2.3595,-2.3092,-2.2224,-2.0868,-2.0513,-2.0183,-1.9753,-1.9708,-1.9708,-1.9708,-1.9708,-1.9708,-1.9708,-2.0124,-2.0363,-2.0363,-2.0782,-2.1021,-2.1021,-2.1021,-2.1257,-2.168,-2.1937,-2.2032,-2.2062,-2.226,-2.1903,-2.7709,-2.9241,-3.0741,-3.0972,-3.1655,-3.2319,-3.2469,-3.2093,-3.1679,-3.1564,-3.1121,-3.0929,-3.1448,-3.1545,-3.2218,-3.4231,-3.6007,-3.7219,-3.7507,-3.8546,-3.8977,-3.8104,-3.9008,-3.9631,0.0,0.0,0.0,-4.0101,-3.9786,-3.957,-3.9522,-3.9268,-3.9258,-3.9536,-4.0065,-4.0322,-4.0322,-4.0838,-4.0708,-3.9882,-3.9074,-3.8707,-3.8692,-3.7964,-3.7488,-3.7154,-3.6437,-3.5514,-3.4438,-3.3711,-3.2966,-3.2226,-3.1478,-3.119,-3.119,-3.119,-3.119,-3.119,-3.119,-3.119,-3.119,-3.119,-3.07,-2.9973,-2.923,-2.8433,-2.7655,-2.6911,-2.6691,-2.6691,-2.6691,-2.6691,-2.659,-2.6104,-2.6013,-2.5744,-2.4891,-2.4552,-2.4287,-2.3948,-2.373,-2.3595,-2.3595,-2.3595,-2.3595,-2.3595,-2.3266,-2.2622,-2.156,-2.1006,-2.0524,-2.0094,-1.9824,-1.9708,-1.9708,-1.9914,-2.0049,-2.0049,-2.0692,-2.1066,-2.1066,-2.147,-2.1695,-2.1695,-2.1695,-2.1908,-2.2338,-2.2338,-2.2331,-2.2346,-2.2346,-2.1785,-2.9219,-3.0268,-3.1107,-3.1927,-3.2622,-3.2897,-3.2055,-3.1713,-3.1095,-2.9434,-2.903,-2.8992,0.0,0.0,-2.9915,-3.2429,-3.4365,-3.5846,-3.6654,-3.8296,-3.9104,0.0,0.0,0.0,0.0,0.0,0.0,-4.033,0.0,-3.9895,-4.0374,-4.0129,-4.0336,-4.1077,-4.1132,-4.115,-4.115,-4.115,-4.0763,-3.9937,-3.9148,-3.8744,-3.8676,-3.7649,-3.7209,-3.7135,-3.6075,-3.5194,-3.4489,-3.3728,-3.2983,-3.2276,-3.1495,-3.119,-3.119,-3.119,-3.119,-3.119,-3.119,-3.119,-3.119,-3.119,-3.0734,-3.0023,-2.9281,-2.8501,-2.7705,-2.6962,-2.6725,-2.6691,-2.6691,-2.6691,-2.659,-2.6104,-2.6013,-2.5852,-2.5278,-2.4772,-2.4389,-2.4369,-2.3948,-2.3595,-2.3595,-2.3595,-2.3595,-2.3595,-2.3595,-2.337,-2.2778,-2.159,-2.0778,-2.0748,-2.0183,-1.9813,-1.9813,-2.0393,-2.0748,-2.0748,-2.138,-2.1739,-2.1739,-2.1784,-2.1799,-2.1799,-2.1799,-2.1783,-2.1736,-2.1736,-2.1719,-2.1697,-2.1734,-2.1414,-3.0449,-3.2089,-3.3726,-3.388,-3.3585,-3.3153,-3.2846,-3.124,-2.9695,-2.9206,-2.8102,-2.7448,-2.8088,0.0,0.0,-3.1698,-3.4462,0.0,-3.7546,-3.97,0.0,-3.9977,0.0,-4.2104,-4.1258,-4.2143,0.0,0.0,-4.1418,-4.1089,-4.1619,-4.1344,-4.1163,-4.1111,-4.168,-4.1992,-4.1992,-4.1992,-4.1589,-4.0765,-3.9974,-3.9276,-3.8676,-3.7649,-3.7209,-3.7135,-3.6075,-3.5481,-3.5211,-3.3931,-3.3288,-3.2983,-3.1698,-3.119,-3.119,-3.119,-3.119,-3.119,-3.119,-3.119,-3.119,-3.119,-3.1072,-3.0784,-3.004,-2.9296,-2.8518,-2.7739,-2.7131,-2.6691,-2.6691,-2.6691,-2.659,-2.6104,-2.6013,-2.5744,-2.4812,-2.4491,-2.4287,-2.3879,-2.3702,-2.3595,-2.3595,-2.3595,-2.3595,-2.3595,-2.3595,-2.337,-2.2778,-2.2403,-2.1994,-2.15,-2.1291,-2.1186,-2.1186,-2.135,-2.1455,-2.1455,-2.2054,-2.2448,-2.2448,-2.2877,-2.3116,-2.3116,-2.3116,-2.2876,-2.2441,-2.2441,-2.2204,-2.1697,-2.2193,-2.1856,-3.1367,-3.3047,-3.4687,-3.464,-3.4258,-3.3649,-3.2819,-3.1142,-2.9436,-2.828,-2.7277,0.0,-2.6736,0.0,0.0,0.0,0.0,0.0,-3.7777,-4.02,-4.1623,0.0,-4.2585,0.0,-4.245,-4.3124,-4.3624,0.0,-4.2537,-4.2083,-4.2599,-4.2309,-4.2121,-4.2156,-4.2598,-4.2818,-4.2818,-4.2139,-4.1535,-4.1077,-3.9937,-3.9148,-3.8658,-3.7878,-3.7396,-3.7135,0.0,-3.581,-3.5481,-3.4015,-3.3406,-3.3254,-3.1782,-3.119,-3.119,-3.119,-3.119,-3.119,-3.119,-3.119,-3.119,-3.119,-3.119,-3.1055,-3.0328,-2.9583,-2.884,-2.8027,-2.7283,-2.6691,-2.6691,-2.6691,-2.659,-2.6104,-2.6013,-2.5779,-2.4914,-2.4572,-2.4225,-2.3702,-2.3595,-2.3595,-2.3595,-2.3595,-2.3595,-2.3595,-2.3595,-2.3475,-2.3152,-2.2868,-2.2553,-2.2179,-2.1874,-2.1695,-2.1695,-2.1964,-2.2149,-2.2149,-2.2748,-2.3092,-2.3092,-2.3415,-2.3595,-2.3595,-2.3595,-2.3421,-2.3098,-2.3098,-2.277,-2.2146,-2.2521,-2.2161,-3.2129,-3.3496,-3.4707,-3.4707,-3.4563,-3.3976,-3.2239,-3.0973,-2.9528,-2.7179,0.0,-2.6198,-2.5447,-2.6015,-2.7423,-2.9981,0.0,-3.4956,-3.7623,-4.0085,-4.1681,-4.1788,-4.3278,-4.4028,-4.3335,-4.3989,-4.447,-4.447,-4.357,-4.3134,-4.3448,-4.3207,-4.3184,-4.3495,-4.3515,-4.346,-4.3332,-4.1974,-4.115,-4.0912,-3.9533,-3.8799,-3.8692,-3.8132,-3.7685,-3.7267,0.0,0.0,-3.5462,-3.4071,-3.3401,-3.3119,-3.1732,-3.119,-3.119,-3.119,-3.119,-3.119,-3.119,-3.119,-3.119,-3.119,-3.119,-3.1072,-3.0446,-2.9736,-2.8993,-2.8179,-2.7435,-2.6826,-2.6725,-2.6691,-2.659,-2.6104,-2.6013,-2.5834,-2.5221,-2.4672,-2.4158,-2.3702,-2.3595,-2.3595,-2.3595,-2.3595,-2.3595,-2.3595,-2.3595,-2.3595,-2.3595,-2.3152,-2.2823,-2.2823,-2.2313,-2.1949,-2.1949,-2.2493,-2.2823,-2.2823,-2.3295,-2.3595,-2.3595,-2.3595,-2.3595,-2.3595,-2.3595,-2.3551,-2.3486,-2.3486,-2.3165,-2.2581,-2.2649,-2.2346,-3.2969,-3.3926,-3.4707,-3.4707,-3.414,-3.3141,-3.1347,-2.971,0.0,0.0,0.0,-2.5569,-2.5403,-2.6057,0.0,-2.9981,0.0,0.0,0.0,0.0,-4.0989,0.0,0.0,0.0,0.0,0.0,0.0,0.0,0.0,0.0,-4.4392,-4.4333,-4.4063,-4.3513,-4.3515,-4.3167,-4.2506,-4.2231,-4.1423,-4.0102,-3.9827,-3.9331,-3.8692,-3.8132,-3.7859,-3.7755,0.0,0.0,-3.5272,-3.4429,-3.3448,-3.2412,-3.1529,-3.119,-3.119,-3.119,-3.119,-3.119,-3.119,-3.119,-3.119,-3.119,-3.119,-3.1173,-3.1055,-3.0497,-2.9753,-2.901,-2.823,-2.7469,-2.686,-2.6691,-2.659,-2.6104,-2.6013,-2.5726,-2.4752,-2.4116,-2.3724,-2.3616,-2.3595,-2.3595,-2.3595,-2.3595,-2.3595,-2.3595,-2.3595,-2.3595,-2.3595,-2.3505,-2.343,-2.343,-2.334,-2.3266,-2.3266,-2.337,-2.343,-2.343,-2.3535,-2.3595,-2.3595,-2.3595,-2.3595,-2.3595,-2.3595,-2.3341,-2.2867,-2.2867,-2.2506,-2.1899,-2.2452,-2.2346,-3.2676,-3.3711,-3.459,-3.4141,-3.3398,-3.2304,-3.0523,0.0,0.0,0.0,0.0,-2.5444,-2.5401,0.0,0.0,0.0,0.0,0.0,0.0,0.0,0.0,0.0,0.0,0.0,0.0,0.0,0.0,0.0,0.0,0.0,0.0,-4.3847,-4.3234,-4.2284,-4.2653,-4.2488,-4.168,-4.1258,-4.0653,-3.9882,-3.9478,-3.9074,-3.8692,-3.843,-3.8167,-3.7859,0.0,0.0,0.0,-3.4369,-3.3417,-3.2747,-3.163,-3.119,-3.119,-3.119,-3.119,-3.119,-3.119,-3.119,-3.119,-3.119,-3.119,-3.119,-3.119,-3.0683,-2.9956,-2.9213,-2.8416,-2.7621,-2.6894,-2.6691,-2.659,-2.6104,-2.5577,-2.5028,-2.4511,-2.397,-2.3595,-2.3595,-2.3595,-2.3595,-2.3595,-2.3595,-2.3595,-2.3595,-2.3595,-2.3595,-2.3595,-2.3595,-2.3595,-2.3595,-2.3595,-2.3595,-2.3595,-2.3295,-2.3272,-2.358,-2.3295,-2.3266,-2.3595,-2.3595,-2.3595,-2.3595,-2.3595,-2.3465,-2.3179,-2.3179,-2.2995,-2.2696,-2.3017,-2.2995,-3.2109,-3.3164,-3.4004,-3.3301,-3.2539,-3.1465,-2.9726,-2.8082,0.0,0.0,-2.5564,-2.5515,-2.544,0.0,0.0,0.0,0.0,0.0,0.0,0.0,0.0,0.0,0.0,0.0,0.0,0.0,0.0,0.0,0.0,0.0,0.0,-4.3002,-4.2143,-4.124,-4.175,-4.1662,-4.0838,-4.0212,-3.9808,-3.9643,-3.9001,-3.8707,-3.8707,-3.8707,-3.8465,-3.8048,0.0,0.0,0.0,-3.4333,-3.3409,-3.3034,-3.1715,-3.119,-3.119,-3.119,-3.119,-3.119,-3.119,-3.119,-3.119,-3.119,-3.119,-3.119,-3.119,-3.0801,-3.0159,-2.9264,-2.8535,-2.7841,-2.6928,-2.6691,-2.659,-2.6104,-2.5278,-2.4552,-2.443,-2.397,-2.3595,-2.3595,-2.3595,-2.3595,-2.3595,-2.3595,-2.3595,-2.3595,-2.3595,-2.3595,-2.3595,-2.349,-2.34,-2.34,-2.352,-2.3595,-2.3595,-2.3062,-2.2957,-2.3565,-2.3032,-2.2972,-2.358,-2.3595,-2.3595,-2.3595,-2.3595,-2.3595,-2.3595,-2.3595,-2.3595,-2.3595,-2.3595,-2.3595,-3.1777,-3.2305,-3.2402,-3.2324,-3.166,-3.0566,-2.8828,0.0,0.0,-2.5879,-2.5635,-2.5595,-2.5573,-2.5546,0.0,0.0,0.0,0.0,0.0,0.0,0.0,0.0,0.0,0.0,0.0,0.0,0.0,0.0,0.0,0.0,0.0,-4.2464,-4.1663,-4.156,-4.1341,-4.0836,-4.001,-3.9937,-3.9533,-3.8817,-3.8744,-3.8707,-3.8707,-3.8707,-3.8658,-3.8611,0.0,0.0,0.0,-3.465,-3.3453,-3.2327,-3.1495,-3.119,-3.119,-3.119,-3.119,-3.119,-3.119,-3.119,-3.119,-3.119,-3.119,-3.119,-3.119,-3.114,-3.0801,-2.9399,-2.8942,-2.8553,-2.708,-2.6691,-2.659,-2.6104,-2.5559,-2.4992,-2.4511,-2.397,-2.3595,-2.3595,-2.3595,-2.3595,-2.3595,-2.3595,-2.3595,-2.3595,-2.3595,-2.3595,-2.3595,-2.3122,-2.2778,-2.2778,-2.3266,-2.3595,-2.3595,-2.3062,-2.2957,-2.3565,-2.3032,-2.2972,-2.358,-2.3595,-2.3595,-2.3595,-2.3595,-2.3595,-2.3595,-2.3595,-2.3595,-2.3595,-2.3595,-2.3595,-3.0449,-3.1406,-3.207,-3.1543,-3.0762,-2.9805,-2.8574,0.0,-2.6113,-2.5762,-2.5683,-2.5658,-2.5605,-2.5511,-2.5661,0.0,-2.666,-2.7813,-3.0723,0.0,0.0,0.0,0.0,0.0,0.0,0.0,0.0,0.0,0.0,0.0,0.0,0.0,-4.1349,-4.0123,-4.0283,-3.9992,-3.9184,-3.9184,-3.9019,-3.8707,-3.8707,-3.8707,-3.8707,-3.8707,-3.8707,0.0,0.0,0.0,0.0,-3.4805,-3.3617,-3.2627,-3.1599,-3.119,-3.119,-3.119,-3.119,-3.119,-3.119,-3.119,-3.1123,-3.0683,-3.0835,-3.119,-3.119,-3.119,-3.0987,-2.9956,-2.933,-2.8756,-2.7655,-2.6806,-2.6227,-2.6033,-2.5335,-2.4657,-2.445,-2.397,-2.3595,-2.3595,-2.3595,-2.3595,-2.3595,-2.3595,-2.3595,-2.3595,-2.3595,-2.3595,-2.3595,-2.3077,-2.2703,-2.2703,-2.2553,-2.2622,-2.3032,-2.2099,-2.2099,-2.3505,-2.2673,-2.2553,-2.355,-2.3595,-2.3595,-2.3595,-2.3595,-2.3595,-2.3595,-2.3595,-2.3595,-2.3595,-2.3595,-2.3595,-2.9453,-3.0508,-3.1348,-3.0996,-3.0059,-2.9043,0.0,0.0,-2.5703,-2.5703,-2.5703,-2.5683,-2.5636,-2.5569,-2.5503,0.0,-2.5592,-2.6598,-2.9161,0.0,0.0,0.0,0.0,0.0,0.0,0.0,0.0,0.0,0.0,0.0,0.0,0.0,-4.0973,-3.9307,-3.9517,-3.9344,-3.8707,-3.8707,-3.8707,-3.8707,-3.8707,-3.8707,-3.8707,-3.8707,-3.8707,0.0,0.0,0.0,0.0,-3.4898,-3.3732,-3.2877,-3.1677,-3.119,-3.119,-3.119,-3.119,-3.119,-3.119,-3.119,-3.1106,-3.0598,-3.0784,-3.119,-3.119,-3.119,-3.1004,-3.004,-2.9059,-2.8197,-2.7621,-2.6838,-2.6174,-2.6031,-2.5411,-2.4831,-2.4672,-2.4348,-2.4032,-2.3879,-2.3837,-2.3794,-2.3638,-2.3595,-2.3595,-2.3595,-2.3595,-2.3535,-2.3355,-2.2793,-2.2328,-2.2134,-2.15,-2.1455,-2.2328,-2.1545,-2.1665,-2.3221,-2.2493,-2.2473,-2.355,-2.3595,-2.3595,-2.3595,-2.3595,-2.3595,-2.3595,-2.3595,-2.3595,-2.3595,-2.3595,-2.3595,-2.9121,-2.9609,-2.9824,-3.0684,-2.9609,-2.8301,0.0,-2.6953,-2.5703,-2.5703,-2.5703,-2.5703,-2.5703,-2.5637,-2.5601,-2.5601,-2.6207,-2.7578,-3.0123,0.0,0.0,0.0,0.0,0.0,0.0,0.0,0.0,0.0,0.0,0.0,0.0,0.0,-4.0509,-3.9618,-3.9282,-3.8975,-3.8707,-3.8707,-3.8707,-3.8707,-3.8707,-3.8707,-3.8707,-3.8707,0.0,0.0,0.0,0.0,0.0,-3.4898,-3.3732,-3.2877,-3.1677,-3.119,-3.119,-3.119,-3.119,-3.119,-3.119,-3.119,-3.119,-3.119,-3.119,-3.119,-3.119,-3.119,-3.0886,-2.9416,-2.791,-2.6708,-2.6708,-2.6691,-2.6573,-2.612,-2.5979,-2.5852,-2.5316,-2.5182,-2.5028,-2.4491,-2.4389,-2.4225,-2.3702,-2.3595,-2.3595,-2.3595,-2.3595,-2.337,-2.2793,-2.2134,-2.1455,-2.0778,-2.0124,-2.0262,-2.159,-2.1695,-2.1979,-2.2658,-2.2703,-2.2957,-2.3565,-2.3595,-2.3595,-2.3595,-2.3595,-2.3595,-2.3595,-2.3595,-2.3595,-2.3595,-2.3595,-2.3595,-2.7583,-2.8193,-2.8724,-2.9043,-2.8262,-2.7402,-2.7402,-2.6523,-2.5703,-2.5703,-2.5703,-2.5703,-2.5703,-2.5657,-2.5992,-2.7185,-2.7528,0.0,0.0,0.0,0.0,0.0,0.0,0.0,0.0,0.0,0.0,0.0,0.0,0.0,0.0,0.0,0.0,-3.963,-3.91,-3.8788,-3.8707,-3.8707,-3.8707,-3.8707,-3.8707,-3.8707,-3.8707,0.0,0.0,0.0,0.0,0.0,0.0,-3.4446,-3.3211,-3.2116,-3.1472,-3.119,-3.119,-3.119,-3.119,-3.119,-3.119,-3.119,-3.1021,-3.0025,-3.004,-3.026,-2.9193,-2.9599,-3.0142,-2.8601,-2.7824,-2.7351,-2.6826,-2.6453,-2.6191,-2.6049,-2.5707,-2.5411,-2.524,-2.491,-2.4597,-2.443,-2.4095,-2.3794,-2.3638,-2.3595,-2.3595,-2.3595,-2.3595,-2.337,-2.2778,-2.2119,-2.144,-2.0763,-2.0094,-2.0067,-2.0946,-2.0602,-2.1011,-2.2598,-2.2283,-2.2488,-2.355,-2.3595,-2.3595,-2.3595,-2.3595,-2.3595,-2.3595,-2.3595,-2.3595,-2.3595,-2.3595,-2.3595,0.0,-2.7302,-2.7798,-2.8202,-2.7637,-2.6992,-2.6992,-2.6328,-2.5703,-2.5703,-2.5703,-2.5703,-2.5703,-2.5661,-2.5987,-2.7081,-2.7489,0.0,0.0,0.0,0.0,0.0,0.0,0.0,0.0,0.0,0.0,0.0,0.0,0.0,0.0,0.0,0.0,-3.9641,-3.9242,-3.8931,-3.8707,-3.8707,-3.8707,-3.8707,-3.8707,-3.8707,-3.8689,0.0,0.0,0.0,0.0,0.0,0.0,-3.4347,-3.3208,-3.2021,-3.1584,-3.1332,-3.119,-3.119,-3.119,-3.119,-3.119,-3.119,-3.1038,-3.0144,-2.9956,-2.9802,-2.8263,-2.8466,-2.9024,-2.8077,-2.7604,-2.7266,-2.6826,-2.647,-2.6262,-2.6262,-2.5998,-2.5764,-2.5764,-2.5357,-2.4934,-2.4736,-2.4266,-2.3837,-2.3638,-2.3595,-2.3595,-2.3595,-2.34,-2.3032,-2.2403,-2.1739,-2.1066,-2.0393,-1.9962,-1.9872,-2.0288,-2.0393,-2.0891,-2.1874,-2.2233,-2.2667,-2.3236,-2.3475,-2.3595,-2.3595,-2.3595,-2.3595,-2.3595,-2.3595,-2.3595,-2.3595,-2.3595,-2.3595,0.0,-2.6751,-2.7013,-2.7889,-2.75,-2.6914,-2.6914,-2.6289,0.0,-2.5703,-2.5703,-2.5723,-2.5781,-2.5742,-2.5762,-2.5957,0.0,0.0,0.0,0.0,0.0,0.0,0.0,0.0,0.0,0.0,0.0,0.0,0.0,0.0,0.0,0.0,0.0,0.0,-3.9497,-3.9245,-3.8707,-3.8707,-3.8707,-3.8707,-3.8707,-3.867,-3.8597,0.0,0.0,0.0,0.0,0.0,0.0,-3.4489,-3.36,-3.2451,-3.1969,-3.1565,-3.1249,-3.121,-3.119,-3.119,-3.119,-3.119,-3.1173,-3.1072,-3.0548,-2.9649,-2.8179,-2.7756,-2.779,-2.7739,-2.7232,-2.6691,-2.6691,-2.6691,-2.6691,-2.6691,-2.6691,-2.6691,-2.6691,-2.6332,-2.5852,-2.5354,-2.4776,-2.4225,-2.373,-2.3616,-2.3595,-2.3595,-2.3092,-2.2463,-2.1784,-2.1111,-2.0453,-1.9768,-1.9708,-1.9723,-1.9768,-2.0902,-2.138,-2.0808,-2.2517,-2.3295,-2.2793,-2.3295,-2.3595,-2.3595,-2.3595,-2.3595,-2.3595,-2.3595,-2.3595,-2.3595,-2.3595,-2.3595,-2.4749,0.0,-2.5898,-2.6171,-2.6129,-2.6016,0.0,-2.5859,-2.5703,-2.5703,-2.5703,-2.5898,-2.6562,-2.6152,-2.6348,0.0,0.0,0.0,0.0,0.0,0.0,0.0,0.0,0.0,0.0,0.0,0.0,0.0,0.0,0.0,0.0,0.0,0.0,0.0,-3.8385,-3.8639,-3.8707,-3.8707,-3.8707,-3.8707,-3.8707,-3.8377,0.0,0.0,0.0,0.0,0.0,0.0,0.0,-3.3768,-3.3098,-3.2451,-3.1969,-3.1734,-3.1621,-3.131,-3.119,-3.119,-3.119,-3.119,-3.1004,-2.989,-2.8975,-2.8162,-2.7249,-2.735,-2.7689,-2.7131,-2.6826,-2.6691,-2.6691,-2.6691,-2.6691,-2.6691,-2.6691,-2.6691,-2.6691,-2.6332,-2.5961,-2.5852,-2.5047,-2.4348,-2.4225,-2.3879,-2.3595,-2.3595,-2.3092,-2.2463,-2.1784,-2.1111,-2.0453,-1.9768,-1.9708,-1.9899,-2.0423,-2.0752,-2.1096,-2.144,-2.2388,-2.3041,-2.337,-2.352,-2.3595,-2.3595,-2.3595,-2.3595,-2.3595,-2.3595,-2.3595,-2.3595,-2.3595,-2.3595,-2.3551,-2.449,-2.5488,-2.5588,-2.5632,-2.5661,-2.5683,-2.5703,-2.5703,0.0,0.0,-2.584,-2.6328,-2.6348,0.0,0.0,0.0,0.0,0.0,0.0,0.0,0.0,0.0,0.0,0.0,0.0,0.0,0.0,0.0,0.0,0.0,0.0,0.0,0.0,0.0,-3.7882,-3.7779,-3.8379,-3.834,-3.7606,-3.7973,-3.7716,0.0,0.0,0.0,0.0,0.0,0.0,-3.4098,-3.3643,-3.3211,-3.2793,-3.2533,-3.2179,-3.1771,-3.1564,-3.1351,-3.119,-3.119,-3.119,-3.0954,-2.9484,-2.8722,-2.8146,-2.7029,-2.6979,-2.7198,-2.681,-2.6691,-2.6691,-2.6691,-2.6691,-2.6691,-2.6691,-2.6691,-2.6691,-2.6691,-2.6332,-2.6013,-2.6013,-2.5128,-2.441,-2.441,-2.3964,-2.3595,-2.3595,-2.2817,-2.2224,-2.2179,-2.1306,-2.0572,-2.0198,-2.0423,-2.0632,-2.0688,-2.1261,-2.1635,-2.1695,-2.2598,-2.3152,-2.3197,-2.3445,-2.3595,-2.3595,-2.3595,-2.3595,-2.3595,-2.3595,-2.3595,-2.3595,-2.3595,-2.3595,-2.2759,-2.4064,-2.5411,-2.5543,-2.5575,-2.5607,-2.5662,0.0,0.0,0.0,0.0,0.0,0.0,-2.6504,0.0,0.0,0.0,0.0,0.0,0.0,0.0,0.0,0.0,0.0,0.0,0.0,0.0,0.0,0.0,0.0,0.0,0.0,0.0,0.0,0.0,0.0,-3.6452,-3.7752,-3.7698,-3.637,-3.7011,-3.6905,-3.6083,0.0,0.0,0.0,0.0,0.0,-3.3807,-3.3807,-3.3592,-3.3288,-3.3229,-3.2663,-3.188,-3.1704,-3.1375,-3.1021,-3.1021,-3.1021,-3.0801,-2.945,-2.8925,-2.8553,-2.7131,-2.6691,-2.6691,-2.6691,-2.6691,-2.6691,-2.6691,-2.6691,-2.6691,-2.6691,-2.6691,-2.6691,-2.6691,-2.6332,-2.6013,-2.6013,-2.5128,-2.441,-2.441,-2.3964,-2.3595,-2.3595,-2.2592,-2.2074,-2.2628,-2.162,-2.0838,-2.0838,-2.1365,-2.1515,-2.1032,-2.2059,-2.2508,-2.2024,-2.2996,-2.337,-2.2868,-2.3325,-2.3595,-2.3595,-2.3595,-2.3595,-2.3595,-2.3595,-2.3595,-2.3595,-2.3595,-2.3595,-2.2605,-2.4038,-2.5335,-2.5408,-2.5524,-2.5603,-2.5607,0.0,0.0,0.0,0.0,0.0,0.0,0.0,0.0,0.0,0.0,0.0,0.0,0.0,0.0,0.0,0.0,0.0,0.0,0.0,0.0,0.0,0.0,0.0,0.0,0.0,0.0,0.0,0.0,0.0,0.0,-3.6449,-3.6877,-3.6636,-3.6519,-3.6028,-3.5206,-3.5059,0.0,0.0,0.0,0.0,-3.3807,-3.3807,-3.3762,-3.3662,-3.3332,-3.2856,-3.2262,-3.1237,-3.0621,-3.0277,-3.0277,-3.0277,-3.0125,-2.9281,-2.8535,-2.7807,-2.6962,-2.6691,-2.6691,-2.6691,-2.6691,-2.6691,-2.6691,-2.6691,-2.6691,-2.6691,-2.6691,-2.6691,-2.6691,-2.6332,-2.6013,-2.6013,-2.5128,-2.441,-2.441,-2.3964,-2.3595,-2.3595,-2.3002,-2.2583,-2.2688,-2.2009,-2.1545,-2.1545,-2.1635,-2.1874,-2.2358,-2.2583,-2.2882,-2.3281,-2.349,-2.355,-2.346,-2.355,-2.3595,-2.3595,-2.3595,-2.3595,-2.3595,-2.3595,-2.3595,-2.3595,-2.3595,-2.3595,-2.187,-2.3004,-2.4076,-2.4561,-2.5802,-2.6795,-2.6392,-2.6684,0.0,0.0,0.0,0.0,0.0,0.0,0.0,0.0,0.0,0.0,0.0,0.0,0.0,0.0,0.0,0.0,0.0,0.0,0.0,0.0,0.0,0.0,0.0,0.0,0.0,0.0,0.0,0.0,0.0,-3.551,-3.5535,-3.5349,-3.5712,-3.5338,-3.4344,-3.4344,-3.4156,0.0,0.0,-3.3807,-3.3807,-3.3807,-3.3532,-3.3175,-3.3428,-3.2598,-3.1182,-3.0594,-3.0263,-3.0108,-3.0108,-2.9837,-2.9381,-2.8602,-2.8094,-2.7655,-2.6911,-2.6691,-2.6691,-2.6691,-2.6691,-2.6691,-2.6691,-2.6691,-2.6691,-2.6691,-2.6691,-2.6691,-2.6691,-2.6539,-2.6367,-2.6367,-2.5781,-2.5182,-2.4875,-2.4095,-2.3517,-2.3593,-2.2772,-2.2418,-2.3107,-2.2643,-2.2239,-2.2239,-2.2517,-2.2712,-2.2703,-2.3002,-2.3295,-2.358,-2.3595,-2.3595,-2.3595,-2.3595,-2.3595,-2.3595,-2.3595,-2.3595,-2.3595,-2.3595,-2.3595,-2.3595,-2.3595,-2.3595,-2.1265,-2.2293,-2.3259,-2.3937,0.0,-2.7353,-2.7191,-2.7695,0.0,0.0,0.0,0.0,0.0,0.0,0.0,0.0,0.0,0.0,0.0,0.0,0.0,0.0,0.0,0.0,0.0,0.0,0.0,0.0,0.0,0.0,0.0,0.0,0.0,0.0,0.0,0.0,0.0,-3.5096,-3.4695,-3.4323,-3.4853,-3.4641,-3.3807,-3.3807,-3.3807,-3.3788,-3.3605,-3.3532,-3.3495,-3.3311,-3.2871,-3.2394,-3.2999,-3.1928,-3.0049,-2.9886,-2.9789,-2.9697,-2.9697,-2.9269,-2.8619,-2.7993,-2.7689,-2.7435,-2.686,-2.6691,-2.6691,-2.6691,-2.6691,-2.6691,-2.6691,-2.6691,-2.6691,-2.6691,-2.6691,-2.6691,-2.6691,-2.6607,-2.6539,-2.6539,-2.6139,-2.567,-2.5278,-2.4428,-2.3864,-2.3956,-2.3153,-2.2838,-2.3695,-2.3371,-2.3043,-2.2912,-2.331,-2.34,-2.2957,-2.3325,-2.3595,-2.3595,-2.3595,-2.3595,-2.3595,-2.3595,-2.3595,-2.3595,-2.3595,-2.3595,-2.3595,-2.3595,-2.3595,-2.3595,-2.3595,-2.3595,-2.1225,-2.274,-2.4014,-2.4072,-2.4844,0.0,-2.7563,-2.807,0.0,-2.9086,0.0,0.0,0.0,0.0,0.0,0.0,0.0,0.0,0.0,0.0,0.0,0.0,0.0,0.0,0.0,0.0,0.0,0.0,0.0,0.0,0.0,0.0,0.0,0.0,0.0,0.0,0.0,0.0,-3.519,-3.4653,-3.4173,-3.3889,-3.3807,-3.3807,-3.3807,-3.3752,-3.3005,-3.2693,-3.2619,-3.188,-3.1544,-3.1488,-3.1562,-3.0779,-2.9598,-2.9216,-2.8841,-2.8522,-2.8522,-2.8254,-2.7874,-2.7824,-2.7334,-2.6759,-2.6708,-2.6691,-2.6691,-2.6691,-2.6691,-2.6691,-2.6691,-2.6691,-2.6691,-2.6691,-2.6691,-2.6691,-2.6691,-2.6349,-2.6049,-2.6049,-2.5615,-2.524,-2.5221,-2.5134,-2.508,-2.5089,-2.501,-2.4799,-2.4394,-2.4302,-2.4081,-2.3599,-2.3565,-2.358,-2.3535,-2.358,-2.3595,-2.3595,-2.3595,-2.3595,-2.3595,-2.3595,-2.3595,-2.3595,-2.3595,-2.3595,-2.3595,-2.3595,-2.3595,-2.3595,-2.3595,-2.3595,-2.047,-2.1899,-2.3297,-2.3297,-2.433,0.0,0.0,-2.8856,-2.9732,-3.0075,-3.0228,0.0,0.0,0.0,0.0,0.0,0.0,0.0,0.0,0.0,0.0,0.0,0.0,0.0,0.0,0.0,0.0,0.0,0.0,0.0,0.0,0.0,0.0,0.0,0.0,0.0,0.0,0.0,-3.507,-3.4694,-3.4472,-3.416,-3.3807,-3.3807,-3.3532,-3.3041,-3.2729,-3.232,-3.1825,-3.1525,-3.1121,-3.0583,-2.9824,-2.9862,-3.0228,-2.9325,-2.8896,-2.8745,-2.8495,-2.799,-2.7465,-2.7199,-2.6928,-2.6691,-2.6691,-2.6691,-2.6691,-2.6691,-2.6691,-2.6691,-2.6691,-2.6691,-2.6691,-2.6691,-2.6691,-2.6691,-2.6691,-2.6573,-2.6453,-2.6453,-2.6263,-2.6034,-2.5744,-2.4955,-2.4588,-2.5131,-2.4465,-2.402,-2.4362,-2.441,-2.4184,-2.3659,-2.3595,-2.3595,-2.3595,-2.3595,-2.3595,-2.3595,-2.3595,-2.3595,-2.3595,-2.3595,-2.3595,-2.3595,-2.3595,-2.3595,-2.3595,-2.3595,-2.3595,-2.3595,-2.3595,-2.3595,-2.0383,-2.1737,-2.3127,-2.3192,0.0,0.0,-2.7627,-2.9072,-3.0276,-3.087,0.0,0.0,0.0,0.0,0.0,0.0,0.0,0.0,0.0,0.0,0.0,0.0,0.0,0.0,0.0,0.0,0.0,0.0,0.0,0.0,0.0,0.0,0.0,0.0,0.0,0.0,0.0,0.0,-3.4677,-3.4415,-3.4073,-3.3739,-3.3421,-3.3164,-3.2742,-3.221,-3.194,-3.1531,-3.0999,-3.0742,-3.032,-2.9745,-2.8913,-2.9254,-3.0138,-2.9314,-2.8863,-2.8617,-2.8332,-2.7752,-2.7067,-2.6791,-2.6691,-2.6691,-2.6691,-2.6691,-2.6691,-2.6691,-2.6691,-2.6691,-2.6691,-2.6691,-2.6691,-2.6691,-2.6691,-2.6691,-2.6691,-2.6691,-2.6691,-2.6691,-2.6691,-2.6522,-2.5962,-2.5063,-2.463,-2.5236,-2.4301,-2.3732,-2.4265,-2.4304,-2.4116,-2.3651,-2.3595,-2.3595,-2.3595,-2.3595,-2.3595,-2.3595,-2.3595,-2.3595,-2.3595,-2.3595,-2.3595,-2.3595,-2.3595,-2.3595,-2.3595,-2.3595,-2.3595,-2.3595,-2.3595,-2.3595,-2.12,-2.252,-2.3831,0.0,0.0,0.0,-2.7717,-2.8632,-2.9788,-3.1452,0.0,0.0,0.0,0.0,0.0,0.0,0.0,0.0,0.0,0.0,0.0,0.0,0.0,0.0,0.0,0.0,0.0,0.0,0.0,0.0,0.0,0.0,0.0,0.0,0.0,0.0,0.0,0.0,-3.4052,-3.3762,-3.2711,-3.2337,-3.2577,-3.1751,-3.1397,-3.1342,-3.0558,-3.021,-3.0136,-2.9335,-2.9005,-2.9005,-2.9005,-2.9005,-2.9005,-2.9005,-2.8551,-2.7911,-2.7897,-2.738,-2.6708,-2.6691,-2.6691,-2.6691,-2.6691,-2.6691,-2.6691,-2.6691,-2.6691,-2.6691,-2.6691,-2.6691,-2.6691,-2.6691,-2.6691,-2.6691,-2.6691,-2.6691,-2.6691,-2.6691,-2.6691,-2.6471,-2.5744,-2.5592,-2.5592,-2.5592,-2.4966,-2.4427,-2.4229,-2.4143,-2.3959,-2.3649,-2.3595,-2.3595,-2.3595,-2.3595,-2.3595,-2.3595,-2.3595,-2.3595,-2.3595,-2.3595,-2.3595,-2.3595,-2.3595,-2.3595,-2.3595,-2.3595,-2.3595,-2.3595,-2.3595,-2.3595,-2.0913,-2.1927,0.0,-2.4432,0.0,0.0,0.0,-2.9429,0.0,0.0,0.0,0.0,0.0,0.0,0.0,0.0,0.0,0.0,0.0,0.0,0.0,0.0,0.0,0.0,0.0,0.0,0.0,0.0,0.0,0.0,0.0,0.0,0.0,0.0,0.0,0.0,0.0,0.0,0.0,-3.2877,-3.199,-3.1723,-3.2029,-3.1593,-3.1091,-3.054,-3.0301,-2.9879,-2.9335,-2.9097,-2.9005,-2.9005,-2.9005,-2.9005,-2.9005,-2.9005,-2.8688,-2.8224,-2.7978,-2.756,-2.7067,-2.6791,-2.6691,-2.6691,-2.6691,-2.6691,-2.6691,-2.6691,-2.6691,-2.6691,-2.6691,-2.6691,-2.6691,-2.6691,-2.6691,-2.6691,-2.6691,-2.6691,-2.6691,-2.6691,-2.6691,-2.6623,-2.6404,-2.5947,-2.5592,-2.5592,-2.4966,-2.454,-2.462,-2.4325,-2.4112,-2.4164,-2.4158,-2.4012,-2.3638,-2.3595,-2.3415,-2.3002,-2.2972,-2.3167,-2.358,-2.3595,-2.3595,-2.3595,-2.3595,-2.3595,-2.3595,-2.3595,-2.3595,-2.3595,-2.3595,-2.3595,-2.1678,-2.2555,0.0,-2.5145,-2.6266,0.0,0.0,0.0,0.0,0.0,0.0,0.0,0.0,0.0,0.0,0.0,0.0,0.0,0.0,0.0,0.0,0.0,0.0,0.0,0.0,0.0,0.0,0.0,0.0,0.0,0.0,0.0,0.0,0.0,0.0,0.0,0.0,0.0,0.0,0.0,-3.1233,-3.0852,-3.0963,-3.0724,-3.0279,-2.9721,-2.9721,-2.9445,-2.9005,-2.9005,-2.9005,-2.9005,-2.9005,-2.9005,-2.9005,-2.9005,-2.8749,-2.8381,-2.817,-2.7751,-2.7272,-2.702,-2.6824,-2.6691,-2.6691,-2.6691,-2.6691,-2.6691,-2.6691,-2.6691,-2.6691,-2.6691,-2.6691,-2.6691,-2.6691,-2.6691,-2.6691,-2.6691,-2.6691,-2.6691,-2.6691,-2.6607,-2.6302,-2.5896,-2.5507,-2.5203,-2.4461,-2.3901,-2.3808,-2.3651,-2.3681,-2.4039,-2.4074,-2.3948,-2.3638,-2.3595,-2.3325,-2.2733,-2.2703,-2.2748,-2.2832,-2.2847,-2.2847,-2.2847,-2.2847,-2.2966,-2.3236,-2.2966,-2.2966,-2.3236,-2.2966,-2.2847,-2.2922,0.0,0.0,-2.5929,0.0,0.0,0.0,0.0,0.0,0.0,0.0,0.0,0.0,0.0,0.0,0.0,0.0,0.0,0.0,0.0,0.0,0.0,0.0,0.0,0.0,0.0,0.0,0.0,0.0,0.0,0.0,0.0,0.0,0.0,0.0,0.0,0.0,0.0,0.0,0.0,0.0,-2.9916,-2.9696,-2.9484,-2.9246,-2.9005,-2.9005,-2.9005,-2.9005,-2.9005,-2.9005,-2.9005,-2.9005,-2.9005,-2.9005,-2.9005,-2.8749,-2.8407,-2.8407,-2.7946,-2.7348,-2.7348,-2.7099,-2.6791,-2.6775,-2.6758,-2.6741,-2.6708,-2.6691,-2.6691,-2.6691,-2.6691,-2.6691,-2.6691,-2.6691,-2.6691,-2.6691,-2.6691,-2.6691,-2.6691,-2.6691,-2.6488,-2.5828,-2.571,-2.5456,-2.4711,-2.377,-2.3002,-2.2639,-2.2808,-2.3167,-2.3755,-2.3815,-2.3773,-2.3681,-2.3664,-2.3363,-2.2705,-2.2641,-2.233,-2.1667,-2.1694,-2.1695,-2.1695,-2.1734,-2.2039,-2.266,-2.2039,-2.2074,-2.2645,-2.1984,-2.1714,0.0,-2.2836,0.0,0.0,0.0,0.0,0.0,0.0,0.0,0.0,0.0,0.0,0.0,0.0,0.0,0.0,0.0,0.0,0.0,0.0,0.0,0.0,0.0,0.0,0.0,0.0,0.0,0.0,0.0,0.0,0.0,0.0,0.0,0.0,0.0,0.0,0.0,0.0,0.0,0.0,-3.0426,-3.0107,-2.9696,-2.9484,-2.9246,-2.9005,-2.9005,-2.9005,-2.9005,-2.9005,-2.9005,-2.9005,-2.9005,-2.9005,-2.9005,-2.9005,-2.8749,-2.8407,-2.8407,-2.8112,-2.7783,-2.7783,-2.7707,-2.7574,-2.7272,-2.7178,-2.7099,-2.6791,-2.6691,-2.6691,-2.6691,-2.6691,-2.6691,-2.6691,-2.6691,-2.6691,-2.6691,-2.6691,-2.6691,-2.6691,-2.6691,-2.664,-2.6488,-2.6454,-2.6201,-2.5473,-2.4202,-2.371,-2.4747,-2.4945,-2.5118,-2.5459,-2.5468,-2.5144,-2.4287,-2.4088,-2.3533,-2.2444,-2.2225,-2.1846,-2.1187,-2.1496,-2.1695,-2.1695,-2.2002,-2.2256,-2.2394,-2.2256,-2.2256,-2.2374,-2.1917,-2.1877,0.0,0.0,0.0,0.0,0.0,0.0,0.0,0.0,0.0,0.0,0.0,0.0,0.0,0.0,0.0,0.0,0.0,0.0,0.0,0.0,0.0,0.0,0.0,0.0,0.0,0.0,0.0,0.0,0.0,0.0,0.0,0.0,0.0,0.0,0.0,0.0,-3.0404,-3.0404,-3.0404,-3.0404,-3.0404,-3.0148,-2.9687,-2.9355,-2.9134,-2.9005,-2.9005,-2.9005,-2.9005,-2.9005,-2.9005,-2.9005,-2.9005,-2.9005,-2.9005,-2.9005,-2.8863,-2.8682,-2.8682,-2.8451,-2.8116,-2.7936,-2.7783,-2.753,-2.7131,-2.7003,-2.6971,-2.6758,-2.6691,-2.6691,-2.6691,-2.6691,-2.6691,-2.6691,-2.6691,-2.6691,-2.6691,-2.6691,-2.6691,-2.6691,-2.6691,-2.6691,-2.6691,-2.6404,-2.5982,-2.5397,-2.4612,-2.4281,-2.486,-2.5205,-2.5461,-2.5603,-2.5615,-2.5392,-2.4831,-2.4354,-2.3689,-2.2737,-2.2241,-2.1693,-2.1023,-2.1236,-2.1376,-2.1376,-2.1575,-2.1837,-2.2167,-2.1821,-2.1837,-2.2133,-2.1605,-2.1468,0.0,0.0,0.0,0.0,0.0,0.0,0.0,0.0,0.0,0.0,0.0,0.0,0.0,0.0,0.0,0.0,0.0,0.0,0.0,0.0,0.0,0.0,0.0,0.0,0.0,0.0,0.0,0.0,0.0,0.0,0.0,0.0,0.0,0.0,0.0,0.0,-3.0404,-3.0404,-3.0404,-3.0404,-3.0355,-3.0135,-2.9748,-2.9272,-2.9033,-2.9005,-2.9005,-2.9005,-2.9005,-2.9005,-2.9005,-2.9005,-2.9005,-2.9005,-2.9005,-2.9005,-2.9005,-2.9005,-2.9005,-2.8773,-2.8451,-2.8088,-2.7765,-2.7391,-2.6938,-2.6791,-2.6791,-2.6725,-2.6691,-2.6691,-2.6691,-2.6691,-2.6691,-2.6691,-2.6691,-2.6657,-2.6539,-2.6505,-2.6505,-2.6505,-2.6607,-2.6691,-2.6691,-2.6099,-2.5529,-2.5329,-2.5094,-2.4855,-2.4668,-2.513,-2.5468,-2.5468,-2.5468,-2.5365,-2.5158,-2.4533,-2.384,-2.3062,-2.2407,-2.1811,-2.1261,-2.1229,-2.1229,-2.1229,-2.1134,-2.1376,-2.1921,-2.1376,-2.1392,-2.1921,-2.1279,-2.1039,0.0,0.0,0.0,0.0,0.0,0.0,0.0,0.0,0.0,0.0,0.0,0.0,0.0,0.0,0.0,0.0,0.0,0.0,0.0,0.0,0.0,0.0,0.0,0.0,0.0,0.0,0.0,0.0,0.0,0.0,0.0,0.0,0.0,0.0,0.0,0.0,-3.0404,-3.0404,-3.0404,-3.0404,-3.0157,-3.0013,-2.9947,-2.9533,-2.9214,-2.9005,-2.9005,-2.9005,-2.9005,-2.9005,-2.9005,-2.9005,-2.9005,-2.9005,-2.9005,-2.9005,-2.9005,-2.9005,-2.9005,-2.8952,-2.8851,-2.8446,-2.8298,-2.8125,-2.7422,-2.7225,-2.7147,-2.6791,-2.6691,-2.6691,-2.6691,-2.6691,-2.6691,-2.6691,-2.6691,-2.6522,-2.5896,-2.5761,-2.5761,-2.5761,-2.6251,-2.6691,-2.6691,-2.6099,-2.5812,-2.6371,-2.5915,-2.5697,-2.6286,-2.6437,-2.6505,-2.6505,-2.6505,-2.6048,-2.4951,-2.4597,-2.3945,-2.2736,-2.2403,-2.2224,-2.2137,-2.2137,-2.2137,-2.2137,-2.1735,-2.1555,-2.1654,-2.1555,-2.1555,-2.1638,-2.1198,-2.1181,-1.9263,0.0,0.0,0.0,0.0,0.0,0.0,0.0,0.0,0.0,0.0,0.0,0.0,0.0,0.0,0.0,0.0,0.0,0.0,0.0,0.0,0.0,0.0,0.0,0.0,0.0,0.0,0.0,0.0,0.0,0.0,-3.039,-3.0565,-3.0503,-3.0425,0.0,-3.0404,-3.0404,-3.0404,-3.0404,-3.0136,-3.0006,-2.9991,-2.9579,-2.9341,-2.9232,-2.9074,-2.9005,-2.9005,-2.9005,-2.9005,-2.9005,-2.9005,-2.9005,-2.9005,-2.9005,-2.9005,-2.9005,-2.9005,-2.9005,-2.8929,-2.854,-2.8407,-2.8298,-2.7794,-2.747,-2.7255,-2.7083,-2.6873,-2.6691,-2.6691,-2.6691,-2.6691,-2.6691,-2.6387,-2.5998,-2.566,-2.5592,-2.549,-2.505,-2.5912,-2.6573,-2.615,-2.6167,-2.6336,-2.664,-2.642,-2.6336,-2.6657,-2.6691,-2.6691,-2.6691,-2.6691,-2.6303,-2.533,-2.4788,-2.4078,-2.3108,-2.2584,-2.2296,-2.2296,-2.2296,-2.2296,-2.2296,-2.2106,-2.1988,-2.1988,-2.1988,-2.1988,-2.1988,-2.1811,-2.1825,0.0,0.0,0.0,0.0,0.0,0.0,0.0,0.0,0.0,0.0,0.0,0.0,0.0,0.0,0.0,0.0,0.0,0.0,0.0,0.0,0.0,0.0,0.0,0.0,0.0,0.0,0.0,0.0,0.0,0.0,0.0,-2.9688,-2.9923,-2.9868,-2.9794,-2.9865,-3.0077,-3.0288,-3.0404,-3.0385,-2.9972,-2.9772,-2.9739,-2.9185,-2.8896,-2.8848,-2.8942,-2.9005,-2.9005,-2.9005,-2.9005,-2.9005,-2.9005,-2.9005,-2.9005,-2.9005,-2.9005,-2.9005,-2.9005,-2.9005,-2.8929,-2.854,-2.8407,-2.8342,-2.7992,-2.7619,-2.7303,-2.7303,-2.7003,-2.6691,-2.6691,-2.6691,-2.6691,-2.6691,-2.6285,-2.5778,-2.5406,-2.5321,-2.5152,-2.4609,-2.5388,-2.6015,-2.5659,-2.6065,-2.6471,-2.6657,-2.6691,-2.6691,-2.6691,-2.6691,-2.6691,-2.6691,-2.6691,-2.6404,-2.5659,-2.4915,-2.4186,-2.3444,-2.2716,-2.2296,-2.2296,-2.2296,-2.2296,-2.2296,-2.2296,-2.2296,-2.2296,-2.2296,-2.2296,-2.2296,-2.2296,-2.2296,0.0,0.0,0.0,0.0,0.0,0.0,0.0,0.0,0.0,0.0,0.0,0.0,0.0,0.0,0.0,0.0,0.0,0.0,0.0,0.0,0.0,0.0,0.0,0.0,0.0,0.0,0.0,0.0,0.0,0.0,-2.8279,-2.8249,-2.8197,-2.8129,-2.8063,-2.8396,-2.9165,-2.9981,-3.0404,-3.0385,-2.9558,-2.9154,-2.911,-2.8077,-2.7482,-2.7382,-2.85,-2.9005,-2.9005,-2.9005,-2.9005,-2.9005,-2.9005,-2.9005,-2.9005,-2.9005,-2.9005,-2.9005,-2.9005,-2.9005,-2.8929,-2.854,-2.8407,-2.8342,-2.7992,-2.7619,-2.7303,-2.7303,-2.7003,-2.6691,-2.6691,-2.6691,-2.6691,-2.6691,-2.6657,-2.6268,-2.4863,-2.4558,-2.4541,-2.4508,-2.4558,-2.4829,-2.549,-2.5626,-2.5896,-2.659,-2.6691,-2.6691,-2.6691,-2.6691,-2.6691,-2.6691,-2.6691,-2.6404,-2.5659,-2.4915,-2.4186,-2.3444,-2.2716,-2.2296,-2.2296,-2.2296,-2.2296,-2.2296,-2.2296,-2.2296,-2.2296,-2.2296,-2.2296,-2.2296,-2.2296,-2.2296,0.0,0.0,0.0,0.0,0.0,0.0,0.0,0.0,0.0,0.0,0.0,0.0,0.0,0.0,0.0,0.0,0.0,0.0,0.0,0.0,0.0,0.0,0.0,0.0,0.0,0.0,0.0,0.0,0.0,0.0,-2.7234,-2.779,-2.8051,-2.7938,-2.7902,-2.8049,-2.8338,-2.864,-2.8794,-2.8794,-2.8486,-2.8338,-2.8313,-2.7752,-2.7398,-2.7218,-2.7512,-2.7577,-2.7501,-2.8026,-2.8227,-2.8282,-2.8803,-2.9005,-2.9005,-2.9005,-2.9005,-2.9005,-2.9005,-2.9005,-2.8982,-2.8839,-2.8602,-2.8381,-2.8264,-2.7791,-2.7303,-2.7303,-2.7003,-2.6691,-2.6691,-2.6691,-2.6691,-2.6691,-2.6336,-2.5727,-2.4711,-2.4491,-2.422,-2.3274,-2.4239,-2.5135,-2.4931,-2.5676,-2.6387,-2.6657,-2.6691,-2.6691,-2.6691,-2.6691,-2.6691,-2.6691,-2.6691,-2.6201,-2.4998,-2.466,-2.3983,-2.2784,-2.2448,-2.2296,-2.2296,-2.2296,-2.2296,-2.2296,-2.2296,-2.2296,-2.2296,-2.2296,-2.2296,-2.2296,-2.2296,-2.255,-1.6493,0.0,0.0,0.0,0.0,0.0,0.0,0.0,0.0,0.0,0.0,0.0,0.0,0.0,0.0,0.0,0.0,0.0,0.0,0.0,0.0,0.0,0.0,0.0,0.0,0.0,0.0,0.0,0.0,0.0,-2.6281,-2.6841,-2.7133,-2.703,-2.7313,-2.7467,-2.7467,-2.7755,-2.7895,-2.7895,-2.7601,-2.7467,-2.7448,-2.6985,-2.665,-2.6457,-2.6276,-2.6349,-2.6657,-2.7475,-2.7798,-2.789,-2.8693,-2.9005,-2.9005,-2.9005,-2.9005,-2.9005,-2.9005,-2.9005,-2.9005,-2.9005,-2.8827,-2.859,-2.859,-2.8166,-2.7646,-2.753,-2.721,-2.6873,-2.6741,-2.6522,-2.6268,-2.6031,-2.5592,-2.5033,-2.4288,-2.4135,-2.378,-2.2533,-2.3697,-2.478,-2.4541,-2.5523,-2.6404,-2.6657,-2.6691,-2.6691,-2.6691,-2.6691,-2.6691,-2.6691,-2.6691,-2.6302,-2.532,-2.4778,-2.4085,-2.3105,-2.2567,-2.2296,-2.2296,-2.2296,-2.2296,-2.2296,-2.2296,-2.2296,-2.2296,-2.2296,-2.2296,-2.2296,-2.255,-2.3054,0.0,0.0,0.0,0.0,0.0,0.0,0.0,0.0,0.0,0.0,0.0,0.0,0.0,0.0,0.0,0.0,0.0,0.0,0.0,0.0,0.0,0.0,0.0,0.0,0.0,0.0,0.0,0.0,0.0,0.0,-2.5406,-2.5406,-2.5375,-2.5293,-2.6115,-2.6563,-2.6563,-2.739,-2.7818,-2.7818,-2.6967,-2.6563,-2.6524,-2.5692,-2.5198,-2.4998,-2.4869,-2.5456,-2.6605,-2.7412,-2.7732,-2.7842,-2.8656,-2.8968,-2.8968,-2.8987,-2.8987,-2.8968,-2.8987,-2.9005,-2.9005,-2.9005,-2.8994,-2.8982,-2.8982,-2.8694,-2.8329,-2.7978,-2.7619,-2.7208,-2.6807,-2.6149,-2.5423,-2.4677,-2.4474,-2.4271,-2.3545,-2.3376,-2.3156,-2.2465,-2.2953,-2.3695,-2.4406,-2.5135,-2.5879,-2.659,-2.6691,-2.6691,-2.6691,-2.6691,-2.6691,-2.6657,-2.6691,-2.6657,-2.6607,-2.532,-2.4474,-2.444,-2.3088,-2.2296,-2.2296,-2.2296,-2.2296,-2.2296,-2.2296,-2.2296,-2.2296,-2.2296,-2.2296,-2.2313,-2.3071,-2.3814,-1.5857,0.0,0.0,0.0,0.0,0.0,0.0,0.0,0.0,0.0,0.0,0.0,0.0,0.0,0.0,0.0,0.0,0.0,0.0,0.0,0.0,0.0,0.0,0.0,0.0,0.0,0.0,0.0,0.0,-2.5376,-2.533,-2.5321,-2.5327,-2.5308,-2.5538,-2.5654,-2.5654,-2.5904,-2.6019,-2.6019,-2.5769,-2.5654,-2.5654,-2.5404,-2.5198,-2.5004,-2.4962,-2.5009,-2.5125,-2.5794,-2.6421,-2.7016,-2.7824,-2.8136,-2.8209,-2.8785,-2.862,-2.8227,-2.8803,-2.9005,-2.9005,-2.9005,-2.8797,-2.8565,-2.8565,-2.8316,-2.802,-2.7926,-2.7826,-2.7511,-2.6582,-2.5984,-2.5423,-2.4677,-2.4085,-2.3646,-2.3427,-2.2987,-2.2699,-2.3038,-2.412,-2.5067,-2.527,-2.5913,-2.6454,-2.6657,-2.6691,-2.6691,-2.6691,-2.6691,-2.6488,-2.5964,-2.6387,-2.6048,-2.4441,-2.4423,-2.4051,-2.2987,-2.253,-2.2296,-2.2296,-2.2296,-2.2296,-2.2296,-2.2296,-2.2296,-2.2296,-2.2296,-2.2296,-2.233,-2.3596,-2.4017,-1.6511,0.0,0.0,0.0,0.0,0.0,0.0,0.0,0.0,0.0,0.0,0.0,0.0,0.0,0.0,0.0,0.0,0.0,0.0,0.0,0.0,0.0,0.0,0.0,0.0,0.0,0.0,0.0,-2.5339,-2.5348,-2.5293,-2.5308,-2.5308,-2.5308,-2.5308,-2.5308,-2.5308,-2.5308,-2.5308,-2.5308,-2.5308,-2.5308,-2.5308,-2.5308,-2.5198,-2.5004,-2.4937,-2.4752,-2.4524,-2.4801,-2.5374,-2.6172,-2.6979,-2.7291,-2.7365,-2.7831,-2.7703,-2.7365,-2.7831,-2.7996,-2.8051,-2.8381,-2.834,-2.8149,-2.8149,-2.8014,-2.7751,-2.7254,-2.691,-2.6468,-2.549,-2.4966,-2.4509,-2.3763,-2.3241,-2.2936,-2.2936,-2.2852,-2.2885,-2.3308,-2.434,-2.5236,-2.5542,-2.6201,-2.6691,-2.6691,-2.6691,-2.6691,-2.6691,-2.642,-2.6082,-2.5643,-2.571,-2.5269,-2.3966,-2.3966,-2.3663,-2.2818,-2.2465,-2.2296,-2.2296,-2.2296,-2.2296,-2.2296,-2.2296,-2.2296,-2.2296,-2.2296,-2.2448,-2.2784,-2.3644,-2.4137,-1.7679,-1.7887,0.0,0.0,0.0,0.0,0.0,-2.0923,0.0,0.0,0.0,0.0,0.0,0.0,0.0,0.0,0.0,0.0,0.0,0.0,0.0,0.0,0.0,0.0,0.0,0.0,0.0,-2.5308,-2.5308,-2.5308,-2.5308,-2.5308,-2.5308,-2.5308,-2.5308,-2.5308,-2.5308,-2.5308,-2.5308,-2.5308,-2.5308,-2.5308,-2.5308,-2.5308,-2.5208,-2.5022,-2.4871,-2.4704,-2.452,-2.4321,-2.4678,-2.5466,-2.619,-2.6465,-2.6484,-2.6576,-2.6539,-2.6484,-2.6576,-2.6602,-2.6722,-2.742,-2.7658,-2.7658,-2.7658,-2.7658,-2.7438,-2.6378,-2.5582,-2.4903,-2.4157,-2.3676,-2.3207,-2.2482,-2.2296,-2.2296,-2.2296,-2.2885,-2.341,-2.3511,-2.4118,-2.4863,-2.5609,-2.6268,-2.6691,-2.6691,-2.6691,-2.6657,-2.659,-2.6015,-2.5541,-2.5356,-2.4846,-2.4423,-2.4271,-2.3729,-2.3359,-2.3274,-2.2651,-2.2296,-2.2296,-2.2296,-2.2296,-2.2296,-2.2296,-2.2296,-2.2296,-2.2296,-2.2649,-2.3274,-2.3359,-2.4103,-1.9879,-2.0427,-2.0784,-1.9591,0.0,0.0,0.0,-1.9685,0.0,0.0,0.0,0.0,0.0,0.0,0.0,0.0,0.0,0.0,0.0,0.0,0.0,0.0,0.0,0.0,0.0,0.0,0.0,-2.5308,-2.5308,-2.5308,-2.5308,-2.5308,-2.5308,-2.5308,-2.5308,-2.5308,-2.5308,-2.5308,-2.5308,-2.5308,-2.5308,-2.5308,-2.5308,-2.5308,-2.5274,-2.5224,-2.5047,-2.4877,-2.4731,-2.4528,-2.482,-2.5411,-2.5576,-2.5631,-2.5705,-2.6355,-2.619,-2.5723,-2.6374,-2.6602,-2.662,-2.6778,-2.6833,-2.6833,-2.6833,-2.6833,-2.6804,-2.6556,-2.5973,-2.5226,-2.4481,-2.385,-2.3207,-2.2482,-2.2296,-2.2296,-2.2296,-2.2885,-2.3579,-2.4169,-2.4881,-2.5625,-2.6353,-2.659,-2.6691,-2.6691,-2.6691,-2.6488,-2.5896,-2.5693,-2.5152,-2.3951,-2.4237,-2.4017,-2.2835,-2.3139,-2.3139,-2.255,-2.2381,-2.2296,-2.2296,-2.2296,-2.2296,-2.2296,-2.2296,-2.2296,-2.2296,-2.2296,-2.2364,-2.253,-2.3122,-2.3545,0.0,0.0,-2.1592,-2.0766,0.0,0.0,0.0,0.0,0.0,0.0,0.0,0.0,0.0,0.0,0.0,0.0,0.0,0.0,0.0,0.0,0.0,0.0,0.0,0.0,0.0,0.0,-2.5308,-2.5308,-2.5308,-2.5308,-2.5308,-2.5308,-2.5308,-2.5308,-2.5308,-2.5308,-2.5308,-2.5308,-2.5308,-2.5308,-2.5308,-2.5308,-2.5308,-2.5308,-2.5253,-2.5146,-2.504,-2.4865,-2.4639,-2.4545,-2.4625,-2.4805,-2.4805,-2.4805,-2.486,-2.5254,-2.5144,-2.486,-2.5254,-2.5401,-2.5474,-2.586,-2.5988,-2.5988,-2.5988,-2.5713,-2.5401,-2.5401,-2.5023,-2.4516,-2.4146,-2.3543,-2.2963,-2.2586,-2.2402,-2.2468,-2.3031,-2.3281,-2.3788,-2.5088,-2.5479,-2.5845,-2.6573,-2.6387,-2.615,-2.615,-2.5828,-2.5472,-2.5101,-2.4729,-2.4222,-2.3477,-2.3393,-2.3105,-2.2347,-2.2987,-2.3088,-2.2347,-2.2649,-2.2682,-2.2313,-2.2296,-2.2296,-2.2296,-2.2296,-2.2296,-2.2296,-2.2296,-2.2296,-2.2296,-2.2682,-2.3054,0.0,0.0,0.0,0.0,0.0,-2.0859,0.0,0.0,0.0,-2.0162,0.0,0.0,0.0,0.0,0.0,0.0,0.0,0.0,0.0,0.0,0.0,0.0,0.0,0.0,0.0,0.0,0.0,-2.5288,-2.5,-2.4962,-2.5288,-2.5308,-2.5308,-2.5308,-2.5308,-2.5308,-2.5308,-2.5308,-2.5308,-2.5308,-2.5308,-2.5308,-2.5308,-2.5308,-2.5214,-2.5065,-2.5022,-2.4852,-2.4588,-2.4537,-2.441,-2.4247,-2.4209,-2.419,-2.419,-2.419,-2.419,-2.419,-2.419,-2.419,-2.43,-2.4952,-2.5172,-2.5172,-2.5172,-2.4713,-2.419,-2.419,-2.3966,-2.3703,-2.3703,-2.3247,-2.2797,-2.2797,-2.263,-2.2733,-2.3654,-2.3695,-2.407,-2.5733,-2.5941,-2.5989,-2.6606,-2.6099,-2.5592,-2.5592,-2.4966,-2.4491,-2.4491,-2.3983,-2.3613,-2.3613,-2.2953,-2.2499,-2.2499,-2.2936,-2.2936,-2.233,-2.2868,-2.2919,-2.2313,-2.2296,-2.2296,-2.2296,-2.2296,-2.2296,-2.2296,-2.2296,-2.2296,-2.2296,-2.2296,-2.2632,0.0,0.0,0.0,0.0,-2.2263,0.0,0.0,0.0,-2.0181,-1.9565,0.0,0.0,0.0,0.0,0.0,0.0,0.0,0.0,0.0,0.0,0.0,0.0,0.0,0.0,0.0,0.0,0.0,0.0,-2.3928,-2.3735,-2.5231,-2.5308,-2.5308,-2.5308,-2.5308,-2.5308,-2.5308,-2.5308,-2.5308,-2.5308,-2.5308,-2.5308,-2.5308,-2.5308,-2.5298,-2.5259,-2.5082,-2.4986,-2.493,-2.4628,-2.4486,-2.4444,-2.4266,-2.419,-2.419,-2.419,-2.419,-2.419,-2.419,-2.419,-2.4208,-2.43,-2.4337,-2.4337,-2.4337,-2.4263,-2.419,-2.419,-2.3966,-2.3703,-2.3703,-2.3426,-2.3141,-2.3141,-2.3117,-2.3129,-2.3265,-2.3769,-2.447,-2.5394,-2.613,-2.6597,-2.6689,-2.6099,-2.5592,-2.5592,-2.4966,-2.4491,-2.4491,-2.4423,-2.4372,-2.4372,-2.3729,-2.3274,-2.3274,-2.275,-2.2381,-2.2296,-2.2381,-2.2381,-2.2296,-2.2296,-2.2296,-2.2296,-2.2296,-2.2296,-2.2296,-2.2296,-2.2296,-2.2296,-2.2296,-2.233,0.0,0.0,0.0,0.0,0.0,0.0,0.0,0.0,-1.984,0.0,0.0,0.0,0.0,0.0,0.0,0.0,0.0,0.0,0.0,0.0,0.0,0.0,0.0,0.0,0.0,0.0,0.0,0.0,0.0,-2.3524,-2.5212,-2.5308,-2.5308,-2.5308,-2.5308,-2.5308,-2.5308,-2.5308,-2.5308,-2.5308,-2.5308,-2.5308,-2.5308,-2.5308,-2.5308,-2.5303,-2.5214,-2.5105,-2.4998,-2.4852,-2.4737,-2.4654,-2.4444,-2.4303,-2.419,-2.419,-2.419,-2.419,-2.419,-2.419,-2.419,-2.419,-2.419,-2.419,-2.419,-2.419,-2.419,-2.419,-2.4094,-2.3996,-2.3996,-2.3735,-2.35,-2.35,-2.3346,-2.3389,-2.4038,-2.4604,-2.5298,-2.6297,-2.6988,-2.7323,-2.7095,-2.645,-2.5859,-2.558,-2.4949,-2.4414,-2.4178,-2.4356,-2.4491,-2.4491,-2.422,-2.4051,-2.4051,-2.3763,-2.3393,-2.297,-2.2533,-2.2496,-2.2919,-2.253,-2.2499,-2.2936,-2.2516,-2.2296,-2.2296,-2.2296,-2.2296,-2.2296,-2.2296,-2.2296,-2.419,0.0,0.0,0.0,0.0,0.0,0.0,0.0,0.0,0.0,0.0,0.0,0.0,0.0,0.0,0.0,0.0,0.0,0.0,0.0,0.0,0.0,0.0,0.0,0.0,0.0,0.0,0.0,0.0,0.0,-2.487,-2.4962,-2.5077,-2.5288,-2.5308,-2.5308,-2.5308,-2.5308,-2.5308,-2.5308,-2.5308,-2.5308,-2.5308,-2.5308,-2.5308,-2.5308,-2.5308,-2.5214,-2.5082,-2.5022,-2.4937,-2.4842,-2.4662,-2.4495,-2.4348,-2.4247,-2.419,-2.419,-2.419,-2.419,-2.419,-2.419,-2.419,-2.419,-2.419,-2.419,-2.419,-2.419,-2.419,-2.419,-2.419,-2.4016,-2.3837,-2.3837,-2.366,-2.3705,-2.4527,-2.5115,-2.5751,-2.6693,-2.732,-2.766,-2.7495,-2.677,-2.606,-2.5593,-2.4937,-2.4464,-2.4388,-2.4609,-2.488,-2.5083,-2.4931,-2.4728,-2.4508,-2.4305,-2.3881,-2.3139,-2.2598,-2.2533,-2.3071,-2.2784,-2.2767,-2.3088,-2.2784,-2.2499,-2.2296,-2.2296,-2.2296,-2.2296,-2.2296,-2.2296,0.0,0.0,0.0,0.0,0.0,0.0,0.0,0.0,-2.0474,0.0,0.0,0.0,0.0,0.0,0.0,-2.0864,0.0,0.0,0.0,0.0,0.0,0.0,0.0,0.0,0.0,0.0,0.0,0.0,0.0,0.0,-2.3956,-2.4149,-2.4509,-2.5288,-2.5308,-2.5308,-2.5308,-2.5308,-2.5308,-2.5308,-2.5308,-2.5308,-2.5308,-2.5308,-2.5308,-2.5308,-2.5308,-2.5303,-2.5274,-2.5082,-2.5004,-2.4986,-2.4849,-2.479,-2.4731,-2.4339,-2.419,-2.419,-2.419,-2.419,-2.419,-2.419,-2.419,-2.419,-2.419,-2.419,-2.419,-2.419,-2.419,-2.419,-2.419,-2.419,-2.418,-2.418,-2.417,-2.4189,-2.4217,-2.4841,-2.5536,-2.5971,-2.6688,-2.7361,-2.7798,-2.6947,-2.6057,-2.5671,-2.498,-2.4745,-2.5455,-2.5558,-2.5845,-2.6539,-2.5998,-2.527,-2.4558,-2.3848,-2.3122,-2.2381,-2.2313,-2.2313,-2.233,-2.3004,-2.3038,-2.2347,-2.3004,-2.3004,-2.2296,-2.2296,-2.2296,-2.2296,-2.2296,-2.2296,0.0,0.0,-2.3933,-2.2868,0.0,0.0,0.0,0.0,0.0,0.0,0.0,0.0,0.0,0.0,-2.1544,-2.0736,0.0,0.0,0.0,0.0,0.0,0.0,0.0,0.0,0.0,0.0,0.0,0.0,0.0,0.0,0.0,-2.4601,-2.5019,-2.5288,-2.5308,-2.5308,-2.5308,-2.5308,-2.5308,-2.5308,-2.5308,-2.5308,-2.5308,-2.5308,-2.5308,-2.5308,-2.5308,-2.5308,-2.5284,-2.5224,-2.5203,-2.5163,-2.4896,-2.4804,-2.4768,-2.4503,-2.4401,-2.4384,-2.4256,-2.419,-2.419,-2.419,-2.419,-2.419,-2.419,-2.419,-2.419,-2.419,-2.419,-2.419,-2.419,-2.419,-2.419,-2.419,-2.419,-2.4337,-2.4879,-2.5631,-2.6379,-2.7068,-2.7848,-2.8361,-2.8236,-2.7911,-2.7351,-2.6452,-2.6127,-2.5959,-2.5925,-2.5735,-2.571,-2.5947,-2.5304,-2.4778,-2.4508,-2.4035,-2.3405,-2.2598,-2.2768,-2.3349,-2.4374,-2.368,-2.3903,-2.5254,-2.4251,-2.3626,-2.3422,-2.3385,-2.3096,-2.2577,-2.2794,-2.2686,-2.419,-2.419,0.0,0.0,-2.2724,0.0,0.0,0.0,0.0,0.0,0.0,0.0,0.0,0.0,0.0,-2.1166,-2.0733,0.0,0.0,0.0,0.0,0.0,0.0,0.0,0.0,0.0,-1.8843,-2.0093,0.0,0.0,0.0,0.0,-2.5,-2.5288,-2.5308,-2.5308,-2.5308,-2.5308,-2.5308,-2.5308,-2.5308,-2.5308,-2.5308,-2.5308,-2.5308,-2.5308,-2.5308,-2.5308,-2.5308,-2.5308,-2.5259,-2.5163,-2.4968,-2.4842,-2.4768,-2.4495,-2.4393,-2.4375,-2.4228,-2.419,-2.419,-2.419,-2.419,-2.419,-2.419,-2.419,-2.419,-2.419,-2.419,-2.419,-2.419,-2.419,-2.419,-2.419,-2.419,-2.442,-2.5227,-2.6025,-2.68,-2.747,-2.8238,-2.8658,-2.829,-2.8224,-2.7964,-2.7242,-2.7128,-2.7037,-2.6762,-2.6305,-2.6102,-2.639,-2.5736,-2.5168,-2.4876,-2.4122,-2.3419,-2.292,-2.3081,-2.3661,-2.464,-2.4251,-2.4493,-2.5498,-2.5121,-2.4523,-2.3727,-2.3951,-2.3658,-2.2885,-2.2984,-2.2802]},{"header":{"parameterUnit":"m.s-1","parameterCategory":1,"la1":30.6,"la2":29.2853,"lo1":-89.7004,"lo2":-87.6739,"dy":0.0162,"dx":0.0183,"nx":112,"ny":82,"refTime":"2024-07-27T06:00:00:Z","depth":0,"parameterNumber":3,"parameterNumberName":"V-component_of_WINDS"},"data":[0.0,0.0,0.0,0.0,0.0,0.0,0.0,0.0,0.0,0.0,0.0,0.0,0.0,0.0,0.0,0.0,0.0,0.0,0.0,0.0,0.0,0.0,0.0,0.0,0.0,0.0,0.0,0.0,0.0,0.0,0.0,0.0,0.0,0.0,0.0,0.0,0.0,0.0,0.0,0.0,0.0,0.0,0.0,0.0,0.0,0.0,0.0,0.0,0.0,0.0,0.0,0.0,0.0,0.0,0.0,0.0,0.0,0.0,0.0,0.0,0.0,0.0,0.0,0.0,0.0,0.0,0.0,0.0,0.0,0.0,0.0,0.0,0.0,0.0,0.0,0.0,0.0,0.0,0.0,0.0,0.0,0.0,0.0,0.0,0.0,0.0,0.0,0.0,0.0,0.0,0.0,-1.332,-1.4219,-1.4512,-1.4046,-1.4007,-1.333,-1.1704,0.0,0.0,0.0,0.0,0.0,0.0,0.0,0.0,0.0,0.0,0.0,0.0,0.0,0.0,0.0,0.0,0.0,0.0,0.0,0.0,0.0,0.0,0.0,0.0,0.0,0.0,0.0,0.0,0.0,0.0,0.0,0.0,0.0,0.0,0.0,0.0,0.0,0.0,0.0,0.0,0.0,0.0,0.0,0.0,0.0,0.0,0.0,0.0,0.0,0.0,0.0,0.0,0.0,0.0,0.0,0.0,0.0,0.0,0.0,0.0,0.0,0.0,0.0,0.0,0.0,0.0,0.0,0.0,0.0,0.0,0.0,0.0,0.0,0.0,0.0,0.0,0.0,0.0,0.0,0.0,0.0,0.0,0.0,0.0,0.0,0.0,0.0,0.0,0.0,0.0,0.0,0.0,0.0,0.0,0.0,0.0,0.0,0.0,0.0,0.0,0.0,0.0,0.0,0.0,-1.1182,-1.3281,-1.3919,-1.4036,-1.3643,-1.3578,-1.3018,-1.1685,0.0,0.0,0.0,0.0,0.0,0.0,0.0,0.0,0.0,0.0,0.0,0.0,0.0,0.0,0.0,0.0,0.0,0.0,0.0,0.0,0.0,0.0,0.0,0.0,0.0,0.0,0.0,0.0,0.0,0.0,0.0,0.0,0.0,0.0,0.0,0.0,0.0,0.0,0.0,0.0,0.0,0.0,0.0,0.0,0.0,0.0,0.0,0.0,0.0,0.0,0.0,0.0,0.0,0.0,0.0,0.0,0.0,0.0,0.0,0.0,0.0,0.0,0.0,0.0,0.0,0.0,0.0,0.0,0.0,0.0,0.0,0.0,0.0,0.0,0.0,0.0,0.0,0.0,0.0,0.0,0.0,0.0,0.0,0.0,0.0,0.0,0.0,0.0,0.0,0.0,0.0,0.0,0.0,0.0,0.0,0.0,0.0,0.0,0.0,0.0,0.0,0.0,0.0,-1.1064,-1.1895,-1.335,-1.3656,-1.3695,-1.3525,-1.3301,-1.2729,-1.1675,-1.1134,0.0,0.0,0.0,0.0,0.0,0.0,0.0,0.0,0.0,0.0,0.0,0.0,0.0,0.0,0.0,0.0,0.0,0.0,0.0,0.0,0.0,0.0,0.0,0.0,0.0,0.0,0.0,0.0,0.0,0.0,0.0,0.0,0.0,0.0,0.0,0.0,0.0,0.0,0.0,0.0,0.0,0.0,0.0,0.0,0.0,0.0,0.0,0.0,0.0,0.0,0.0,0.0,0.0,0.0,0.0,0.0,0.0,0.0,0.0,0.0,0.0,0.0,0.0,0.0,0.0,0.0,0.0,0.0,0.0,0.0,0.0,0.0,0.0,0.0,0.0,0.0,0.0,0.0,0.0,0.0,0.0,0.0,0.0,0.0,0.0,0.0,0.0,0.0,0.0,0.0,0.0,0.0,0.0,0.0,0.0,0.0,0.0,0.0,0.0,0.0,0.0,0.0,-1.1914,-1.2613,-1.3291,-1.3359,-1.3359,-1.3359,-1.2895,-1.2306,-1.1628,-1.0823,0.0,0.0,0.0,0.0,0.0,0.0,0.0,0.0,0.0,0.0,0.0,0.0,0.0,0.0,0.0,0.0,0.0,0.0,0.0,0.0,0.0,0.0,0.0,0.0,0.0,0.0,0.0,0.0,0.0,0.0,0.0,0.0,0.0,0.0,0.0,0.0,0.0,0.0,0.0,0.0,0.0,0.0,0.0,0.0,0.0,0.0,0.0,0.0,0.0,0.0,0.0,0.0,0.0,0.0,0.0,0.0,0.0,0.0,0.0,0.0,0.0,0.0,0.0,0.0,0.0,0.0,0.0,0.0,0.0,0.0,0.0,0.0,0.0,0.0,0.0,0.0,0.0,0.0,0.0,0.0,0.0,0.0,0.0,0.0,0.0,0.0,0.0,0.0,0.0,0.0,0.0,0.0,0.0,0.0,0.0,0.0,0.0,0.0,0.0,0.0,0.0,0.0,-1.1839,-1.2876,-1.2944,-1.2954,-1.2954,-1.2954,-1.2171,-1.1639,-1.1501,-1.0014,0.0,0.0,0.0,0.0,0.0,0.0,0.0,0.0,0.0,0.0,0.0,0.0,0.0,0.0,0.0,0.0,0.0,0.0,0.0,0.0,0.0,0.0,0.0,0.0,0.0,0.0,0.0,0.0,0.0,0.0,0.0,0.0,0.0,0.0,0.0,0.0,0.0,0.0,0.0,0.0,0.0,0.0,0.0,0.0,0.0,0.0,0.0,0.0,0.0,0.0,0.0,0.0,0.0,0.0,0.0,0.0,0.0,0.0,0.0,0.0,0.0,0.0,0.0,0.0,0.0,0.0,0.0,0.0,0.0,0.0,0.0,0.0,0.0,0.0,0.0,0.0,0.0,0.0,0.0,0.0,0.0,0.0,0.0,0.0,0.0,0.0,0.0,0.0,0.0,0.0,0.0,0.0,0.0,0.0,0.0,0.0,0.0,0.0,0.0,0.0,0.0,0.0,-1.134,-1.2289,0.0,-1.2905,-1.2905,-1.2905,-1.2602,-1.2053,-1.1194,0.0,0.0,0.0,0.0,0.0,0.0,0.0,0.0,0.0,0.0,0.0,0.0,0.0,0.0,0.0,0.0,0.0,0.0,0.0,0.0,0.0,0.0,0.0,0.0,0.0,0.0,0.0,0.0,0.0,0.0,0.0,0.0,0.0,0.0,0.0,0.0,0.0,0.0,0.0,0.0,0.0,0.0,0.0,0.0,0.0,0.0,0.0,0.0,0.0,0.0,0.0,0.0,0.0,0.0,0.0,0.0,0.0,0.0,0.0,0.0,0.0,0.0,0.0,0.0,0.0,0.0,0.0,0.0,0.0,0.0,0.0,0.0,0.0,0.0,0.0,0.0,0.0,0.0,0.0,0.0,0.0,0.0,0.0,0.0,0.0,0.0,0.0,0.0,0.0,0.0,0.0,0.0,0.0,0.0,0.0,0.0,0.0,0.0,0.0,0.0,0.0,0.0,-1.0205,-1.1291,-1.223,0.0,-1.2905,-1.2968,-1.3176,-1.2786,-1.2184,-1.1395,0.0,0.0,0.0,0.0,0.0,0.0,0.0,0.0,0.0,0.0,0.0,0.0,0.0,0.0,0.0,0.0,0.0,0.0,0.0,0.0,0.0,0.0,0.0,0.0,0.0,0.0,0.0,0.0,0.0,0.0,0.0,0.0,0.0,0.0,0.0,0.0,0.0,0.0,0.0,0.0,0.0,0.0,0.0,0.0,0.0,0.0,0.0,0.0,0.0,0.0,0.0,0.0,0.0,0.0,0.0,0.0,0.0,0.0,0.0,0.0,0.0,0.0,0.0,0.0,0.0,0.0,0.0,0.0,0.0,0.0,0.0,0.0,0.0,0.0,0.0,0.0,0.0,0.0,0.0,0.0,0.0,0.0,0.0,0.0,0.0,0.0,0.0,0.0,0.0,0.0,0.0,0.0,0.0,0.0,0.0,0.0,0.0,0.0,0.0,0.0,0.0,0.0,-1.0244,-1.1819,-1.2905,-1.2905,-1.2905,-1.3152,-1.3755,-1.2519,-1.1875,0.0,0.0,0.0,0.0,0.0,0.0,0.0,0.0,0.0,0.0,0.0,0.0,0.0,0.0,0.0,0.0,0.0,0.0,0.0,0.0,0.0,0.0,0.0,0.0,0.0,0.0,0.0,0.0,0.0,0.0,0.0,0.0,0.0,0.0,0.0,0.0,0.0,0.0,0.0,0.0,0.0,0.0,0.0,0.0,0.0,0.0,0.0,0.0,0.0,0.0,0.0,0.0,0.0,0.0,0.0,0.0,0.0,0.0,0.0,0.0,0.0,0.0,0.0,0.0,0.0,0.0,0.0,0.0,0.0,0.0,0.0,0.0,0.0,0.0,0.0,0.0,0.0,0.0,0.0,0.0,0.0,0.0,0.0,0.0,0.0,0.0,0.0,0.0,0.0,0.0,0.0,0.0,0.0,0.0,0.0,0.0,0.0,0.0,0.0,0.0,0.0,0.0,0.0,0.0,-1.1819,-1.2905,-1.2905,-1.2905,-1.3152,-1.3755,-1.3085,-1.2434,-1.197,0.0,0.0,0.0,0.0,0.0,0.0,0.0,0.0,0.0,0.0,0.0,0.0,0.0,0.0,0.0,0.0,0.0,0.0,0.0,0.0,0.0,0.0,0.0,0.0,0.0,0.0,0.0,0.0,0.0,0.0,0.0,0.0,0.0,0.0,0.0,0.0,0.0,0.0,0.0,0.0,0.0,0.0,0.0,0.0,0.0,0.0,0.0,0.0,0.0,0.0,0.0,0.0,0.0,0.0,0.0,0.0,0.0,0.0,0.0,0.0,0.0,0.0,0.0,0.0,0.0,0.0,0.0,0.0,0.0,0.0,0.0,0.0,0.0,0.0,0.0,0.0,0.0,0.0,0.0,0.0,0.0,0.0,0.0,0.0,0.0,0.0,0.0,0.0,0.0,0.0,0.0,0.0,0.0,0.0,0.0,0.0,0.0,0.0,0.0,0.0,0.0,0.0,-1.0224,-1.1819,-1.2905,-1.2905,-1.3128,-1.3515,-1.4097,-1.3892,-1.3421,-1.276,0.0,0.0,0.0,0.0,0.0,0.0,0.0,0.0,0.0,0.0,0.0,0.0,0.0,0.0,0.0,0.0,0.0,0.0,0.0,0.0,0.0,0.0,0.0,0.0,0.0,0.0,0.0,0.0,0.0,0.0,0.0,0.0,0.0,0.0,0.0,0.0,0.0,0.0,0.0,0.0,0.0,0.0,0.0,0.0,0.0,0.0,0.0,0.0,0.0,0.0,0.0,0.0,0.0,0.0,0.0,0.0,0.0,0.0,0.0,0.0,0.0,0.0,0.0,0.0,0.0,0.0,0.0,0.0,0.0,0.0,0.0,0.0,0.0,0.0,0.0,0.0,0.0,0.0,0.0,0.0,0.0,0.0,0.0,0.0,0.0,0.0,0.0,0.0,0.0,0.0,0.0,0.0,0.0,0.0,0.0,0.0,0.0,0.0,0.0,0.0,0.0,0.0,-1.0244,-1.1893,-1.2968,-1.2968,-1.3529,-1.412,-1.4721,-1.4789,-1.4606,-1.4205,0.0,0.0,0.0,0.0,0.0,0.0,0.0,0.0,0.0,0.0,0.0,0.0,0.0,0.0,0.0,0.0,0.0,0.0,0.0,0.0,0.0,0.0,0.0,0.0,0.0,0.0,0.0,0.0,0.0,0.0,0.0,0.0,0.0,0.0,0.0,0.0,0.0,0.0,0.0,0.0,0.0,0.0,0.0,0.0,0.0,0.0,0.0,0.0,0.0,0.0,0.0,0.0,0.0,0.0,0.0,0.0,0.0,0.0,0.0,0.0,-0.7705,0.0,0.0,0.0,0.0,0.0,0.0,0.0,0.0,0.0,0.0,0.0,0.0,0.0,0.0,0.0,0.0,0.0,0.0,0.0,0.0,0.0,0.0,0.0,0.0,0.0,0.0,0.0,0.0,0.0,0.0,0.0,0.0,0.0,0.0,0.0,0.0,0.0,0.0,0.0,0.0,0.0,-1.0664,-1.2422,-1.3624,-1.3624,-1.4154,-1.4755,-1.5365,-1.5028,-1.4783,-1.4739,0.0,0.0,0.0,0.0,0.0,0.0,0.0,0.0,0.0,0.0,0.0,0.0,0.0,0.0,0.0,0.0,0.0,0.0,0.0,0.0,0.0,0.0,0.0,0.0,0.0,0.0,0.0,0.0,0.0,0.0,0.0,0.0,0.0,0.0,0.0,0.0,0.0,0.0,0.0,0.0,0.0,0.0,0.0,0.0,0.0,0.0,0.0,0.0,0.0,0.0,0.0,0.0,0.0,0.0,0.0,0.0,0.0,0.0,0.0,0.0,0.0,-0.833,0.0,0.0,0.0,0.0,0.0,0.0,0.0,0.0,0.0,0.0,0.0,0.0,0.0,0.0,0.0,0.0,0.0,0.0,0.0,0.0,0.0,0.0,0.0,0.0,0.0,0.0,0.0,0.0,0.0,0.0,0.0,0.0,0.0,0.0,0.0,0.0,0.0,0.0,0.0,0.0,-1.1596,-1.3194,-1.4236,-1.4236,-1.4778,-1.5253,-1.5565,-1.5613,-1.5512,-1.5304,-1.423,0.0,0.0,0.0,0.0,0.0,0.0,0.0,0.0,0.0,0.0,0.0,0.0,0.0,0.0,0.0,0.0,0.0,0.0,0.0,0.0,0.0,0.0,0.0,0.0,0.0,0.0,0.0,0.0,0.0,0.0,0.0,0.0,0.0,0.0,0.0,0.0,0.0,0.0,0.0,0.0,0.0,0.0,0.0,0.0,0.0,0.0,0.0,0.0,0.0,0.0,0.0,0.0,0.0,0.0,0.0,-1.0747,-1.0747,-1.0581,-1.0283,-0.9804,-0.9344,-0.9005,0.0,0.0,0.0,0.0,0.0,0.0,0.0,0.0,0.0,0.0,0.0,0.0,0.0,0.0,0.0,0.0,0.0,0.0,0.0,0.0,0.0,0.0,0.0,0.0,0.0,-1.207,-1.2028,0.0,0.0,0.0,0.0,0.0,0.0,0.0,0.0,0.0,0.0,0.0,0.0,-1.2735,-1.4021,-1.4858,-1.4858,-1.5399,-1.5754,-1.5754,-1.6216,-1.63,-1.5869,-1.5349,-1.4419,0.0,0.0,0.0,0.0,0.0,0.0,0.0,0.0,0.0,0.0,0.0,0.0,0.0,0.0,0.0,0.0,0.0,0.0,0.0,0.0,0.0,0.0,0.0,0.0,0.0,0.0,0.0,0.0,0.0,0.0,0.0,0.0,-0.3602,-0.3897,0.0,0.0,0.0,0.0,0.0,0.0,0.0,0.0,0.0,0.0,0.0,0.0,0.0,0.0,-1.0412,-1.0707,-1.0842,-1.0882,-1.1169,-1.1275,-1.1275,-1.1275,-1.1255,-1.1216,-1.1136,0.0,-0.9583,-0.9615,0.0,0.0,0.0,0.0,0.0,0.0,0.0,0.0,0.0,0.0,0.0,0.0,0.0,0.0,0.0,0.0,0.0,0.0,0.0,0.0,0.0,0.0,-1.2729,-1.2729,-1.2778,-1.2768,0.0,-1.1631,-1.0684,-1.0224,0.0,0.0,0.0,0.0,0.0,0.0,0.0,0.0,-1.3773,-1.4825,-1.5477,-1.5477,-1.603,-1.638,-1.638,-1.6445,-1.6463,-1.6387,-1.5894,-1.5512,-1.5266,-1.3867,0.0,0.0,0.0,0.0,0.0,0.0,0.0,0.0,0.0,0.0,0.0,0.0,0.0,0.0,0.0,0.0,0.0,0.0,0.0,0.0,0.0,0.0,0.0,0.0,0.0,0.0,0.0,0.0,0.0,-0.3553,-0.3977,-0.4105,-0.4104,-0.4068,0.0,0.0,0.0,0.0,0.0,0.0,0.0,0.0,0.0,-1.0401,-1.0541,-1.0909,-1.153,-1.1503,-1.1685,-1.2013,-1.1937,-1.1917,-1.1917,-1.1917,-1.183,-1.167,-1.167,-1.1627,-1.1493,-1.1432,-1.1496,-1.1704,0.0,0.0,0.0,0.0,0.0,0.0,-1.293,0.0,0.0,0.0,0.0,0.0,0.0,0.0,0.0,0.0,0.0,0.0,0.0,0.0,0.0,-1.3232,-1.3047,-1.2905,-1.2905,-1.2432,-1.1885,0.0,-1.1193,-1.0964,-1.0766,0.0,0.0,0.0,0.0,0.0,-1.4848,-1.5648,-1.6117,-1.6117,-1.6337,-1.65,-1.65,-1.65,-1.65,-1.65,-1.6283,-1.6019,-1.5706,-1.5003,-1.4055,0.0,0.0,0.0,0.0,0.0,0.0,0.0,0.0,0.0,0.0,0.0,0.0,0.0,0.0,0.0,0.0,0.0,0.0,0.0,0.0,0.0,0.0,0.0,0.0,0.0,0.0,0.0,0.0,-0.3865,-0.421,-0.4271,-0.4433,-0.4574,0.0,0.0,0.0,0.0,0.0,0.0,-1.0,-1.0294,-1.0722,-1.1309,-1.1437,-1.179,-1.2525,-1.2325,-1.2469,-1.2898,-1.2596,-1.2418,-1.2412,-1.2338,-1.2184,-1.202,-1.202,-1.2508,-1.3279,-1.2885,-1.2789,-1.2977,-1.3419,-1.342,0.0,-1.3555,-1.3636,-1.3685,-1.3997,-1.4104,-1.4026,-1.3535,0.0,-1.2574,-1.1911,0.0,0.0,0.0,0.0,-1.335,-1.3948,0.0,-1.3506,-1.3506,-1.3184,-1.2905,-1.2905,-1.2905,-1.2807,0.0,-1.2152,-1.1848,-1.157,0.0,0.0,0.0,0.0,-1.4785,-1.579,-1.6237,-1.65,-1.65,-1.65,-1.65,-1.65,-1.65,-1.65,-1.65,-1.65,-1.6312,-1.5919,-1.5768,-1.5116,0.0,0.0,0.0,0.0,0.0,0.0,0.0,0.0,0.0,0.0,0.0,0.0,0.0,0.0,0.0,0.0,0.0,0.0,0.0,0.0,0.0,0.0,0.0,0.0,0.0,0.0,0.0,0.0,0.0,0.0,-0.4464,-0.4614,0.0,0.0,0.0,0.0,-0.8568,-0.9187,-0.9899,-1.0876,-1.1202,-1.1595,-1.2218,-1.2549,-1.2857,-1.316,-1.3146,-1.316,-1.318,-1.2911,-1.2764,-1.275,-1.2432,-1.2291,-1.2278,-1.2278,-1.31,-1.4331,-1.2979,-1.3094,-1.4087,-1.3861,-1.3894,-1.4046,-1.4065,-1.4075,-1.4075,-1.4104,-1.4104,-1.4172,-1.457,-1.4394,-1.4007,-1.3958,-1.3665,0.0,0.0,-1.4026,-1.4055,-1.4094,-1.3792,-1.3506,-1.3506,-1.3184,-1.2905,-1.2905,-1.2905,-1.2895,0.0,-1.2856,-1.2847,-1.2896,0.0,0.0,-1.4606,-1.5216,-1.5815,-1.6387,-1.6475,-1.65,-1.65,-1.65,-1.65,-1.65,-1.65,-1.65,-1.65,-1.65,-1.6488,-1.645,-1.5969,-1.5655,-1.558,-1.3458,0.0,0.0,0.0,0.0,0.0,0.0,0.0,0.0,0.0,0.0,0.0,0.0,0.0,0.0,0.0,0.0,0.0,0.0,0.0,0.0,0.0,0.0,0.0,0.0,0.0,0.0,0.0,0.0,-0.4863,-0.5026,0.0,0.0,-0.7226,-0.8195,-0.9418,-1.0451,-1.1281,-1.1817,-1.2118,-1.2465,-1.2872,-1.2993,-1.3186,-1.3447,-1.3307,-1.3307,-1.3447,-1.3186,-1.2978,-1.2784,-1.2677,-1.2485,-1.2342,-1.2952,-1.3886,-1.4948,-1.5061,-1.5394,-1.5771,-1.5413,-1.5332,-1.5342,-1.5059,-1.4933,-1.4933,-1.4933,-1.4933,-1.4903,-1.4824,-1.4492,-1.4104,-1.4104,-1.4007,-1.3977,-1.4434,-1.4551,-1.4619,-1.4855,-1.4648,-1.4258,-1.3948,-1.3584,-1.3213,-1.2964,-1.2905,-1.2905,-1.2905,-1.2905,-1.3036,-1.3507,-1.3713,-1.4194,-1.5214,-1.5529,-1.5831,-1.642,-1.65,-1.65,-1.65,-1.65,-1.65,-1.65,-1.65,-1.65,-1.65,-1.6183,-1.5994,-1.5994,-1.5475,-1.5009,-1.4676,-1.3504,-1.23,0.0,0.0,0.0,0.0,0.0,0.0,0.0,0.0,0.0,0.0,0.0,0.0,0.0,0.0,0.0,0.0,0.0,0.0,0.0,0.0,0.0,0.0,0.0,0.0,0.0,0.0,-0.4931,-0.5179,-0.5386,-0.5913,-0.6886,-0.8073,-0.9182,-1.0184,-1.1561,-1.2405,-1.2599,-1.2792,-1.3046,-1.3347,-1.3313,-1.3453,-1.3753,-1.3601,-1.3601,-1.3753,-1.3453,-1.32,-1.2938,-1.2831,-1.2623,-1.2342,-1.3273,-1.4279,-1.5269,-1.621,-1.6822,-1.7087,-1.6711,-1.6359,-1.6056,-1.5732,-1.5537,-1.541,-1.541,-1.541,-1.5371,-1.5088,-1.4805,-1.4533,-1.4533,-1.4533,-1.4591,-1.4912,-1.5,-1.5059,-1.5342,-1.5098,-1.4717,-1.4424,-1.3926,-1.3437,-1.3154,-1.3013,-1.2968,-1.3176,-1.319,-1.3351,-1.3779,-1.4156,-1.4677,-1.5532,-1.5798,-1.6051,-1.6445,-1.65,-1.65,-1.65,-1.65,-1.65,-1.65,-1.65,-1.65,-1.65,-1.617,-1.5969,-1.5969,-1.5462,-1.4997,-1.4651,-1.3885,-1.2852,-1.1533,0.0,0.0,0.0,0.0,0.0,0.0,0.0,0.0,0.0,0.0,0.0,0.0,0.0,0.0,0.0,0.0,0.0,0.0,0.0,0.0,0.0,0.0,0.0,-0.4691,-0.4962,-0.5203,-0.5395,-0.5633,-0.6169,-0.7032,-0.8564,-0.9921,-1.0933,-1.2354,-1.3213,-1.3227,-1.3227,-1.336,-1.3606,-1.362,-1.3753,-1.4082,-1.4088,-1.4088,-1.4082,-1.3753,-1.3467,-1.3213,-1.2951,-1.2643,-1.2385,-1.3324,-1.4322,-1.5269,-1.6245,-1.7173,-1.7969,-1.7549,-1.6887,-1.6134,-1.6124,-1.582,-1.5449,-1.5439,-1.543,-1.543,-1.5391,-1.541,-1.541,-1.541,-1.541,-1.541,-1.541,-1.541,-1.541,-1.541,-1.5107,-1.4833,-1.4785,-1.415,-1.3545,-1.3516,-1.3208,-1.3123,-1.3684,-1.3815,-1.3862,-1.3862,-1.4835,-1.561,-1.5632,-1.6129,0.0,-1.65,-1.65,-1.65,-1.65,-1.65,-1.65,-1.65,-1.65,-1.65,-1.65,-1.6475,-1.6475,-1.6475,-1.5957,-1.5668,-1.5668,-1.4639,-1.3803,-1.3223,0.0,0.0,0.0,0.0,0.0,0.0,0.0,0.0,0.0,0.0,0.0,0.0,0.0,0.0,0.0,0.0,0.0,0.0,0.0,0.0,0.0,0.0,-0.516,-0.5204,-0.5342,-0.5559,-0.5817,-0.5918,-0.6421,-0.7642,-0.8918,-1.0128,-1.1282,-1.2508,-1.326,-1.3473,-1.3487,-1.362,-1.3955,-1.3968,-1.4008,-1.4088,-1.4088,-1.4088,-1.4088,-1.4008,-1.3814,-1.348,-1.3393,-1.3113,-1.2732,-1.4378,-1.5114,-1.534,-1.6941,-1.7759,-1.7969,-1.7549,-1.7269,-1.7014,-1.667,-1.6443,-1.6287,-1.5996,-1.5919,-1.586,-1.5508,-1.541,-1.541,-1.541,-1.541,-1.541,-1.541,-1.541,-1.541,-1.541,-1.5322,-1.5156,-1.4863,-1.4637,-1.4268,-1.3643,-1.3766,-1.3958,-1.3818,-1.4503,-1.5118,-1.5118,-1.5387,-1.5742,-1.6194,0.0,0.0,-1.65,-1.65,-1.65,-1.65,-1.65,-1.65,-1.65,-1.65,-1.65,0.0,-1.6145,-1.5919,-1.5919,-1.5412,-1.511,-1.511,-1.445,-1.4009,0.0,0.0,0.0,0.0,0.0,0.0,0.0,0.0,0.0,0.0,0.0,0.0,0.0,0.0,0.0,0.0,0.0,0.0,0.0,0.0,0.0,0.0,-0.5254,-0.5603,-0.5633,-0.5718,-0.5861,-0.6098,-0.6179,-0.6539,-0.7383,-0.8559,-0.9785,-1.104,-1.2187,-1.3095,-1.3773,-1.3828,-1.3908,-1.4082,-1.4088,-1.4088,-1.4088,-1.4088,-1.4088,-1.4088,-1.4088,-1.3928,-1.36,-1.36,-1.3506,0.0,-1.4961,-1.5666,-1.5895,-1.7398,-1.8008,0.0,0.0,0.0,0.0,0.0,-1.6697,-1.6668,-1.6436,-1.6251,-1.6056,-1.5762,-1.5557,-1.541,-1.541,-1.541,-1.541,-1.541,-1.541,-1.541,-1.541,-1.541,-1.5352,-1.5107,-1.4775,-1.4375,-1.3851,-1.4129,-1.4412,-1.4217,0.0,0.0,-1.5979,-1.5986,-1.6095,-1.6457,-1.65,-1.65,0.0,-1.65,-1.65,-1.65,-1.65,-1.65,-1.65,-1.65,0.0,0.0,0.0,-1.5932,-1.5706,0.0,0.0,0.0,0.0,0.0,0.0,0.0,0.0,0.0,-1.4243,-1.471,0.0,0.0,0.0,0.0,0.0,0.0,0.0,0.0,0.0,0.0,0.0,0.0,0.0,0.0,0.0,0.0,-0.5555,-0.5881,-0.5996,-0.602,-0.6105,-0.6282,-0.6426,-0.6573,-0.6685,-0.7919,-0.9233,-1.0509,-1.1638,-1.2808,0.0,0.0,0.0,0.0,0.0,-1.4088,-1.4088,-1.4088,-1.4088,-1.4088,-1.4088,-1.3948,-1.3653,-1.3653,-1.3893,-1.4388,-1.5303,-1.6093,-1.6744,-1.768,-1.8057,-1.8008,-1.8008,-1.7783,-1.7402,-1.6989,-1.6843,0.0,0.0,0.0,0.0,-1.6105,-1.5762,-1.541,-1.541,-1.541,-1.541,-1.541,-1.541,-1.541,-1.541,-1.541,-1.54,-1.5352,-1.4738,-1.4163,-1.4114,-1.4456,-1.4801,-1.4862,-1.5753,-1.654,-1.6589,-1.6538,-1.65,-1.65,-1.65,0.0,-1.65,-1.65,-1.65,-1.65,0.0,0.0,-1.65,-1.65,-1.65,-1.65,-1.65,-1.6296,-1.5806,-1.5781,-1.5781,-1.5781,-1.5781,-1.6032,-1.65,-1.65,-1.65,-1.6463,-1.5035,-1.5414,0.0,0.0,0.0,0.0,0.0,0.0,0.0,0.0,0.0,0.0,0.0,0.0,0.0,0.0,0.0,-0.562,-0.5847,-0.604,-0.6235,-0.6255,-0.6265,-0.6296,-0.6426,-0.6573,-0.6685,-0.7919,-0.9233,-1.0509,-1.1638,-1.2808,-1.4039,-1.4088,0.0,-1.4088,-1.4088,-1.4088,-1.4088,-1.4088,-1.4088,-1.4088,0.0,0.0,-1.4001,-1.4001,-1.4406,-1.5142,-1.6061,-1.6723,-1.717,-1.8085,-1.8286,-1.8008,-1.8008,-1.7959,-1.7881,-1.7793,-1.7764,-1.7715,-1.7373,-1.6973,-1.6543,-1.6212,-1.5762,-1.541,-1.541,-1.541,0.0,-1.541,-1.541,-1.541,-1.541,-1.541,-1.5322,-1.498,-1.4775,-1.4561,-1.4182,-1.5039,-1.5884,-1.5919,-1.6598,-1.7212,-1.7225,-1.6823,-1.65,-1.65,-1.65,-1.65,-1.65,-1.65,-1.65,-1.65,-1.65,-1.65,-1.65,-1.65,-1.65,-1.65,-1.65,-1.645,-1.6337,-1.6337,-1.6337,-1.6337,-1.6337,-1.6387,-1.65,-1.65,-1.65,-1.6488,-1.6183,-1.6744,0.0,0.0,0.0,0.0,0.0,0.0,0.0,0.0,0.0,0.0,0.0,-0.4891,-0.5199,0.0,-0.5654,-0.5878,-0.6044,-0.6173,-0.6289,-0.63,-0.63,-0.63,-0.6426,-0.6573,-0.6685,-0.7919,-0.9233,-1.0509,-1.1638,-1.2808,-1.4039,-1.4088,-1.4088,-1.4088,-1.4088,-1.4088,-1.4088,-1.4088,-1.4088,-1.4088,-1.4088,-1.4088,-1.4088,-1.4088,-1.449,-1.5258,-1.6269,-1.6864,-1.7162,-1.798,-1.8159,-1.8008,-1.8008,-1.8008,-1.8008,-1.8008,-1.8008,-1.7978,-1.7773,-1.7412,-1.6982,-1.6543,-1.625,-1.5966,-1.5547,-1.5566,-1.5693,-1.5469,-1.541,-1.541,-1.541,-1.541,-1.5361,-1.5146,-1.4775,-1.4463,-1.4463,-1.5111,-1.5811,-1.6126,-1.6773,-1.7271,-1.738,-1.6898,-1.65,-1.65,-1.65,-1.65,-1.65,-1.65,-1.65,-1.65,-1.65,-1.65,-1.65,-1.65,-1.65,-1.65,-1.65,-1.65,-1.65,-1.65,-1.65,-1.65,-1.65,-1.65,-1.65,-1.65,-1.6672,-1.6948,-1.6948,-1.7406,0.0,0.0,0.0,0.0,0.0,0.0,0.0,0.0,-0.4754,-0.5026,-0.515,-0.5312,-0.5623,-0.5769,-0.5895,-0.6051,-0.6179,-0.63,-0.63,-0.63,-0.63,-0.63,-0.6426,-0.6573,-0.6685,-0.7708,-0.8977,-1.0504,-1.1466,-1.2595,-1.3997,-1.4088,-1.4088,-1.4088,-1.4088,-1.4088,-1.4088,-1.4088,-1.4088,-1.4088,-1.4088,-1.4088,-1.4088,-1.4088,-1.4518,-1.5267,-1.6426,-1.7113,-1.7487,-1.7858,-1.8008,-1.8008,-1.8008,-1.8008,-1.8008,-1.8008,-1.8008,-1.8008,-1.8008,-1.7734,-1.7314,-1.6843,-1.6638,-1.6455,-1.5654,-1.5654,-1.5889,-1.5508,-1.541,-1.541,-1.541,-1.541,-1.5391,-1.5312,-1.4738,-1.4328,-1.4707,-1.5178,-1.5732,-1.6357,-1.701,-1.7521,-1.7672,-1.7225,-1.6751,-1.6525,-1.65,-1.65,-1.65,-1.65,-1.65,-1.65,-1.65,-1.65,-1.65,-1.65,-1.65,-1.65,-1.65,-1.65,-1.65,-1.65,-1.65,-1.65,-1.65,-1.65,-1.65,-1.6613,-1.6977,-1.7587,-1.7816,-1.8137,0.0,-0.098,-0.2433,-0.4172,-0.4556,-0.4641,0.0,0.0,-0.5378,-0.564,-0.5715,-0.5779,-0.5912,-0.5956,-0.6054,-0.6248,-0.6289,-0.63,-0.63,-0.63,-0.63,-0.63,-0.6426,-0.6573,-0.6685,-0.6964,-0.8092,-1.0423,-1.074,-1.1778,-1.3997,-1.4088,-1.4088,-1.4088,-1.4088,-1.4088,-1.4088,-1.4088,-1.4088,-1.4088,-1.4088,-1.4088,-1.4088,-1.4088,-1.4678,-1.5696,-1.7017,-1.8137,-1.8996,-1.827,-1.8008,-1.8008,-1.8008,-1.8008,-1.8008,-1.8008,-1.8008,-1.8008,-1.8008,-1.7734,-1.7314,-1.6843,-1.6465,-1.6075,-1.5557,-1.5449,-1.5478,-1.542,-1.541,-1.541,-1.541,-1.541,-1.5312,-1.4941,-1.4785,-1.4727,-1.4803,-1.5842,-1.6934,-1.7359,-1.8166,-1.8784,-1.8832,-1.8356,-1.7677,-1.6651,-1.65,-1.65,-1.65,-1.65,-1.65,-1.65,-1.65,-1.65,-1.65,-1.65,-1.65,-1.65,-1.65,-1.65,-1.65,-1.65,-1.65,-1.65,-1.65,-1.65,-1.65,-1.7036,-1.7622,-1.8218,-1.9229,-1.9732,-0.1043,-0.1821,0.0,0.0,-0.4772,-0.4955,-0.5399,-0.544,-0.5504,-0.5854,-0.5899,-0.5979,-0.6135,-0.6166,-0.6213,0.0,-0.6422,-0.6422,-0.6422,-0.6422,-0.6392,-0.631,-0.6426,-0.6573,-0.6685,-0.7371,-0.8565,-1.0456,-1.1209,-1.2334,-1.3997,-1.4088,-1.4088,-1.4088,-1.4088,-1.4088,-1.4088,-1.4088,-1.4088,-1.4088,-1.4088,-1.4088,-1.4088,-1.4088,-1.5026,-1.6659,-1.6977,-1.7936,-1.9238,-1.8623,-1.8198,-1.8008,-1.8008,-1.8008,-1.8008,-1.8008,-1.8008,-1.8008,-1.8008,-1.79,-1.7676,-1.7246,-1.6982,-1.6731,-1.6036,-1.5821,-1.5732,-1.5488,-1.541,-1.541,-1.541,-1.541,-1.5477,-1.5727,-1.5614,-1.5619,-1.6293,-1.6731,-1.7247,-1.8074,-1.8298,-1.8509,-1.8921,-1.8568,-1.8041,-1.7576,-1.7225,-1.7024,-1.7024,-1.6722,-1.65,-1.65,-1.65,-1.65,-1.65,-1.65,-1.65,-1.65,-1.65,-1.65,-1.65,-1.65,-1.65,-1.65,-1.65,-1.6663,-1.7024,-1.7285,-1.8042,-1.9303,-1.9784,-2.0546,-0.1542,0.0,0.0,-0.4153,-0.4784,-0.515,-0.5412,-0.5457,-0.5562,-0.5891,-0.5929,-0.6013,-0.6169,-0.6235,0.0,-0.6429,-0.6487,-0.6497,-0.646,-0.6487,-0.646,-0.6317,-0.6426,-0.6573,-0.6685,-0.7473,-0.8699,-1.0451,-1.1338,-1.251,-1.3997,-1.4088,-1.4088,-1.4088,-1.4088,-1.4088,-1.4088,-1.4088,-1.4088,-1.4088,-1.4088,-1.4088,-1.413,-1.4412,-1.5553,-1.7277,-1.7175,-1.7966,-1.9248,-1.8783,-1.8354,-1.8008,-1.8008,-1.8008,-1.8008,-1.8008,-1.8008,-1.8008,-1.8008,-1.8008,-1.7939,-1.7519,-1.7305,-1.7061,-1.633,-1.6007,-1.585,-1.5498,-1.541,-1.541,-1.541,-1.541,-1.5584,-1.6312,-1.6276,-1.6356,-1.739,-1.7542,-1.7724,-1.8537,-1.8548,-1.8578,-1.9133,-1.8882,-1.8643,-1.8643,-1.8179,-1.7727,-1.7448,-1.6873,-1.65,-1.65,-1.65,-1.65,-1.65,-1.65,-1.65,-1.65,-1.65,-1.65,-1.65,-1.65,-1.65,-1.65,-1.65,-1.6885,-1.7642,-1.7795,-1.8702,-2.0244,-2.0392,-2.1184,0.0,0.0,-0.271,-0.3593,-0.448,-0.5177,-0.5515,-0.5583,-0.5627,-0.5776,-0.581,-0.5857,-0.5973,-0.6,-0.6088,-0.6282,-0.6422,-0.6463,-0.6327,-0.6426,-0.646,-0.6317,-0.6426,-0.6573,0.0,-0.6834,-0.7959,-1.0423,-1.0611,-1.1649,-1.3997,-1.4088,-1.4088,-1.4088,-1.4088,-1.4088,-1.4088,-1.4088,-1.4088,-1.4088,-1.4088,-1.4088,-1.413,-1.5179,-1.6232,-1.7358,-1.7978,-1.8638,-1.9248,-1.8783,-1.8354,-1.8008,-1.8008,-1.8008,-1.8008,-1.8008,-1.8008,-1.8008,-1.8008,-1.8008,-1.7939,-1.7519,-1.71,-1.6638,-1.6232,-1.5762,-1.543,-1.5391,-1.541,-1.541,-1.541,-1.541,-1.5584,-1.6312,-1.6472,-1.6687,-1.744,-1.8155,-1.8664,-1.8688,-1.9268,-1.9747,-1.9773,-1.9761,-1.9748,-1.9748,-1.9284,-1.8569,-1.7513,-1.6873,-1.65,-1.65,-1.65,-1.65,-1.65,-1.65,-1.65,-1.65,-1.65,-1.65,-1.65,-1.65,-1.65,-1.65,-1.65,-1.7085,-1.8278,-1.8791,-1.9683,-2.0891,-2.142,-2.1683,0.0,0.0,-0.2063,-0.3544,-0.4148,-0.4623,-0.554,-0.5657,-0.563,-0.5772,-0.5728,-0.5705,-0.585,-0.5878,-0.5962,-0.6255,-0.6504,-0.6607,-0.6559,-0.6681,-0.6719,-0.6569,-0.6685,0.0,0.0,0.0,0.0,-0.9348,-1.0183,-1.1257,-1.2808,-1.3646,-1.4088,-1.4088,-1.4275,-1.4376,-1.4376,-1.4569,-1.4569,-1.4369,-1.4182,-1.4088,-1.413,-1.5213,-1.6273,-1.7334,-1.8338,-1.9122,-1.9668,-1.9238,-1.8818,-1.8364,-1.8081,-1.8008,-1.8008,-1.8008,-1.8008,-1.8008,-1.8008,-1.8008,-1.7988,-1.7842,-1.751,-1.708,-1.6641,-1.6191,-1.5811,-1.5498,-1.541,-1.541,-1.541,-1.541,-1.5584,-1.6312,-1.6492,-1.6849,-1.8058,-1.8528,-1.8847,-1.9333,-1.9631,-1.9798,-1.9798,-1.9798,-1.9798,-1.9798,-1.9334,-1.8607,-1.7549,-1.7212,-1.6936,-1.6538,-1.65,-1.65,-1.65,-1.65,-1.65,-1.65,-1.6886,-1.7087,-1.7087,-1.7438,-1.7639,-1.7639,-1.7639,-1.7996,-1.8763,-1.8944,-1.9664,-2.0845,-2.1032,-2.1571,-0.0574,-0.0989,-0.1577,-0.2744,-0.3572,-0.4255,-0.4997,-0.537,-0.5586,-0.5566,-0.5488,-0.5454,-0.5545,-0.5562,-0.5681,-0.6074,-0.6349,-0.6563,-0.6614,-0.6797,-0.6829,-0.6719,-0.6878,-0.6943,0.0,0.0,0.0,-0.8798,-0.9966,-1.116,-1.2414,-1.3617,-1.4289,-1.4439,-1.4583,-1.4676,-1.4676,-1.4914,-1.4816,-1.4516,-1.4222,-1.4088,-1.413,-1.5628,-1.6642,-1.7374,-1.8917,-1.9686,-1.9883,-1.9463,-1.9033,-1.8559,-1.8174,-1.8008,-1.8008,-1.8008,-1.8008,-1.8008,-1.8008,-1.8008,-1.8008,-1.8008,-1.7725,-1.7305,-1.6833,-1.6416,-1.6007,-1.5537,-1.541,-1.541,-1.541,-1.541,-1.5584,-1.6312,-1.6492,-1.6838,-1.8043,-1.8501,-1.8847,-1.9307,-1.9605,-1.9798,-1.9798,-1.9798,-1.9798,-1.9798,-1.9522,-1.8982,-1.8091,-1.7626,-1.726,-1.6861,-1.6635,-1.65,-1.65,-1.671,-1.6823,-1.6823,-1.7363,-1.7677,-1.7677,-1.8016,-1.8204,-1.8204,-1.8204,-1.8587,-1.9375,-1.9375,-1.9975,-2.1113,-2.1113,-2.169,0.0,-0.0594,-0.1256,-0.1289,-0.2711,-0.4039,-0.4007,-0.4775,-0.5413,-0.5157,-0.5086,-0.5079,0.0,0.0,-0.5241,-0.5718,-0.6098,-0.6361,-0.6504,-0.6753,-0.6895,0.0,0.0,0.0,0.0,0.0,0.0,-0.8756,0.0,-1.1158,-1.2633,-1.3818,-1.4581,-1.5001,-1.5022,-1.5028,-1.5028,-1.5028,-1.4836,-1.4536,-1.4249,-1.4102,-1.4173,-1.6322,-1.7302,-1.7415,-1.9638,-2.037,-1.9912,-1.9473,-1.9043,-1.8588,-1.8184,-1.8008,-1.8008,-1.8008,-1.8008,-1.8008,-1.8008,-1.8008,-1.8008,-1.8008,-1.7744,-1.7334,-1.6863,-1.6455,-1.6036,-1.5566,-1.543,-1.541,-1.541,-1.541,-1.5584,-1.6312,-1.6492,-1.6708,-1.7495,-1.8205,-1.8715,-1.8741,-1.9307,-1.9798,-1.9798,-1.9798,-1.9798,-1.9798,-1.9798,-1.961,-1.907,-1.8116,-1.7473,-1.7448,-1.6936,-1.6588,-1.6588,-1.7112,-1.7448,-1.7448,-1.794,-1.8242,-1.8242,-1.8279,-1.8292,-1.8292,-1.8292,-1.8853,-2.0049,-2.0049,-2.061,-2.1697,-2.1687,-2.203,0.0,-0.0175,-0.0515,-0.1331,-0.1797,-0.2427,-0.3815,-0.4217,-0.4405,-0.4986,-0.4955,-0.484,-0.4921,0.0,0.0,-0.5589,-0.6115,0.0,-0.662,-0.7,0.0,-0.7004,0.0,-0.7424,-0.7275,-0.7431,0.0,0.0,-0.8898,-1.015,-1.1591,-1.2739,-1.3873,-1.4963,-1.517,-1.5284,-1.5284,-1.5284,-1.5137,-1.4888,-1.4549,-1.4295,-1.4173,-1.6322,-1.7302,-1.7415,-1.9638,-2.0537,-2.038,-1.959,-1.9219,-1.9043,-1.8301,-1.8008,-1.8008,-1.8008,-1.8008,-1.8008,-1.8008,-1.8008,-1.8008,-1.8008,-1.7939,-1.7773,-1.7344,-1.6914,-1.6465,-1.6056,-1.5664,-1.541,-1.541,-1.541,-1.5584,-1.6312,-1.6492,-1.6838,-1.8151,-1.8581,-1.8847,-1.9423,-1.9669,-1.9798,-1.9798,-1.9798,-1.9798,-1.9798,-1.9798,-1.961,-1.907,-1.8757,-1.8455,-1.8041,-1.7865,-1.7777,-1.7777,-1.7915,-1.8003,-1.8003,-1.8505,-1.8795,-1.8795,-1.9196,-1.9397,-1.9397,-1.9397,-1.9798,-2.0609,-2.0609,-2.0979,-2.1697,-2.1245,-2.1619,0.0,0.0,-0.0151,-0.0756,-0.1159,-0.169,-0.2691,-0.3411,-0.4006,-0.4353,-0.4565,0.0,-0.4714,0.0,0.0,0.0,0.0,0.0,-0.6661,-0.7088,-0.7339,0.0,-0.7509,0.0,-0.7485,-0.7604,-0.7692,0.0,-0.8606,-0.9861,-1.1414,-1.2583,-1.3838,-1.5291,-1.5504,-1.5585,-1.5585,-1.5337,-1.5169,-1.5001,-1.4536,-1.4249,-1.4166,-1.5835,-1.6846,-1.7415,0.0,-2.0157,-2.0537,-1.9639,-1.9287,-1.9199,-1.835,-1.8008,-1.8008,-1.8008,-1.8008,-1.8008,-1.8008,-1.8008,-1.8008,-1.8008,-1.8008,-1.793,-1.751,-1.708,-1.6609,-1.6222,-1.5752,-1.541,-1.541,-1.541,-1.5584,-1.6312,-1.6492,-1.6821,-1.7977,-1.8474,-1.8927,-1.9669,-1.9798,-1.9798,-1.9798,-1.9798,-1.9798,-1.9798,-1.9798,-1.9698,-1.9384,-1.9146,-1.8882,-1.8569,-1.8355,-1.8204,-1.8204,-1.843,-1.8544,-1.8544,-1.9045,-1.9334,-1.9334,-1.9648,-1.9798,-1.9798,-1.9798,-2.0003,-2.0346,-2.0346,-2.0683,-2.1293,-2.0955,-2.1307,0.0,0.0,0.0,0.0,-0.0716,-0.1372,-0.1302,-0.2506,-0.3593,-0.3488,0.0,-0.4502,-0.4373,-0.4529,-0.4866,-0.532,0.0,-0.6124,-0.6634,-0.7068,-0.735,-0.7415,-0.7631,-0.7763,-0.7641,-0.7756,-0.7841,-0.7841,-0.8617,-0.9909,-1.1642,-1.2645,-1.3979,-1.5724,-1.5784,-1.5764,-1.5772,-1.5277,-1.5028,-1.4941,-1.4389,-1.4122,-1.413,-1.5213,-1.6191,-1.7131,0.0,0.0,-2.0217,-1.9424,-1.9139,-1.9121,-1.832,-1.8008,-1.8008,-1.8008,-1.8008,-1.8008,-1.8008,-1.8008,-1.8008,-1.8008,-1.8008,-1.7939,-1.7578,-1.7168,-1.6697,-1.631,-1.584,-1.5488,-1.543,-1.541,-1.5584,-1.6312,-1.6492,-1.6736,-1.7578,-1.834,-1.9044,-1.9669,-1.9798,-1.9798,-1.9798,-1.9798,-1.9798,-1.9798,-1.9798,-1.9798,-1.9798,-1.9384,-1.9108,-1.9108,-1.8682,-1.8417,-1.8417,-1.8832,-1.9108,-1.9108,-1.9547,-1.9798,-1.9798,-1.9798,-1.9798,-1.9798,-1.9798,-1.985,-1.9927,-1.9927,-2.027,-2.0919,-2.0845,-2.1113,0.0,0.0,0.0,0.0,-0.0149,-0.047,-0.1129,-0.146,0.0,0.0,0.0,-0.3593,-0.3514,-0.4156,0.0,-0.532,0.0,0.0,0.0,0.0,-0.7227,0.0,0.0,0.0,0.0,0.0,0.0,0.0,0.0,0.0,-1.1739,-1.2035,-1.3262,-1.573,-1.5784,-1.5712,-1.5471,-1.5371,-1.5077,-1.4596,-1.4496,-1.4315,-1.413,-1.5213,-1.5779,-1.6026,0.0,0.0,-1.8656,-1.8162,-1.8255,-1.8666,-1.8203,-1.8008,-1.8008,-1.8008,-1.8008,-1.8008,-1.8008,-1.8008,-1.8008,-1.8008,-1.8008,-1.7998,-1.793,-1.7607,-1.7178,-1.6707,-1.6299,-1.5899,-1.5508,-1.541,-1.5584,-1.6312,-1.6492,-1.6866,-1.8232,-1.9097,-1.9643,-1.9773,-1.9798,-1.9798,-1.9798,-1.9798,-1.9798,-1.9798,-1.9798,-1.9798,-1.9798,-1.9723,-1.966,-1.966,-1.9585,-1.9522,-1.9522,-1.961,-1.966,-1.966,-1.9748,-1.9798,-1.9798,-1.9798,-1.9798,-1.9798,-1.9798,-2.0067,-2.0635,-2.0635,-2.0942,-2.152,-2.1028,-2.1113,0.0,0.0,0.0,0.0,0.0,-0.0106,-0.0533,0.0,0.0,0.0,0.0,-0.2871,-0.3231,0.0,0.0,0.0,0.0,0.0,0.0,0.0,0.0,0.0,0.0,0.0,0.0,0.0,0.0,0.0,0.0,0.0,0.0,-1.2108,-1.3632,-1.5338,-1.5524,-1.5464,-1.517,-1.5017,-1.4796,-1.4516,-1.4369,-1.4222,-1.413,-1.4608,-1.5179,-1.5779,0.0,0.0,0.0,-1.8564,-1.8715,-1.8906,-1.8262,-1.8008,-1.8008,-1.8008,-1.8008,-1.8008,-1.8008,-1.8008,-1.8008,-1.8008,-1.8008,-1.8008,-1.8008,-1.7715,-1.7295,-1.6824,-1.6406,-1.5987,-1.5527,-1.541,-1.5584,-1.6312,-1.709,-1.7852,-1.8555,-1.9281,-1.9798,-1.9798,-1.9798,-1.9798,-1.9798,-1.9798,-1.9798,-1.9798,-1.9798,-1.9798,-1.9798,-1.9798,-1.9798,-1.9798,-1.9798,-1.9798,-1.9798,-1.9547,-1.9484,-1.9786,-1.9547,-1.9522,-1.9798,-1.9798,-1.9798,-1.9798,-1.9798,-1.9952,-2.0283,-2.0283,-2.0434,-2.0706,-2.0408,-2.0434,0.0,0.0,0.0,0.0,0.0,0.0,0.0,-0.046,0.0,0.0,-0.1452,-0.2148,-0.273,0.0,0.0,0.0,0.0,0.0,0.0,0.0,0.0,0.0,0.0,0.0,0.0,0.0,0.0,0.0,0.0,0.0,0.0,-1.2229,-1.3897,-1.4604,-1.5093,-1.5164,-1.4914,-1.4636,-1.4489,-1.4429,-1.4195,-1.4088,-1.4088,-1.4088,-1.4573,-1.5421,0.0,0.0,0.0,-1.8836,-1.9047,-1.9072,-1.8311,-1.8008,-1.8008,-1.8008,-1.8008,-1.8008,-1.8008,-1.8008,-1.8008,-1.8008,-1.8008,-1.8008,-1.8008,-1.7783,-1.7412,-1.6853,-1.6475,-1.6114,-1.5547,-1.541,-1.5584,-1.6312,-1.7495,-1.8501,-1.8661,-1.9281,-1.9798,-1.9798,-1.9798,-1.9798,-1.9798,-1.9798,-1.9798,-1.9798,-1.9798,-1.9798,-1.9798,-1.971,-1.9635,-1.9635,-1.9736,-1.9798,-1.9798,-1.9309,-1.9221,-1.9773,-1.9284,-1.9233,-1.9786,-1.9798,-1.9798,-1.9798,-1.9798,-1.9798,-1.9798,-1.9798,-1.9798,-1.9798,-1.9798,-1.9798,0.0,0.0,0.0,0.0,0.0,0.0,0.0,0.0,0.0,-0.0113,-0.0699,-0.1229,-0.1284,-0.246,0.0,0.0,0.0,0.0,0.0,0.0,0.0,0.0,0.0,0.0,0.0,0.0,0.0,0.0,0.0,0.0,0.0,-1.1976,-1.3286,-1.3353,-1.4437,-1.4863,-1.4563,-1.4536,-1.4389,-1.4128,-1.4102,-1.4088,-1.4088,-1.4088,-1.4166,-1.4292,0.0,0.0,0.0,-1.7608,-1.8164,-1.8617,-1.8184,-1.8008,-1.8008,-1.8008,-1.8008,-1.8008,-1.8008,-1.8008,-1.8008,-1.8008,-1.8008,-1.8008,-1.8008,-1.7978,-1.7783,-1.6931,-1.6668,-1.6443,-1.5635,-1.541,-1.5584,-1.6312,-1.7118,-1.7868,-1.8555,-1.9281,-1.9798,-1.9798,-1.9798,-1.9798,-1.9798,-1.9798,-1.9798,-1.9798,-1.9798,-1.9798,-1.9798,-1.9359,-1.907,-1.907,-1.9522,-1.9798,-1.9798,-1.9309,-1.9221,-1.9773,-1.9284,-1.9233,-1.9786,-1.9798,-1.9798,-1.9798,-1.9798,-1.9798,-1.9798,-1.9798,-1.9798,-1.9798,-1.9798,-1.9798,0.0,0.0,0.0,0.0,0.0,0.0,0.0,0.0,0.0,0.0,-0.0224,-0.056,-0.1006,-0.1952,-0.2867,0.0,-0.4222,-0.4904,-0.5383,0.0,0.0,0.0,0.0,0.0,0.0,0.0,0.0,0.0,0.0,0.0,0.0,0.0,-1.2248,-1.2651,-1.3969,-1.4556,-1.4262,-1.4262,-1.4202,-1.4088,-1.4088,-1.4088,-1.4088,-1.4088,-1.4088,0.0,0.0,0.0,0.0,-1.7211,-1.7734,-1.7761,-1.7923,-1.8008,-1.8008,-1.8008,-1.8008,-1.8008,-1.8008,-1.8008,-1.7969,-1.7715,-1.7803,-1.8008,-1.8008,-1.8008,-1.7891,-1.7295,-1.6934,-1.656,-1.5967,-1.5948,-1.6151,-1.6425,-1.7413,-1.8328,-1.8635,-1.9281,-1.9798,-1.9798,-1.9798,-1.9798,-1.9798,-1.9798,-1.9798,-1.9798,-1.9798,-1.9798,-1.9798,-1.9321,-1.9008,-1.9008,-1.8882,-1.8982,-1.9284,-1.8543,-1.8543,-1.9723,-1.8983,-1.8882,-1.9761,-1.9798,-1.9798,-1.9798,-1.9798,-1.9798,-1.9798,-1.9798,-1.9798,-1.9798,-1.9798,-1.9798,0.0,0.0,0.0,0.0,0.0,0.0,0.0,0.0,0.0,0.0,0.0,-0.0168,-0.0671,-0.1368,-0.2063,0.0,-0.3568,-0.4362,-0.4782,0.0,0.0,0.0,0.0,0.0,0.0,0.0,0.0,0.0,0.0,0.0,0.0,0.0,-1.1363,-1.1783,-1.3127,-1.3932,-1.4088,-1.4088,-1.4088,-1.4088,-1.4088,-1.4088,-1.4088,-1.4088,-1.4088,0.0,0.0,0.0,0.0,-1.7021,-1.7513,-1.7252,-1.7785,-1.8008,-1.8008,-1.8008,-1.8008,-1.8008,-1.8008,-1.8008,-1.7959,-1.7666,-1.7773,-1.8008,-1.8008,-1.8008,-1.79,-1.7344,-1.6777,-1.6239,-1.5987,-1.6046,-1.6236,-1.6464,-1.7302,-1.8124,-1.834,-1.8768,-1.9202,-1.9423,-1.9475,-1.9527,-1.9747,-1.9798,-1.9798,-1.9798,-1.9798,-1.9748,-1.9597,-1.9083,-1.8694,-1.8531,-1.8041,-1.8003,-1.8694,-1.8078,-1.8179,-1.9484,-1.8832,-1.8857,-1.9761,-1.9798,-1.9798,-1.9798,-1.9798,-1.9798,-1.9798,-1.9798,-1.9798,-1.9798,-1.9798,-1.9798,0.0,0.0,0.0,0.0,0.0,0.0,0.0,0.0,0.0,0.0,0.0,0.0,0.0,-0.0615,-0.1118,-0.1118,-0.2523,-0.3753,-0.4167,0.0,0.0,0.0,0.0,0.0,0.0,0.0,0.0,0.0,0.0,0.0,0.0,0.0,-1.076,-1.0616,-1.1729,-1.2899,-1.4088,-1.4088,-1.4088,-1.4088,-1.4088,-1.4088,-1.4088,-1.4088,0.0,0.0,0.0,0.0,0.0,-1.7021,-1.7513,-1.7252,-1.7785,-1.8008,-1.8008,-1.8008,-1.8008,-1.8008,-1.8008,-1.8008,-1.8008,-1.8008,-1.8008,-1.8008,-1.8008,-1.8008,-1.7832,-1.6941,-1.6073,-1.542,-1.542,-1.541,-1.5613,-1.6322,-1.651,-1.6708,-1.744,-1.7633,-1.7852,-1.8581,-1.8715,-1.8927,-1.9669,-1.9798,-1.9798,-1.9798,-1.9798,-1.961,-1.9083,-1.8531,-1.8003,-1.7473,-1.6886,-1.6964,-1.8116,-1.8204,-1.8442,-1.897,-1.9008,-1.9221,-1.9773,-1.9798,-1.9798,-1.9798,-1.9798,-1.9798,-1.9798,-1.9798,-1.9798,-1.9798,-1.9798,-1.9798,-0.0903,-0.0738,-0.0627,-0.0127,0.0,0.0,0.0,0.0,0.0,0.0,0.0,0.0,0.0,-0.0616,-0.1106,-0.1098,-0.1955,0.0,0.0,0.0,0.0,0.0,0.0,0.0,0.0,0.0,0.0,0.0,0.0,0.0,0.0,0.0,0.0,-1.0572,-1.2516,-1.3688,-1.4088,-1.4088,-1.4088,-1.4088,-1.4088,-1.4088,-1.4088,0.0,0.0,0.0,0.0,0.0,0.0,-1.588,-1.6468,-1.6853,-1.767,-1.8008,-1.8008,-1.8008,-1.8008,-1.8008,-1.8008,-1.8008,-1.791,-1.7291,-1.7344,-1.7471,-1.6897,-1.7132,-1.7402,-1.6555,-1.6105,-1.5791,-1.5488,-1.5777,-1.6208,-1.6436,-1.6894,-1.7302,-1.755,-1.8015,-1.8409,-1.8661,-1.9123,-1.9527,-1.9747,-1.9798,-1.9798,-1.9798,-1.9798,-1.961,-1.907,-1.8519,-1.799,-1.7461,-1.6861,-1.6801,-1.7576,-1.7287,-1.7591,-1.892,-1.8657,-1.8869,-1.9761,-1.9798,-1.9798,-1.9798,-1.9798,-1.9798,-1.9798,-1.9798,-1.9798,-1.9798,-1.9798,-1.9798,0.0,-0.1103,-0.091,-0.0185,0.0,0.0,0.0,0.0,0.0,0.0,0.0,0.0,0.0,-0.0364,-0.068,-0.068,-0.129,0.0,0.0,0.0,0.0,0.0,0.0,0.0,0.0,0.0,0.0,0.0,0.0,0.0,0.0,0.0,0.0,-1.0529,-1.1997,-1.3215,-1.4088,-1.4088,-1.4088,-1.4088,-1.4088,-1.4088,-1.4082,0.0,0.0,0.0,0.0,0.0,0.0,-1.4757,-1.5485,-1.6184,-1.7104,-1.7681,-1.8008,-1.8008,-1.8008,-1.8008,-1.8008,-1.8008,-1.792,-1.736,-1.7295,-1.7249,-1.6359,-1.6476,-1.6799,-1.6251,-1.5977,-1.5782,-1.5488,-1.5748,-1.6093,-1.6093,-1.6443,-1.6771,-1.6771,-1.7346,-1.795,-1.8221,-1.8874,-1.9475,-1.9747,-1.9798,-1.9798,-1.9798,-1.9635,-1.9284,-1.8757,-1.8242,-1.7677,-1.7112,-1.6713,-1.6638,-1.7024,-1.7112,-1.7491,-1.8355,-1.8656,-1.902,-1.9497,-1.9698,-1.9798,-1.9798,-1.9798,-1.9798,-1.9798,-1.9798,-1.9798,-1.9798,-1.9798,-1.9798,0.0,-0.1197,-0.1002,-0.0274,-0.003,0.0,0.0,0.0,0.0,0.0,0.0,0.0,0.0,0.0,0.0,0.0,0.0,0.0,0.0,0.0,0.0,0.0,0.0,0.0,0.0,0.0,0.0,0.0,0.0,0.0,0.0,0.0,0.0,0.0,-1.0537,-1.1718,-1.4088,-1.4088,-1.4088,-1.4088,-1.4088,-1.4075,-1.4048,0.0,0.0,0.0,0.0,0.0,0.0,-1.3803,-1.4566,-1.5305,-1.6245,-1.7139,-1.7906,-1.7974,-1.8008,-1.8008,-1.8008,-1.8008,-1.7998,-1.7939,-1.7637,-1.7161,-1.631,-1.6065,-1.6085,-1.6056,-1.5723,-1.541,-1.541,-1.541,-1.541,-1.541,-1.541,-1.541,-1.541,-1.5979,-1.6708,-1.7385,-1.8167,-1.8927,-1.9605,-1.9773,-1.9798,-1.9798,-1.9334,-1.8807,-1.8279,-1.7714,-1.7162,-1.655,-1.65,-1.6513,-1.655,-1.7539,-1.794,-1.7498,-1.8894,-1.9547,-1.9083,-1.9547,-1.9798,-1.9798,-1.9798,-1.9798,-1.9798,-1.9798,-1.9798,-1.9798,-1.9798,-1.9798,-0.2929,0.0,-0.1754,-0.1028,-0.0428,0.0,0.0,0.0,0.0,0.0,0.0,0.0,0.0,0.0,0.0,0.0,0.0,0.0,0.0,0.0,0.0,0.0,0.0,0.0,0.0,0.0,0.0,0.0,0.0,0.0,0.0,0.0,0.0,0.0,-0.9927,-1.1629,-1.4088,-1.4088,-1.4088,-1.4088,-1.4088,-1.3968,0.0,0.0,0.0,0.0,0.0,0.0,0.0,-1.3815,-1.4348,-1.5305,-1.6245,-1.674,-1.7035,-1.7759,-1.8008,-1.8008,-1.8008,-1.8008,-1.79,-1.7213,-1.6728,-1.63,-1.5732,-1.5831,-1.6026,-1.5664,-1.5488,-1.541,-1.541,-1.541,-1.541,-1.541,-1.541,-1.541,-1.541,-1.5979,-1.6539,-1.6708,-1.7825,-1.8768,-1.8927,-1.9423,-1.9798,-1.9798,-1.9334,-1.8807,-1.8279,-1.7714,-1.7162,-1.655,-1.65,-1.6697,-1.7137,-1.7413,-1.7702,-1.799,-1.8744,-1.9334,-1.961,-1.9736,-1.9798,-1.9798,-1.9798,-1.9798,-1.9798,-1.9798,-1.9798,-1.9798,-1.9798,-1.9798,-0.3625,-0.3116,-0.2454,-0.1369,-0.0811,-0.042,-0.0084,0.0,0.0,0.0,0.0,0.0,0.0,0.0,0.0,0.0,0.0,0.0,0.0,0.0,0.0,0.0,0.0,0.0,0.0,0.0,0.0,0.0,0.0,0.0,0.0,0.0,0.0,0.0,0.0,-1.0595,-1.2962,-1.3732,-1.3955,-1.3687,-1.3821,-1.3728,0.0,0.0,0.0,0.0,0.0,0.0,-1.3303,-1.3126,-1.3629,-1.4557,-1.5084,-1.5825,-1.6671,-1.7182,-1.7647,-1.8008,-1.8008,-1.8008,-1.7871,-1.698,-1.6541,-1.625,-1.5605,-1.5576,-1.5743,-1.5478,-1.541,-1.541,-1.541,-1.541,-1.541,-1.541,-1.541,-1.541,-1.541,-1.5979,-1.6492,-1.6492,-1.7677,-1.8688,-1.8688,-1.9319,-1.9798,-1.9798,-1.9145,-1.8607,-1.8569,-1.7877,-1.7262,-1.6948,-1.7137,-1.7313,-1.7398,-1.784,-1.8154,-1.8204,-1.892,-1.9384,-1.9421,-1.9673,-1.9798,-1.9798,-1.9798,-1.9798,-1.9798,-1.9798,-1.9798,-1.9798,-1.9798,-1.9798,-0.3987,-0.3758,-0.3148,-0.1786,-0.1256,-0.095,-0.0308,0.0,0.0,0.0,0.0,0.0,0.0,0.0,0.0,0.0,0.0,0.0,0.0,0.0,0.0,0.0,0.0,0.0,0.0,0.0,0.0,0.0,0.0,0.0,0.0,0.0,0.0,0.0,0.0,0.0,-1.1101,-1.2861,-1.3489,-1.2969,-1.338,-1.3387,-1.3133,0.0,0.0,0.0,0.0,0.0,-1.2305,-1.2305,-1.2769,-1.3491,-1.3637,-1.4799,-1.6375,-1.646,-1.708,-1.791,-1.791,-1.791,-1.7783,-1.696,-1.6658,-1.6443,-1.5664,-1.541,-1.541,-1.541,-1.541,-1.541,-1.541,-1.541,-1.541,-1.541,-1.541,-1.541,-1.541,-1.5979,-1.6492,-1.6492,-1.7677,-1.8688,-1.8688,-1.9319,-1.9798,-1.9798,-1.8957,-1.8481,-1.8945,-1.8141,-1.7524,-1.7524,-1.7928,-1.8053,-1.7687,-1.8469,-1.8845,-1.848,-1.9296,-1.961,-1.9146,-1.9572,-1.9798,-1.9798,-1.9798,-1.9798,-1.9798,-1.9798,-1.9798,-1.9798,-1.9798,-1.9798,-0.396,-0.4157,-0.4098,-0.3176,-0.2037,-0.1062,-0.095,0.0,0.0,0.0,0.0,0.0,0.0,0.0,0.0,0.0,0.0,0.0,0.0,0.0,0.0,0.0,0.0,0.0,0.0,0.0,0.0,0.0,0.0,0.0,0.0,0.0,0.0,0.0,0.0,0.0,0.0,-1.084,-1.2027,-1.1948,-1.2842,-1.3113,-1.2857,-1.2804,0.0,0.0,0.0,0.0,-1.2305,-1.2305,-1.2372,-1.2586,-1.3382,-1.4414,-1.5475,-1.5873,-1.6626,-1.748,-1.748,-1.748,-1.7393,-1.6863,-1.6475,-1.6095,-1.5566,-1.541,-1.541,-1.541,-1.541,-1.541,-1.541,-1.541,-1.541,-1.541,-1.541,-1.541,-1.541,-1.5979,-1.6492,-1.6492,-1.7677,-1.8688,-1.8688,-1.9319,-1.9798,-1.9798,-1.9259,-1.8907,-1.8995,-1.8468,-1.8078,-1.8078,-1.8154,-1.8355,-1.8719,-1.8907,-1.9158,-1.9535,-1.971,-1.9761,-1.9685,-1.9761,-1.9798,-1.9798,-1.9798,-1.9798,-1.9798,-1.9798,-1.9798,-1.9798,-1.9798,-1.9798,-0.3856,-0.4056,-0.4164,-0.3863,-0.3168,-0.2315,-0.1325,-0.0903,0.0,0.0,0.0,0.0,0.0,0.0,0.0,0.0,0.0,0.0,0.0,0.0,0.0,0.0,0.0,0.0,0.0,0.0,0.0,0.0,0.0,0.0,0.0,0.0,0.0,0.0,0.0,0.0,0.0,-0.9266,-1.0695,-1.123,-1.1819,-1.2254,-1.2543,-1.2543,-1.2432,0.0,0.0,-1.2305,-1.2305,-1.2305,-1.2204,-1.2157,-1.2706,-1.3628,-1.479,-1.6181,-1.6992,-1.7383,-1.7383,-1.7227,-1.6963,-1.6514,-1.6261,-1.6007,-1.5537,-1.541,-1.541,-1.541,-1.541,-1.541,-1.541,-1.541,-1.541,-1.541,-1.541,-1.541,-1.541,-1.5671,-1.5921,-1.5921,-1.6782,-1.7633,-1.8031,-1.8489,-1.9001,-1.9709,-1.9108,-1.877,-1.9346,-1.8958,-1.8619,-1.8619,-1.8894,-1.9058,-1.9008,-1.9259,-1.9547,-1.9786,-1.9798,-1.9798,-1.9798,-1.9798,-1.9798,-1.9798,-1.9798,-1.9798,-1.9798,-1.9798,-1.9798,-1.9798,-1.9798,-1.9798,-0.3797,-0.3931,-0.4075,-0.4167,0.0,-0.3359,-0.2021,-0.1482,0.0,0.0,0.0,0.0,0.0,0.0,0.0,0.0,0.0,0.0,0.0,0.0,0.0,0.0,0.0,0.0,0.0,0.0,0.0,0.0,0.0,0.0,0.0,0.0,0.0,0.0,0.0,0.0,0.0,-0.7821,-0.9216,-1.0453,-1.1115,-1.1759,-1.2305,-1.2305,-1.2305,-1.2298,-1.2231,-1.2204,-1.2191,-1.2124,-1.1964,-1.179,-1.2011,-1.2738,-1.3893,-1.5807,-1.664,-1.6802,-1.6802,-1.6686,-1.6523,-1.6202,-1.6026,-1.588,-1.5508,-1.541,-1.541,-1.541,-1.541,-1.541,-1.541,-1.541,-1.541,-1.541,-1.541,-1.541,-1.541,-1.5555,-1.5671,-1.5671,-1.6255,-1.695,-1.7495,-1.7748,-1.8147,-1.9141,-1.8582,-1.8412,-1.9402,-1.918,-1.8995,-1.9183,-1.956,-1.9635,-1.9221,-1.9572,-1.9798,-1.9798,-1.9798,-1.9798,-1.9798,-1.9798,-1.9798,-1.9798,-1.9798,-1.9798,-1.9798,-1.9798,-1.9798,-1.9798,-1.9798,-1.9798,-0.391,-0.3984,-0.418,-0.419,-0.3824,0.0,-0.3568,-0.2302,0.0,-0.1429,0.0,0.0,0.0,0.0,0.0,0.0,0.0,0.0,0.0,0.0,0.0,0.0,0.0,0.0,0.0,0.0,0.0,0.0,0.0,0.0,0.0,0.0,0.0,0.0,0.0,0.0,0.0,0.0,-0.748,-0.9448,-1.131,-1.2251,-1.2305,-1.2305,-1.2305,-1.2285,-1.2053,-1.194,-1.1913,-1.1603,-1.1442,-1.1422,-1.1449,-1.1815,-1.2449,-1.3507,-1.4379,-1.5086,-1.5086,-1.5541,-1.6134,-1.6105,-1.5821,-1.5449,-1.542,-1.541,-1.541,-1.541,-1.541,-1.541,-1.541,-1.541,-1.541,-1.541,-1.541,-1.541,-1.541,-1.595,-1.6436,-1.6436,-1.7034,-1.755,-1.7578,-1.7599,-1.7643,-1.7731,-1.7675,-1.7935,-1.8676,-1.8732,-1.8984,-1.9671,-1.9773,-1.9786,-1.9748,-1.9786,-1.9798,-1.9798,-1.9798,-1.9798,-1.9798,-1.9798,-1.9798,-1.9798,-1.9798,-1.9798,-1.9798,-1.9798,-1.9798,-1.9798,-1.9798,-1.9798,-0.4211,-0.4133,-0.4082,-0.4082,-0.4071,0.0,0.0,-0.3288,-0.2797,-0.2466,-0.165,0.0,0.0,0.0,0.0,0.0,0.0,0.0,0.0,0.0,0.0,0.0,0.0,0.0,0.0,0.0,0.0,0.0,0.0,0.0,0.0,0.0,0.0,0.0,0.0,0.0,0.0,0.0,-0.7936,-0.9296,-1.0088,-1.1099,-1.2305,-1.2305,-1.2204,-1.2067,-1.1953,-1.1764,-1.1583,-1.1435,-1.1289,-1.1169,-1.1523,-1.2065,-1.2714,-1.3364,-1.3821,-1.4176,-1.4715,-1.4922,-1.499,-1.5506,-1.5547,-1.541,-1.541,-1.541,-1.541,-1.541,-1.541,-1.541,-1.541,-1.541,-1.541,-1.541,-1.541,-1.541,-1.541,-1.5613,-1.5816,-1.5816,-1.6054,-1.6386,-1.6838,-1.6439,-1.6391,-1.7434,-1.7091,-1.7213,-1.8525,-1.8688,-1.898,-1.9721,-1.9798,-1.9798,-1.9798,-1.9798,-1.9798,-1.9798,-1.9798,-1.9798,-1.9798,-1.9798,-1.9798,-1.9798,-1.9798,-1.9798,-1.9798,-1.9798,-1.9798,-1.9798,-1.9798,-1.9798,-0.4612,-0.4447,-0.4365,-0.4116,0.0,0.0,-0.4098,-0.3924,-0.3751,-0.3381,0.0,0.0,0.0,0.0,0.0,0.0,0.0,0.0,0.0,0.0,0.0,0.0,0.0,0.0,0.0,0.0,0.0,0.0,0.0,0.0,0.0,0.0,0.0,0.0,0.0,0.0,0.0,0.0,-0.7727,-0.874,-0.8971,-1.0154,-1.2164,-1.2071,-1.1917,-1.1724,-1.1665,-1.1476,-1.1283,-1.1189,-1.1035,-1.09,-1.128,-1.1745,-1.2215,-1.2519,-1.2964,-1.3497,-1.4087,-1.4408,-1.4658,-1.5235,-1.541,-1.541,-1.541,-1.541,-1.541,-1.541,-1.541,-1.541,-1.541,-1.541,-1.541,-1.541,-1.541,-1.541,-1.541,-1.541,-1.541,-1.541,-1.541,-1.5506,-1.591,-1.5434,-1.539,-1.6545,-1.6046,-1.6159,-1.7873,-1.8148,-1.8589,-1.967,-1.9798,-1.9798,-1.9798,-1.9798,-1.9798,-1.9798,-1.9798,-1.9798,-1.9798,-1.9798,-1.9798,-1.9798,-1.9798,-1.9798,-1.9798,-1.9798,-1.9798,-1.9798,-1.9798,-1.9798,-0.5065,-0.4992,-0.512,0.0,0.0,0.0,-0.4887,-0.4247,-0.3723,-0.4106,0.0,0.0,0.0,0.0,0.0,0.0,0.0,0.0,0.0,0.0,0.0,0.0,0.0,0.0,0.0,0.0,0.0,0.0,0.0,0.0,0.0,0.0,0.0,0.0,0.0,0.0,0.0,0.0,-0.6504,-0.7523,-0.8232,-0.9732,-1.1857,-1.1557,-1.1389,-1.1369,-1.1122,-1.0995,-1.0969,-1.0713,-1.0593,-1.0593,-1.0593,-1.0593,-1.0593,-1.0593,-1.1608,-1.2978,-1.3009,-1.4064,-1.5381,-1.541,-1.541,-1.541,-1.541,-1.541,-1.541,-1.541,-1.541,-1.541,-1.541,-1.541,-1.541,-1.541,-1.541,-1.541,-1.541,-1.541,-1.541,-1.541,-1.541,-1.5283,-1.4863,-1.4813,-1.4813,-1.4813,-1.4414,-1.475,-1.6574,-1.6905,-1.7728,-1.9581,-1.9798,-1.9798,-1.9798,-1.9798,-1.9798,-1.9798,-1.9798,-1.9798,-1.9798,-1.9798,-1.9798,-1.9798,-1.9798,-1.9798,-1.9798,-1.9798,-1.9798,-1.9798,-1.9798,-1.9798,-0.6145,-0.5543,0.0,-0.511,0.0,0.0,0.0,-0.4958,0.0,0.0,0.0,0.0,0.0,0.0,0.0,0.0,0.0,0.0,0.0,0.0,0.0,0.0,0.0,0.0,0.0,0.0,0.0,0.0,0.0,0.0,0.0,0.0,0.0,0.0,0.0,0.0,0.0,0.0,0.0,-0.7364,-0.7386,-0.8537,-1.0639,-1.1188,-1.1316,-1.1116,-1.1029,-1.0875,-1.0713,-1.0626,-1.0593,-1.0593,-1.0593,-1.0593,-1.0593,-1.0593,-1.1264,-1.2235,-1.2787,-1.3666,-1.4658,-1.5235,-1.541,-1.541,-1.541,-1.541,-1.541,-1.541,-1.541,-1.541,-1.541,-1.541,-1.541,-1.541,-1.541,-1.541,-1.541,-1.541,-1.541,-1.541,-1.541,-1.5371,-1.5244,-1.498,-1.4813,-1.4813,-1.4414,-1.46,-1.5988,-1.664,-1.7519,-1.8879,-1.9044,-1.9228,-1.9747,-1.9798,-1.9648,-1.9259,-1.9233,-1.9396,-1.9786,-1.9798,-1.9798,-1.9798,-1.9798,-1.9798,-1.9798,-1.9798,-1.9798,-1.9798,-1.9798,-1.9798,-0.6913,-0.6441,0.0,-0.569,-0.5404,0.0,0.0,0.0,0.0,0.0,0.0,0.0,0.0,0.0,0.0,0.0,0.0,0.0,0.0,0.0,0.0,0.0,0.0,0.0,0.0,0.0,0.0,0.0,0.0,0.0,0.0,0.0,0.0,0.0,0.0,0.0,0.0,0.0,0.0,0.0,-0.6746,-0.7692,-0.9282,-1.0169,-1.0685,-1.0854,-1.0854,-1.0754,-1.0593,-1.0593,-1.0593,-1.0593,-1.0593,-1.0593,-1.0593,-1.0593,-1.1108,-1.1865,-1.2358,-1.3274,-1.4273,-1.4785,-1.5138,-1.541,-1.541,-1.541,-1.541,-1.541,-1.541,-1.541,-1.541,-1.541,-1.541,-1.541,-1.541,-1.541,-1.541,-1.541,-1.541,-1.541,-1.541,-1.5361,-1.5186,-1.4951,-1.4727,-1.4551,-1.477,-1.53,-1.6325,-1.7223,-1.813,-1.9036,-1.915,-1.9307,-1.9747,-1.9798,-1.9572,-1.9033,-1.9008,-1.9045,-1.9158,-1.9171,-1.9171,-1.9171,-1.9171,-1.9271,-1.9497,-1.9271,-1.9271,-1.9497,-1.9271,-1.9171,-0.7448,0.0,0.0,-0.6285,0.0,0.0,0.0,0.0,0.0,0.0,0.0,0.0,0.0,0.0,0.0,0.0,0.0,0.0,0.0,0.0,0.0,0.0,0.0,0.0,0.0,0.0,0.0,0.0,0.0,0.0,0.0,0.0,0.0,0.0,0.0,0.0,0.0,0.0,0.0,0.0,0.0,-0.7079,-0.8027,-0.8909,-0.9786,-1.0593,-1.0593,-1.0593,-1.0593,-1.0593,-1.0593,-1.0593,-1.0593,-1.0593,-1.0593,-1.0593,-1.1108,-1.1803,-1.1803,-1.281,-1.4085,-1.4085,-1.4599,-1.5196,-1.5264,-1.5294,-1.5323,-1.5381,-1.541,-1.541,-1.541,-1.541,-1.541,-1.541,-1.541,-1.541,-1.541,-1.541,-1.541,-1.541,-1.541,-1.5293,-1.4912,-1.4844,-1.4697,-1.4231,-1.5179,-1.6218,-1.6982,-1.798,-1.8844,-1.9452,-1.9501,-1.9553,-1.9695,-1.9594,-1.9345,-1.8883,-1.8747,-1.8448,-1.7901,-1.8083,-1.8204,-1.8204,-1.8157,-1.837,-1.8846,-1.837,-1.8359,-1.8833,-1.8406,-1.818,0.0,-0.7585,0.0,0.0,0.0,0.0,0.0,0.0,0.0,0.0,0.0,0.0,0.0,0.0,0.0,0.0,0.0,0.0,0.0,0.0,0.0,0.0,0.0,0.0,0.0,0.0,0.0,0.0,0.0,0.0,0.0,0.0,0.0,0.0,0.0,0.0,0.0,0.0,0.0,0.0,-0.5605,-0.6502,-0.8027,-0.8909,-0.9786,-1.0593,-1.0593,-1.0593,-1.0593,-1.0593,-1.0593,-1.0593,-1.0593,-1.0593,-1.0593,-1.0593,-1.1108,-1.1803,-1.1803,-1.2443,-1.3252,-1.3252,-1.3364,-1.3636,-1.4273,-1.4451,-1.4599,-1.5235,-1.541,-1.541,-1.541,-1.541,-1.541,-1.541,-1.541,-1.541,-1.541,-1.541,-1.541,-1.541,-1.541,-1.5381,-1.5293,-1.5273,-1.5127,-1.4707,-1.4327,-1.4388,-1.5239,-1.5549,-1.6079,-1.7092,-1.7219,-1.7688,-1.8847,-1.811,-1.7613,-1.7654,-1.6786,-1.6018,-1.5464,-1.7214,-1.8204,-1.8204,-1.7738,-1.7545,-1.7654,-1.7545,-1.7545,-1.7678,-1.8027,-1.7954,0.0,0.0,0.0,0.0,0.0,0.0,0.0,0.0,0.0,0.0,0.0,0.0,0.0,0.0,0.0,0.0,0.0,0.0,0.0,0.0,0.0,0.0,0.0,0.0,0.0,0.0,0.0,0.0,0.0,0.0,0.0,0.0,0.0,0.0,0.0,0.0,-0.5395,-0.5395,-0.5395,-0.5395,-0.5395,-0.6305,-0.8059,-0.9326,-1.0174,-1.0593,-1.0593,-1.0593,-1.0593,-1.0593,-1.0593,-1.0593,-1.0593,-1.0593,-1.0593,-1.0593,-1.0863,-1.1226,-1.1226,-1.1748,-1.2481,-1.2879,-1.3252,-1.3726,-1.454,-1.4776,-1.4874,-1.5294,-1.541,-1.541,-1.541,-1.541,-1.541,-1.541,-1.541,-1.541,-1.541,-1.541,-1.541,-1.541,-1.541,-1.541,-1.541,-1.5244,-1.5153,-1.5222,-1.4898,-1.4916,-1.5648,-1.598,-1.6377,-1.6946,-1.7034,-1.733,-1.8124,-1.7452,-1.6937,-1.6786,-1.5974,-1.5261,-1.472,-1.5858,-1.6514,-1.6514,-1.6221,-1.6196,-1.644,-1.6184,-1.6196,-1.6452,-1.6504,-1.6362,0.0,0.0,0.0,0.0,0.0,0.0,0.0,0.0,0.0,0.0,0.0,0.0,0.0,0.0,0.0,0.0,0.0,0.0,0.0,0.0,0.0,0.0,0.0,0.0,0.0,0.0,0.0,0.0,0.0,0.0,0.0,0.0,0.0,0.0,0.0,0.0,-0.5395,-0.5395,-0.5395,-0.5395,-0.5557,-0.6371,-0.7832,-0.9582,-1.046,-1.0593,-1.0593,-1.0593,-1.0593,-1.0593,-1.0593,-1.0593,-1.0593,-1.0593,-1.0593,-1.0593,-1.0593,-1.0593,-1.0593,-1.1045,-1.1748,-1.2543,-1.3243,-1.3957,-1.4894,-1.5196,-1.5235,-1.5352,-1.541,-1.541,-1.541,-1.541,-1.541,-1.541,-1.541,-1.5391,-1.5322,-1.5303,-1.5303,-1.5303,-1.5361,-1.541,-1.541,-1.5068,-1.5,-1.556,-1.568,-1.5911,-1.6483,-1.695,-1.7219,-1.7219,-1.7219,-1.723,-1.7291,-1.6822,-1.6347,-1.5961,-1.5364,-1.4851,-1.4408,-1.4387,-1.4387,-1.4387,-1.4491,-1.476,-1.5207,-1.476,-1.4771,-1.5207,-1.4865,-1.4629,0.0,0.0,0.0,0.0,0.0,0.0,0.0,0.0,0.0,0.0,0.0,0.0,0.0,0.0,0.0,0.0,0.0,0.0,0.0,0.0,0.0,0.0,0.0,0.0,0.0,0.0,0.0,0.0,0.0,0.0,0.0,0.0,0.0,0.0,0.0,0.0,-0.5395,-0.5395,-0.5395,-0.5395,-0.617,-0.6654,-0.6948,-0.8678,-0.9881,-1.0593,-1.0593,-1.0593,-1.0593,-1.0593,-1.0593,-1.0593,-1.0593,-1.0593,-1.0593,-1.0593,-1.0593,-1.0593,-1.0593,-1.0681,-1.0895,-1.171,-1.2012,-1.2412,-1.3897,-1.4362,-1.451,-1.5196,-1.541,-1.541,-1.541,-1.541,-1.541,-1.541,-1.541,-1.5312,-1.4951,-1.4873,-1.4873,-1.4873,-1.5156,-1.541,-1.541,-1.5068,-1.494,-1.5379,-1.5151,-1.5099,-1.5522,-1.5651,-1.569,-1.569,-1.569,-1.5806,-1.6087,-1.511,-1.4566,-1.48,-1.383,-1.3222,-1.3138,-1.3138,-1.3138,-1.3138,-1.3647,-1.3965,-1.4028,-1.3965,-1.3965,-1.4052,-1.4501,-1.4422,-0.7035,0.0,0.0,0.0,0.0,0.0,0.0,0.0,0.0,0.0,0.0,0.0,0.0,0.0,0.0,0.0,0.0,0.0,0.0,0.0,0.0,0.0,0.0,0.0,0.0,0.0,0.0,0.0,0.0,0.0,0.0,-0.2192,-0.3111,-0.3982,-0.4921,0.0,-0.5395,-0.5395,-0.5395,-0.5395,-0.6268,-0.6687,-0.6752,-0.8517,-0.9498,-0.9888,-1.0403,-1.0593,-1.0593,-1.0593,-1.0593,-1.0593,-1.0593,-1.0593,-1.0593,-1.0593,-1.0593,-1.0593,-1.0593,-1.0593,-1.0744,-1.1531,-1.1803,-1.2012,-1.3183,-1.3846,-1.4264,-1.4628,-1.505,-1.541,-1.541,-1.541,-1.541,-1.541,-1.5234,-1.501,-1.4852,-1.4813,-1.4717,-1.4463,-1.4923,-1.5342,-1.5098,-1.5107,-1.5205,-1.5381,-1.5254,-1.5205,-1.5391,-1.541,-1.541,-1.541,-1.541,-1.5378,-1.5295,-1.4565,-1.4077,-1.3988,-1.3303,-1.2905,-1.2905,-1.2905,-1.2905,-1.2905,-1.3152,-1.331,-1.331,-1.331,-1.331,-1.331,-1.3563,-1.3539,0.0,0.0,0.0,0.0,0.0,0.0,0.0,0.0,0.0,0.0,0.0,0.0,0.0,0.0,0.0,0.0,0.0,0.0,0.0,0.0,0.0,0.0,0.0,0.0,0.0,0.0,0.0,0.0,0.0,0.0,0.0,-0.2141,-0.3046,-0.3866,-0.4786,-0.53,-0.5337,-0.5375,-0.5395,-0.5392,-0.5996,-0.6294,-0.6355,-0.782,-0.8628,-0.8854,-1.0072,-1.0593,-1.0593,-1.0593,-1.0593,-1.0593,-1.0593,-1.0593,-1.0593,-1.0593,-1.0593,-1.0593,-1.0593,-1.0593,-1.0744,-1.1531,-1.1803,-1.1958,-1.2757,-1.3545,-1.4213,-1.4213,-1.4776,-1.541,-1.541,-1.541,-1.541,-1.541,-1.5176,-1.4883,-1.4668,-1.4619,-1.4521,-1.4172,-1.4621,-1.5019,-1.4814,-1.5049,-1.5283,-1.5391,-1.541,-1.541,-1.541,-1.541,-1.541,-1.541,-1.541,-1.5244,-1.4814,-1.4385,-1.3929,-1.3535,-1.3115,-1.2905,-1.2905,-1.2905,-1.2905,-1.2905,-1.2905,-1.2905,-1.2905,-1.2905,-1.2905,-1.2905,-1.2905,-1.2905,0.0,0.0,0.0,0.0,0.0,0.0,0.0,0.0,0.0,0.0,0.0,0.0,0.0,0.0,0.0,0.0,0.0,0.0,0.0,0.0,0.0,0.0,0.0,0.0,0.0,0.0,0.0,0.0,0.0,0.0,-0.1111,-0.2006,-0.2839,-0.361,-0.4476,-0.4975,-0.511,-0.532,-0.5395,-0.5392,-0.5245,-0.5173,-0.5198,-0.6,-0.6757,-0.7529,-0.9675,-1.0593,-1.0593,-1.0593,-1.0593,-1.0593,-1.0593,-1.0593,-1.0593,-1.0593,-1.0593,-1.0593,-1.0593,-1.0593,-1.0744,-1.1531,-1.1803,-1.1958,-1.2757,-1.3545,-1.4213,-1.4213,-1.4776,-1.541,-1.541,-1.541,-1.541,-1.541,-1.5391,-1.5128,-1.4319,-1.4143,-1.4133,-1.4114,-1.4143,-1.4299,-1.4717,-1.4833,-1.4951,-1.5352,-1.541,-1.541,-1.541,-1.541,-1.541,-1.541,-1.541,-1.5244,-1.4814,-1.4385,-1.3929,-1.3535,-1.3115,-1.2905,-1.2905,-1.2905,-1.2905,-1.2905,-1.2905,-1.2905,-1.2905,-1.2905,-1.2905,-1.2905,-1.2905,-1.2905,0.0,0.0,0.0,0.0,0.0,0.0,0.0,0.0,0.0,0.0,0.0,0.0,0.0,0.0,0.0,0.0,0.0,0.0,0.0,0.0,0.0,0.0,0.0,0.0,0.0,0.0,0.0,0.0,0.0,0.0,-0.2652,-0.2584,-0.3103,-0.4394,-0.4732,-0.4914,-0.4965,-0.505,-0.5077,-0.5077,-0.5023,-0.4965,-0.4992,-0.5836,-0.6609,-0.7389,-0.8741,-0.9597,-1.0043,-1.02,-1.0274,-1.0294,-1.0519,-1.0593,-1.0593,-1.0593,-1.0593,-1.0593,-1.0593,-1.0593,-1.0656,-1.0926,-1.1375,-1.1865,-1.2143,-1.3144,-1.4213,-1.4213,-1.4776,-1.541,-1.541,-1.541,-1.541,-1.541,-1.5205,-1.4853,-1.4231,-1.4104,-1.3948,-1.3437,-1.3994,-1.4512,-1.4358,-1.4824,-1.5234,-1.5391,-1.541,-1.541,-1.541,-1.541,-1.541,-1.541,-1.541,-1.5127,-1.4397,-1.4202,-1.3812,-1.3154,-1.2993,-1.2905,-1.2905,-1.2905,-1.2905,-1.2905,-1.2905,-1.2905,-1.2905,-1.2905,-1.2905,-1.2905,-1.2905,-1.3052,-0.6023,0.0,0.0,0.0,0.0,0.0,0.0,0.0,0.0,0.0,0.0,0.0,0.0,0.0,0.0,0.0,0.0,0.0,0.0,0.0,0.0,0.0,0.0,0.0,0.0,0.0,0.0,0.0,0.0,0.0,-0.3431,-0.3029,-0.3392,-0.4736,-0.4816,-0.4843,-0.4843,-0.4894,-0.4887,-0.4887,-0.4867,-0.4843,-0.484,-0.5398,-0.603,-0.675,-0.7566,-0.8593,-0.9735,-1.0,-1.0083,-1.0117,-1.0479,-1.0593,-1.0593,-1.0593,-1.0593,-1.0593,-1.0593,-1.0593,-1.0593,-1.0593,-1.0958,-1.1406,-1.1406,-1.232,-1.3446,-1.3726,-1.4392,-1.505,-1.5323,-1.5312,-1.5166,-1.4991,-1.4775,-1.4453,-1.3987,-1.3899,-1.3695,-1.3042,-1.3682,-1.4307,-1.4133,-1.4699,-1.5244,-1.5391,-1.541,-1.541,-1.541,-1.541,-1.541,-1.541,-1.541,-1.5186,-1.4582,-1.427,-1.387,-1.334,-1.3062,-1.2905,-1.2905,-1.2905,-1.2905,-1.2905,-1.2905,-1.2905,-1.2905,-1.2905,-1.2905,-1.2905,-1.3052,-1.3311,0.0,0.0,0.0,0.0,0.0,0.0,0.0,0.0,0.0,0.0,0.0,0.0,0.0,0.0,0.0,0.0,0.0,0.0,0.0,0.0,0.0,0.0,0.0,0.0,0.0,0.0,0.0,0.0,0.0,0.0,-0.3345,-0.3345,-0.3707,-0.446,-0.4634,-0.4684,-0.4684,-0.483,-0.4874,-0.4874,-0.4755,-0.4684,-0.4677,-0.4559,-0.4869,-0.5542,-0.6258,-0.7722,-0.965,-0.9943,-1.0094,-1.0134,-1.0466,-1.0579,-1.0579,-1.0586,-1.0586,-1.0579,-1.0586,-1.0593,-1.0593,-1.0593,-1.0624,-1.0656,-1.0656,-1.1195,-1.1989,-1.2787,-1.3545,-1.4353,-1.5128,-1.5059,-1.4678,-1.4211,-1.4094,-1.3977,-1.3594,-1.3496,-1.3369,-1.3003,-1.3252,-1.3646,-1.4055,-1.4512,-1.4941,-1.5352,-1.541,-1.541,-1.541,-1.541,-1.541,-1.5391,-1.5371,-1.5391,-1.5361,-1.4582,-1.4094,-1.4075,-1.333,-1.2905,-1.2905,-1.2905,-1.2905,-1.2905,-1.2905,-1.2905,-1.2905,-1.2905,-1.2905,-1.2915,-1.332,-1.3714,-0.5772,0.0,0.0,0.0,0.0,0.0,0.0,0.0,0.0,0.0,0.0,0.0,0.0,0.0,0.0,0.0,0.0,0.0,0.0,0.0,0.0,0.0,0.0,0.0,0.0,0.0,0.0,0.0,0.0,-0.3566,-0.4125,-0.4181,-0.4267,-0.4491,-0.4532,-0.4552,-0.4552,-0.4597,-0.4617,-0.4617,-0.4573,-0.4552,-0.4552,-0.4508,-0.4869,-0.5515,-0.5706,-0.673,-0.8315,-0.9134,-0.9584,-0.9833,-1.0127,-1.0241,-1.0267,-1.0512,-1.0452,-1.0274,-1.0519,-1.0593,-1.0593,-1.0593,-1.0982,-1.1469,-1.1469,-1.202,-1.2696,-1.2948,-1.3161,-1.3455,-1.3949,-1.444,-1.4678,-1.4211,-1.387,-1.3652,-1.3525,-1.3271,-1.3105,-1.3301,-1.3926,-1.4473,-1.459,-1.4961,-1.5273,-1.5391,-1.541,-1.541,-1.541,-1.541,-1.5293,-1.499,-1.5234,-1.5039,-1.4111,-1.4065,-1.3851,-1.3271,-1.3008,-1.2905,-1.2905,-1.2905,-1.2905,-1.2905,-1.2905,-1.2905,-1.2905,-1.2905,-1.2905,-1.2925,-1.3623,-1.3831,-0.603,0.0,0.0,0.0,0.0,0.0,0.0,0.0,0.0,0.0,0.0,0.0,0.0,0.0,0.0,0.0,0.0,0.0,0.0,0.0,0.0,0.0,0.0,0.0,0.0,0.0,0.0,0.0,-0.407,-0.4015,-0.446,-0.4491,-0.4491,-0.4491,-0.4491,-0.4491,-0.4491,-0.4491,-0.4491,-0.4491,-0.4491,-0.4491,-0.4491,-0.4491,-0.4869,-0.5515,-0.5814,-0.6632,-0.7762,-0.8661,-0.9204,-0.9526,-0.982,-0.9933,-0.996,-1.0164,-1.0117,-0.996,-1.0164,-1.0224,-1.0244,-1.0365,-1.0702,-1.1088,-1.1088,-1.1425,-1.1851,-1.2063,-1.2584,-1.3053,-1.3128,-1.3697,-1.415,-1.3685,-1.3418,-1.3242,-1.3242,-1.3193,-1.3213,-1.3457,-1.4053,-1.457,-1.4784,-1.5127,-1.541,-1.541,-1.541,-1.541,-1.541,-1.5254,-1.5059,-1.4842,-1.4844,-1.4552,-1.3802,-1.3802,-1.3662,-1.3174,-1.3003,-1.2905,-1.2905,-1.2905,-1.2905,-1.2905,-1.2905,-1.2905,-1.2905,-1.2905,-1.2993,-1.3154,-1.3617,-1.3936,-0.6478,-0.6533,0.0,0.0,0.0,0.0,0.0,-0.7615,0.0,0.0,0.0,0.0,0.0,0.0,0.0,0.0,0.0,0.0,0.0,0.0,0.0,0.0,0.0,0.0,0.0,0.0,0.0,-0.4491,-0.4491,-0.4491,-0.4491,-0.4491,-0.4491,-0.4491,-0.4491,-0.4491,-0.4491,-0.4491,-0.4491,-0.4491,-0.4491,-0.4491,-0.4491,-0.4491,-0.4814,-0.5433,-0.6172,-0.688,-0.7643,-0.8374,-0.8891,-0.9237,-0.9532,-0.9633,-0.9639,-0.9673,-0.9659,-0.9639,-0.9673,-0.9715,-0.9726,-0.998,-1.0067,-1.0067,-1.0067,-1.0067,-1.0157,-1.0624,-1.1827,-1.286,-1.2475,-1.2922,-1.3398,-1.3013,-1.2905,-1.2905,-1.2905,-1.3213,-1.3516,-1.3574,-1.389,-1.4319,-1.4785,-1.5166,-1.541,-1.541,-1.541,-1.5391,-1.5352,-1.5019,-1.4746,-1.4676,-1.4309,-1.4065,-1.3977,-1.3665,-1.3486,-1.3437,-1.3111,-1.2905,-1.2905,-1.2905,-1.2905,-1.2905,-1.2905,-1.2905,-1.2905,-1.2905,-1.3076,-1.3437,-1.3486,-1.3916,-0.7285,-0.7435,-0.7539,-0.7106,0.0,0.0,0.0,-0.7189,0.0,0.0,0.0,0.0,0.0,0.0,0.0,0.0,0.0,0.0,0.0,0.0,0.0,0.0,0.0,0.0,0.0,0.0,0.0,-0.4491,-0.4491,-0.4491,-0.4491,-0.4491,-0.4491,-0.4491,-0.4491,-0.4491,-0.4491,-0.4491,-0.4491,-0.4491,-0.4491,-0.4491,-0.4491,-0.4491,-0.457,-0.4732,-0.541,-0.6145,-0.6858,-0.7616,-0.8425,-0.9217,-0.9277,-0.9297,-0.9324,-0.9593,-0.9532,-0.9331,-0.9599,-0.9715,-0.9722,-0.9746,-0.9766,-0.9766,-0.9766,-0.9766,-0.9789,-0.9896,-1.0991,-1.2032,-1.1644,-1.2515,-1.3398,-1.3013,-1.2905,-1.2905,-1.2905,-1.3213,-1.3613,-1.3919,-1.4365,-1.4795,-1.5215,-1.5352,-1.541,-1.541,-1.541,-1.5293,-1.4951,-1.4834,-1.4521,-1.3828,-1.3958,-1.3831,-1.3184,-1.3359,-1.3359,-1.3052,-1.2954,-1.2905,-1.2905,-1.2905,-1.2905,-1.2905,-1.2905,-1.2905,-1.2905,-1.2905,-1.2944,-1.3008,-1.335,-1.3594,0.0,0.0,-0.7832,-0.7533,0.0,0.0,0.0,0.0,0.0,0.0,0.0,0.0,0.0,0.0,0.0,0.0,0.0,0.0,0.0,0.0,0.0,0.0,0.0,0.0,0.0,0.0,-0.4491,-0.4491,-0.4491,-0.4491,-0.4491,-0.4491,-0.4491,-0.4491,-0.4491,-0.4491,-0.4491,-0.4491,-0.4491,-0.4491,-0.4491,-0.4491,-0.4491,-0.4491,-0.468,-0.503,-0.5351,-0.6113,-0.7182,-0.7563,-0.8209,-0.8998,-0.8998,-0.8998,-0.9018,-0.9192,-0.9152,-0.9018,-0.9192,-0.9245,-0.9272,-0.9412,-0.9459,-0.9459,-0.9459,-0.9359,-0.9245,-0.9245,-1.0015,-1.0819,-1.0593,-1.161,-1.2598,-1.2391,-1.2642,-1.2842,-1.2635,-1.3071,-1.3562,-1.3799,-1.4342,-1.4922,-1.5342,-1.5234,-1.5098,-1.5098,-1.4912,-1.4669,-1.4492,-1.4277,-1.3984,-1.3555,-1.3506,-1.334,-1.2935,-1.3271,-1.333,-1.2935,-1.3076,-1.3096,-1.2915,-1.2905,-1.2905,-1.2905,-1.2905,-1.2905,-1.2905,-1.2905,-1.2905,-1.2905,-1.3096,-1.3311,0.0,0.0,0.0,0.0,0.0,-0.7618,0.0,0.0,0.0,-0.7363,0.0,0.0,0.0,0.0,0.0,0.0,0.0,0.0,0.0,0.0,0.0,0.0,0.0,0.0,0.0,0.0,0.0,-0.4487,-0.4436,-0.4429,-0.4487,-0.4491,-0.4491,-0.4491,-0.4491,-0.4491,-0.4491,-0.4491,-0.4491,-0.4491,-0.4491,-0.4491,-0.4491,-0.4491,-0.4787,-0.5328,-0.5433,-0.6167,-0.7283,-0.7589,-0.8049,-0.8586,-0.8752,-0.8804,-0.8804,-0.8804,-0.8804,-0.8804,-0.8804,-0.8804,-0.8844,-0.9051,-0.9131,-0.9131,-0.9131,-0.8964,-0.8804,-0.8804,-0.929,-0.9788,-0.9788,-1.0686,-1.1616,-1.1616,-1.2064,-1.2407,-1.2085,-1.2599,-1.3137,-1.3253,-1.3866,-1.4592,-1.5284,-1.5068,-1.4813,-1.4813,-1.4414,-1.4104,-1.4104,-1.3812,-1.3633,-1.3633,-1.3252,-1.3023,-1.3023,-1.3242,-1.3242,-1.2925,-1.3203,-1.3232,-1.2915,-1.2905,-1.2905,-1.2905,-1.2905,-1.2905,-1.2905,-1.2905,-1.2905,-1.2905,-1.2905,-1.3066,0.0,0.0,0.0,0.0,-0.8103,0.0,0.0,0.0,-0.737,-0.7121,0.0,0.0,0.0,0.0,0.0,0.0,0.0,0.0,0.0,0.0,0.0,0.0,0.0,0.0,0.0,0.0,0.0,0.0,-0.4219,-0.4185,-0.4477,-0.4491,-0.4491,-0.4491,-0.4491,-0.4491,-0.4491,-0.4491,-0.4491,-0.4491,-0.4491,-0.4491,-0.4491,-0.4491,-0.4546,-0.4653,-0.5246,-0.5597,-0.5842,-0.7149,-0.775,-0.7883,-0.8533,-0.8804,-0.8804,-0.8804,-0.8804,-0.8804,-0.8804,-0.8804,-0.8811,-0.8844,-0.8858,-0.8858,-0.8858,-0.8831,-0.8804,-0.8804,-0.929,-0.9788,-0.9788,-1.0338,-1.0914,-1.0914,-1.0965,-1.1032,-1.0972,-1.1369,-1.1803,-1.2044,-1.2498,-1.3406,-1.51,-1.5068,-1.4813,-1.4813,-1.4414,-1.4104,-1.4104,-1.4065,-1.4036,-1.4036,-1.3665,-1.3437,-1.3437,-1.3135,-1.2954,-1.2905,-1.2954,-1.2954,-1.2905,-1.2905,-1.2905,-1.2905,-1.2905,-1.2905,-1.2905,-1.2905,-1.2905,-1.2905,-1.2905,-1.2925,0.0,0.0,0.0,0.0,0.0,0.0,0.0,0.0,-0.7221,0.0,0.0,0.0,0.0,0.0,0.0,0.0,0.0,0.0,0.0,0.0,0.0,0.0,0.0,0.0,0.0,0.0,0.0,0.0,0.0,-0.4148,-0.4474,-0.4491,-0.4491,-0.4491,-0.4491,-0.4491,-0.4491,-0.4491,-0.4491,-0.4491,-0.4491,-0.4491,-0.4491,-0.4491,-0.4491,-0.4519,-0.4787,-0.5136,-0.5542,-0.6167,-0.6686,-0.7128,-0.7883,-0.8427,-0.8804,-0.8804,-0.8804,-0.8804,-0.8804,-0.8804,-0.8804,-0.8804,-0.8804,-0.8804,-0.8804,-0.8804,-0.8804,-0.8804,-0.9008,-0.9211,-0.9211,-0.971,-1.0218,-1.0218,-1.0517,-1.0752,-1.0546,-1.1148,-1.1696,-1.1571,-1.2228,-1.3216,-1.4483,-1.4361,-1.3894,-1.321,-1.3687,-1.3883,-1.3265,-1.371,-1.4104,-1.4104,-1.3948,-1.3851,-1.3851,-1.3685,-1.3506,-1.3262,-1.3042,-1.2988,-1.3232,-1.3008,-1.3023,-1.3242,-1.3032,-1.2905,-1.2905,-1.2905,-1.2905,-1.2905,-1.2905,-1.2905,-0.8804,0.0,0.0,0.0,0.0,0.0,0.0,0.0,0.0,0.0,0.0,0.0,0.0,0.0,0.0,0.0,0.0,0.0,0.0,0.0,0.0,0.0,0.0,0.0,0.0,0.0,0.0,0.0,0.0,0.0,-0.4385,-0.4429,-0.445,-0.4487,-0.4491,-0.4491,-0.4491,-0.4491,-0.4491,-0.4491,-0.4491,-0.4491,-0.4491,-0.4491,-0.4491,-0.4491,-0.4491,-0.4787,-0.5246,-0.5433,-0.5814,-0.6367,-0.7101,-0.7723,-0.8235,-0.8646,-0.8804,-0.8804,-0.8804,-0.8804,-0.8804,-0.8804,-0.8804,-0.8804,-0.8804,-0.8804,-0.8804,-0.8804,-0.8804,-0.8804,-0.8804,-0.9159,-0.951,-0.951,-0.9891,-1.0185,-0.9941,-1.0564,-1.1163,-1.1193,-1.1914,-1.2825,-1.3708,-1.3714,-1.3386,-1.2795,-1.3505,-1.3876,-1.3207,-1.3817,-1.4328,-1.4445,-1.4358,-1.4241,-1.4114,-1.3997,-1.3753,-1.3359,-1.3047,-1.3042,-1.332,-1.3154,-1.3145,-1.333,-1.3154,-1.3023,-1.2905,-1.2905,-1.2905,-1.2905,-1.2905,-1.2905,0.0,0.0,0.0,0.0,0.0,0.0,0.0,0.0,-0.7477,0.0,0.0,0.0,0.0,0.0,0.0,-0.6704,0.0,0.0,0.0,0.0,0.0,0.0,0.0,0.0,0.0,0.0,0.0,0.0,0.0,0.0,-0.417,-0.4204,-0.4294,-0.4487,-0.4491,-0.4491,-0.4491,-0.4491,-0.4491,-0.4491,-0.4491,-0.4491,-0.4491,-0.4491,-0.4491,-0.4491,-0.4491,-0.4519,-0.457,-0.5246,-0.5515,-0.5597,-0.634,-0.6642,-0.6858,-0.8262,-0.8804,-0.8804,-0.8804,-0.8804,-0.8804,-0.8804,-0.8804,-0.8804,-0.8804,-0.8804,-0.8804,-0.8804,-0.8804,-0.8804,-0.8804,-0.8804,-0.8831,-0.8831,-0.8857,-0.8864,-0.8844,-0.9072,-0.9611,-1.0691,-1.1157,-1.172,-1.2852,-1.3362,-1.3855,-1.4598,-1.435,-1.425,-1.466,-1.4756,-1.4922,-1.5322,-1.501,-1.459,-1.4143,-1.3734,-1.335,-1.2954,-1.2915,-1.2915,-1.2925,-1.3281,-1.3301,-1.2935,-1.3281,-1.3281,-1.2905,-1.2905,-1.2905,-1.2905,-1.2905,-1.2905,0.0,0.0,-0.8711,-0.8323,0.0,0.0,0.0,0.0,0.0,0.0,0.0,0.0,0.0,0.0,-0.7735,-0.7267,0.0,0.0,0.0,0.0,0.0,0.0,0.0,0.0,0.0,0.0,0.0,0.0,0.0,0.0,0.0,-0.4338,-0.444,-0.4487,-0.4491,-0.4491,-0.4491,-0.4491,-0.4491,-0.4491,-0.4491,-0.4491,-0.4491,-0.4491,-0.4491,-0.4491,-0.4491,-0.4491,-0.4515,-0.4732,-0.4842,-0.4948,-0.615,-0.6588,-0.6723,-0.7696,-0.8076,-0.8129,-0.8619,-0.8804,-0.8804,-0.8804,-0.8804,-0.8804,-0.8804,-0.8804,-0.8804,-0.8804,-0.8804,-0.8804,-0.8804,-0.8804,-0.8804,-0.8804,-0.8804,-0.8858,-0.9024,-0.9297,-0.9699,-1.0255,-1.062,-1.1136,-1.2058,-1.2317,-1.2609,-1.3261,-1.426,-1.4762,-1.4223,-1.4523,-1.4844,-1.498,-1.4609,-1.427,-1.4114,-1.3323,-1.2642,-1.2206,-1.1758,-1.1737,-1.2219,-1.1904,-1.1983,-1.2557,-1.2759,-1.2728,-1.2487,-1.2598,-1.2475,-1.2163,-1.1708,-1.1999,-0.8804,-0.8804,0.0,0.0,-0.7852,0.0,0.0,0.0,0.0,0.0,0.0,0.0,0.0,0.0,0.0,-0.734,-0.7393,0.0,0.0,0.0,0.0,0.0,0.0,0.0,0.0,0.0,-0.407,-0.3906,0.0,0.0,0.0,0.0,-0.4436,-0.4487,-0.4491,-0.4491,-0.4491,-0.4491,-0.4491,-0.4491,-0.4491,-0.4491,-0.4491,-0.4491,-0.4491,-0.4491,-0.4491,-0.4491,-0.4491,-0.4491,-0.4653,-0.4948,-0.585,-0.6367,-0.6723,-0.7723,-0.8103,-0.8156,-0.8639,-0.8804,-0.8804,-0.8804,-0.8804,-0.8804,-0.8804,-0.8804,-0.8804,-0.8804,-0.8804,-0.8804,-0.8804,-0.8804,-0.8804,-0.8804,-0.8804,-0.8858,-0.9151,-0.9472,-0.9854,-1.0407,-1.0804,-1.1288,-1.2081,-1.2235,-1.2341,-1.2703,-1.3785,-1.43,-1.3599,-1.3803,-1.4062,-1.4143,-1.3792,-1.3488,-1.3331,-1.2457,-1.1772,-1.1459,-1.104,-1.1002,-1.149,-1.1308,-1.1389,-1.1822,-1.2252,-1.2227,-1.1766,-1.1974,-1.186,-1.1441,-1.1241,-1.1649]}]]